<?xml version="1.0" encoding="UTF-8" standalone="no" ?>
<gpx xmlns="http://www.topografix.com/GPX/1/1" creator="CompeGPS" version="1.1" xmlns:xsi="http://www.w3.org/2001/XMLSchema-instance" xsi:schemaLocation="http://www.topografix.com/GPX/1/1 http://www.topografix.com/GPX/1/1/gpx.xsd http://www.garmin.com/xmlschemas/GpxExtensions/v3 http://www.garmin.com/xmlschemas/GpxExtensionsv3.xsd http://www.garmin.com/xmlschemas/TrackPointExtension/v1 http://www.garmin.com/xmlschemas/TrackPointExtensionv1.xsd" xmlns:gpxtpx="http://www.garmin.com/xmlschemas/TrackPointExtension/v1">
  <metadata>
    <link href="http://www.compegps.com">
      <text>CompeGPS TEAM, SL</text>
    </link>
    <time>2020-06-28T19:40:34Z</time>
    <bounds maxlat="42.905411" maxlon="-0.194738" minlat="42.856299" minlon="-0.229489"/>
  </metadata>
    <wpt lat="42.899687" lon="-0.204970">
    <ele>1397.6</ele>
    <time>2020-06-30T16:05:50Z</time>
    <name>Cabane d Arriousec</name>
    <desc></desc>
    <sym>Waypoint</sym>
  </wpt>
  <wpt lat="42.904421" lon="-0.207459">
    <ele>1215.6</ele>
    <time>2020-06-30T16:06:04Z</time>
    <name>Embranchement GR10</name>
    <desc></desc>
    <sym>Waypoint</sym>
  </wpt>
  <wpt lat="42.882237" lon="-0.196433">
    <ele>1828.8</ele>
    <time>2020-06-30T16:09:05Z</time>
    <name>Bifurcation - fin du GR10</name>
    <desc></desc>
    <sym>Waypoint</sym>
  </wpt>
  <wpt lat="42.879071" lon="-0.200409">
    <ele>1964.0</ele>
    <time>2020-06-30T16:14:06Z</time>
    <name>Lac du Barbat</name>
    <desc></desc>
    <sym>Waypoint</sym>
  </wpt>
  <wpt lat="42.875353" lon="-0.198513">
    <ele>2084.9</ele>
    <time>2020-06-30T16:19:45Z</time>
    <name>Cuvette rocheuse</name>
    <desc></desc>
    <sym>Waypoint</sym>
  </wpt>
  <wpt lat="42.862290" lon="-0.198730">
    <ele>2645.2</ele>
    <time>2020-06-30T16:37:47Z</time>
    <name>Breche de Barbat</name>
    <desc></desc>
    <sym>Waypoint</sym>
  </wpt>
  <wpt lat="42.867284" lon="-0.200862">
    <ele>2367.2</ele>
    <time>2020-06-30T16:38:11Z</time>
    <name>Embranchement des deux cols</name>
    <desc></desc>
    <sym>Waypoint</sym>
  </wpt>
  <wpt lat="42.865043" lon="-0.194814">
    <ele>2705.7</ele>
    <time>2020-06-30T16:38:18Z</time>
    <name>Grand Barbat</name>
    <desc></desc>
    <sym>Waypoint</sym>
  </wpt>
  <wpt lat="42.856299" lon="-0.206942">
    <ele>2330.9</ele>
    <time>2020-06-30T16:38:32Z</time>
    <name>Lac Long</name>
    <desc></desc>
    <sym>Waypoint</sym>
  </wpt>
  <wpt lat="42.860843" lon="-0.228703">
    <ele>1665.4</ele>
    <time>2020-06-30T16:39:01Z</time>
    <name>Cabane du Plaa de Prat</name>
    <desc></desc>
    <sym>Waypoint</sym>
  </wpt>
  <wpt lat="42.872825" lon="-0.227805">
    <ele>1600.9</ele>
    <time>2020-06-30T16:43:33Z</time>
    <name>Toue de Cetira</name>
    <desc></desc>
    <sym>Waypoint</sym>
  </wpt>
  <wpt lat="42.886688" lon="-0.227787">
    <ele>1326.6</ele>
    <time>2020-06-30T16:45:00Z</time>
    <name>Pont de Plasi</name>
    <desc></desc>
    <sym>Waypoint</sym>
  </wpt>
<trk>
    <name>grand_barbat</name>
    <userMyTwoNav></userMyTwoNav>
    <serialNumber></serialNumber>
    <trkseg>
      <trkpt lat="42.904137" lon="-0.212594">
        <ele>1165.3</ele>
        <time>2020-06-28T03:53:51Z</time>
      </trkpt>
      <trkpt lat="42.904215" lon="-0.212493">
        <ele>1165.4</ele>
        <time>2020-06-28T03:54:00Z</time>
      </trkpt>
      <trkpt lat="42.904275" lon="-0.212380">
        <ele>1165.4</ele>
        <time>2020-06-28T03:54:08Z</time>
      </trkpt>
      <trkpt lat="42.904326" lon="-0.212271">
        <ele>1165.4</ele>
        <time>2020-06-28T03:54:17Z</time>
      </trkpt>
      <trkpt lat="42.904368" lon="-0.212144">
        <ele>1164.6</ele>
        <time>2020-06-28T03:54:26Z</time>
      </trkpt>
      <trkpt lat="42.904374" lon="-0.212006">
        <ele>1164.6</ele>
        <time>2020-06-28T03:54:35Z</time>
      </trkpt>
      <trkpt lat="42.904329" lon="-0.211873">
        <ele>1163.8</ele>
        <time>2020-06-28T03:54:44Z</time>
      </trkpt>
      <trkpt lat="42.904280" lon="-0.211756">
        <ele>1163.8</ele>
        <time>2020-06-28T03:54:53Z</time>
      </trkpt>
      <trkpt lat="42.904273" lon="-0.211626">
        <ele>1163.8</ele>
        <time>2020-06-28T03:55:02Z</time>
      </trkpt>
      <trkpt lat="42.904284" lon="-0.211486">
        <ele>1163.8</ele>
        <time>2020-06-28T03:55:11Z</time>
      </trkpt>
      <trkpt lat="42.904269" lon="-0.211360">
        <ele>1163.8</ele>
        <time>2020-06-28T03:55:20Z</time>
      </trkpt>
      <trkpt lat="42.904232" lon="-0.211209">
        <ele>1163.8</ele>
        <time>2020-06-28T03:55:32Z</time>
      </trkpt>
      <trkpt lat="42.904119" lon="-0.211063">
        <ele>1166.2</ele>
        <time>2020-06-28T03:55:49Z</time>
      </trkpt>
      <trkpt lat="42.903997" lon="-0.211008">
        <ele>1167.0</ele>
        <time>2020-06-28T03:55:59Z</time>
      </trkpt>
      <trkpt lat="42.903867" lon="-0.210982">
        <ele>1168.6</ele>
        <time>2020-06-28T03:56:09Z</time>
      </trkpt>
      <trkpt lat="42.903758" lon="-0.211034">
        <ele>1169.5</ele>
        <time>2020-06-28T03:56:19Z</time>
      </trkpt>
      <trkpt lat="42.903607" lon="-0.211086">
        <ele>1171.1</ele>
        <time>2020-06-28T03:56:31Z</time>
      </trkpt>
      <trkpt lat="42.903456" lon="-0.211108">
        <ele>1171.9</ele>
        <time>2020-06-28T03:56:43Z</time>
      </trkpt>
      <trkpt lat="42.903328" lon="-0.211202">
        <ele>1173.5</ele>
        <time>2020-06-28T03:56:56Z</time>
      </trkpt>
      <trkpt lat="42.903179" lon="-0.211280">
        <ele>1174.3</ele>
        <time>2020-06-28T03:57:07Z</time>
      </trkpt>
      <trkpt lat="42.903066" lon="-0.211311">
        <ele>1175.1</ele>
        <time>2020-06-28T03:57:17Z</time>
      </trkpt>
      <trkpt lat="42.902924" lon="-0.211365">
        <ele>1175.8</ele>
        <time>2020-06-28T03:57:27Z</time>
      </trkpt>
      <trkpt lat="42.902794" lon="-0.211347">
        <ele>1176.7</ele>
        <time>2020-06-28T03:57:39Z</time>
      </trkpt>
      <trkpt lat="42.902680" lon="-0.211438">
        <ele>1178.5</ele>
        <time>2020-06-28T03:57:50Z</time>
      </trkpt>
      <trkpt lat="42.902546" lon="-0.211444">
        <ele>1180.1</ele>
        <time>2020-06-28T03:58:01Z</time>
      </trkpt>
      <trkpt lat="42.902543" lon="-0.211365">
        <ele>1184.1</ele>
        <time>2020-06-28T03:58:40Z</time>
      </trkpt>
      <trkpt lat="42.902644" lon="-0.211246">
        <ele>1185.7</ele>
        <time>2020-06-28T03:58:54Z</time>
      </trkpt>
      <trkpt lat="42.902724" lon="-0.211100">
        <ele>1187.3</ele>
        <time>2020-06-28T03:59:08Z</time>
      </trkpt>
      <trkpt lat="42.902822" lon="-0.210960">
        <ele>1188.8</ele>
        <time>2020-06-28T03:59:22Z</time>
      </trkpt>
      <trkpt lat="42.902948" lon="-0.210756">
        <ele>1191.2</ele>
        <time>2020-06-28T03:59:38Z</time>
      </trkpt>
      <trkpt lat="42.903112" lon="-0.210718">
        <ele>1192.6</ele>
        <time>2020-06-28T03:59:53Z</time>
      </trkpt>
      <trkpt lat="42.903232" lon="-0.210655">
        <ele>1194.0</ele>
        <time>2020-06-28T04:00:06Z</time>
      </trkpt>
      <trkpt lat="42.903410" lon="-0.210600">
        <ele>1196.5</ele>
        <time>2020-06-28T04:00:22Z</time>
      </trkpt>
      <trkpt lat="42.903559" lon="-0.210552">
        <ele>1197.9</ele>
        <time>2020-06-28T04:00:37Z</time>
      </trkpt>
      <trkpt lat="42.903674" lon="-0.210384">
        <ele>1198.6</ele>
        <time>2020-06-28T04:00:49Z</time>
      </trkpt>
      <trkpt lat="42.903790" lon="-0.210239">
        <ele>1200.2</ele>
        <time>2020-06-28T04:01:01Z</time>
      </trkpt>
      <trkpt lat="42.903890" lon="-0.210111">
        <ele>1201.7</ele>
        <time>2020-06-28T04:01:12Z</time>
      </trkpt>
      <trkpt lat="42.903993" lon="-0.209983">
        <ele>1202.3</ele>
        <time>2020-06-28T04:01:24Z</time>
      </trkpt>
      <trkpt lat="42.904083" lon="-0.209854">
        <ele>1203.9</ele>
        <time>2020-06-28T04:01:36Z</time>
      </trkpt>
      <trkpt lat="42.904163" lon="-0.209676">
        <ele>1205.4</ele>
        <time>2020-06-28T04:01:48Z</time>
      </trkpt>
      <trkpt lat="42.904206" lon="-0.209510">
        <ele>1206.9</ele>
        <time>2020-06-28T04:01:59Z</time>
      </trkpt>
      <trkpt lat="42.904228" lon="-0.209337">
        <ele>1207.6</ele>
        <time>2020-06-28T04:02:10Z</time>
      </trkpt>
      <trkpt lat="42.904248" lon="-0.209194">
        <ele>1209.1</ele>
        <time>2020-06-28T04:02:21Z</time>
      </trkpt>
      <trkpt lat="42.904235" lon="-0.209071">
        <ele>1208.9</ele>
        <time>2020-06-28T04:02:30Z</time>
      </trkpt>
      <trkpt lat="42.904236" lon="-0.208916">
        <ele>1209.6</ele>
        <time>2020-06-28T04:02:40Z</time>
      </trkpt>
      <trkpt lat="42.904318" lon="-0.208795">
        <ele>1210.7</ele>
        <time>2020-06-28T04:02:50Z</time>
      </trkpt>
      <trkpt lat="42.904352" lon="-0.208658">
        <ele>1210.6</ele>
        <time>2020-06-28T04:03:00Z</time>
      </trkpt>
      <trkpt lat="42.904396" lon="-0.208493">
        <ele>1211.2</ele>
        <time>2020-06-28T04:03:12Z</time>
      </trkpt>
      <trkpt lat="42.904483" lon="-0.208318">
        <ele>1211.9</ele>
        <time>2020-06-28T04:03:22Z</time>
      </trkpt>
      <trkpt lat="42.904560" lon="-0.208169">
        <ele>1212.5</ele>
        <time>2020-06-28T04:03:32Z</time>
      </trkpt>
      <trkpt lat="42.904580" lon="-0.207993">
        <ele>1213.9</ele>
        <time>2020-06-28T04:03:43Z</time>
      </trkpt>
      <trkpt lat="42.904555" lon="-0.207853">
        <ele>1214.5</ele>
        <time>2020-06-28T04:03:51Z</time>
      </trkpt>
      <trkpt lat="42.904507" lon="-0.207728">
        <ele>1215.1</ele>
        <time>2020-06-28T04:04:03Z</time>
      </trkpt>
      <trkpt lat="42.904470" lon="-0.207589">
        <ele>1215.7</ele>
        <time>2020-06-28T04:04:14Z</time>
      </trkpt>
      <trkpt lat="42.904442" lon="-0.207539">
        <ele>1215.7</ele>
        <time>2020-06-28T04:04:52Z</time>
      </trkpt>
      <trkpt lat="42.904421" lon="-0.207459">
        <ele>1216.1</ele>
        <time>2020-06-28T04:05:21Z</time>
      </trkpt>
      <trkpt lat="42.904359" lon="-0.207495">
        <ele>1220.3</ele>
        <time>2020-06-28T04:05:45Z</time>
      </trkpt>
      <trkpt lat="42.904218" lon="-0.207483">
        <ele>1223.4</ele>
        <time>2020-06-28T04:06:04Z</time>
      </trkpt>
      <trkpt lat="42.904134" lon="-0.207432">
        <ele>1226.3</ele>
        <time>2020-06-28T04:06:25Z</time>
      </trkpt>
      <trkpt lat="42.904063" lon="-0.207372">
        <ele>1228.6</ele>
        <time>2020-06-28T04:06:42Z</time>
      </trkpt>
      <trkpt lat="42.904010" lon="-0.207422">
        <ele>1230.8</ele>
        <time>2020-06-28T04:06:55Z</time>
      </trkpt>
      <trkpt lat="42.903954" lon="-0.207498">
        <ele>1233.3</ele>
        <time>2020-06-28T04:07:09Z</time>
      </trkpt>
      <trkpt lat="42.903848" lon="-0.207551">
        <ele>1235.7</ele>
        <time>2020-06-28T04:07:26Z</time>
      </trkpt>
      <trkpt lat="42.903786" lon="-0.207700">
        <ele>1238.8</ele>
        <time>2020-06-28T04:07:45Z</time>
      </trkpt>
      <trkpt lat="42.903675" lon="-0.207734">
        <ele>1241.9</ele>
        <time>2020-06-28T04:08:03Z</time>
      </trkpt>
      <trkpt lat="42.903585" lon="-0.207634">
        <ele>1243.7</ele>
        <time>2020-06-28T04:08:19Z</time>
      </trkpt>
      <trkpt lat="42.903464" lon="-0.207521">
        <ele>1246.0</ele>
        <time>2020-06-28T04:08:35Z</time>
      </trkpt>
      <trkpt lat="42.903406" lon="-0.207400">
        <ele>1248.3</ele>
        <time>2020-06-28T04:08:55Z</time>
      </trkpt>
      <trkpt lat="42.903329" lon="-0.207435">
        <ele>1250.0</ele>
        <time>2020-06-28T04:09:07Z</time>
      </trkpt>
      <trkpt lat="42.903210" lon="-0.207525">
        <ele>1254.7</ele>
        <time>2020-06-28T04:09:29Z</time>
      </trkpt>
      <trkpt lat="42.903185" lon="-0.207577">
        <ele>1257.0</ele>
        <time>2020-06-28T04:09:48Z</time>
      </trkpt>
      <trkpt lat="42.903108" lon="-0.207665">
        <ele>1260.1</ele>
        <time>2020-06-28T04:10:07Z</time>
      </trkpt>
      <trkpt lat="42.903046" lon="-0.207696">
        <ele>1264.3</ele>
        <time>2020-06-28T04:10:28Z</time>
      </trkpt>
      <trkpt lat="42.902936" lon="-0.207744">
        <ele>1266.9</ele>
        <time>2020-06-28T04:10:45Z</time>
      </trkpt>
      <trkpt lat="42.902807" lon="-0.207740">
        <ele>1270.7</ele>
        <time>2020-06-28T04:11:07Z</time>
      </trkpt>
      <trkpt lat="42.902736" lon="-0.207690">
        <ele>1274.7</ele>
        <time>2020-06-28T04:11:29Z</time>
      </trkpt>
      <trkpt lat="42.902616" lon="-0.207683">
        <ele>1278.0</ele>
        <time>2020-06-28T04:11:46Z</time>
      </trkpt>
      <trkpt lat="42.902533" lon="-0.207622">
        <ele>1280.4</ele>
        <time>2020-06-28T04:12:06Z</time>
      </trkpt>
      <trkpt lat="42.902449" lon="-0.207558">
        <ele>1284.9</ele>
        <time>2020-06-28T04:12:25Z</time>
      </trkpt>
      <trkpt lat="42.902334" lon="-0.207382">
        <ele>1287.7</ele>
        <time>2020-06-28T04:12:41Z</time>
      </trkpt>
      <trkpt lat="42.902260" lon="-0.207236">
        <ele>1290.3</ele>
        <time>2020-06-28T04:12:59Z</time>
      </trkpt>
      <trkpt lat="42.902239" lon="-0.207144">
        <ele>1295.1</ele>
        <time>2020-06-28T04:13:20Z</time>
      </trkpt>
      <trkpt lat="42.902217" lon="-0.206975">
        <ele>1297.4</ele>
        <time>2020-06-28T04:13:37Z</time>
      </trkpt>
      <trkpt lat="42.902137" lon="-0.206760">
        <ele>1300.1</ele>
        <time>2020-06-28T04:13:53Z</time>
      </trkpt>
      <trkpt lat="42.902122" lon="-0.206635">
        <ele>1303.6</ele>
        <time>2020-06-28T04:14:07Z</time>
      </trkpt>
      <trkpt lat="42.902096" lon="-0.206498">
        <ele>1306.1</ele>
        <time>2020-06-28T04:14:22Z</time>
      </trkpt>
      <trkpt lat="42.901997" lon="-0.206373">
        <ele>1309.0</ele>
        <time>2020-06-28T04:14:39Z</time>
      </trkpt>
      <trkpt lat="42.901921" lon="-0.206331">
        <ele>1312.7</ele>
        <time>2020-06-28T04:14:57Z</time>
      </trkpt>
      <trkpt lat="42.901809" lon="-0.206238">
        <ele>1316.7</ele>
        <time>2020-06-28T04:15:13Z</time>
      </trkpt>
      <trkpt lat="42.901732" lon="-0.206138">
        <ele>1319.3</ele>
        <time>2020-06-28T04:15:27Z</time>
      </trkpt>
      <trkpt lat="42.901663" lon="-0.206115">
        <ele>1322.9</ele>
        <time>2020-06-28T04:15:44Z</time>
      </trkpt>
      <trkpt lat="42.901574" lon="-0.206000">
        <ele>1326.4</ele>
        <time>2020-06-28T04:15:59Z</time>
      </trkpt>
      <trkpt lat="42.901523" lon="-0.205895">
        <ele>1329.5</ele>
        <time>2020-06-28T04:16:17Z</time>
      </trkpt>
      <trkpt lat="42.901507" lon="-0.205776">
        <ele>1332.2</ele>
        <time>2020-06-28T04:16:33Z</time>
      </trkpt>
      <trkpt lat="42.901439" lon="-0.205529">
        <ele>1335.8</ele>
        <time>2020-06-28T04:16:48Z</time>
      </trkpt>
      <trkpt lat="42.901262" lon="-0.205469">
        <ele>1338.4</ele>
        <time>2020-06-28T04:17:05Z</time>
      </trkpt>
      <trkpt lat="42.901122" lon="-0.205414">
        <ele>1341.5</ele>
        <time>2020-06-28T04:17:22Z</time>
      </trkpt>
      <trkpt lat="42.901024" lon="-0.205365">
        <ele>1343.4</ele>
        <time>2020-06-28T04:17:36Z</time>
      </trkpt>
      <trkpt lat="42.900924" lon="-0.205357">
        <ele>1345.9</ele>
        <time>2020-06-28T04:17:48Z</time>
      </trkpt>
      <trkpt lat="42.900843" lon="-0.205420">
        <ele>1348.4</ele>
        <time>2020-06-28T04:18:04Z</time>
      </trkpt>
      <trkpt lat="42.900740" lon="-0.205418">
        <ele>1352.0</ele>
        <time>2020-06-28T04:18:20Z</time>
      </trkpt>
      <trkpt lat="42.900632" lon="-0.205499">
        <ele>1356.3</ele>
        <time>2020-06-28T04:18:40Z</time>
      </trkpt>
      <trkpt lat="42.900584" lon="-0.205531">
        <ele>1360.0</ele>
        <time>2020-06-28T04:18:58Z</time>
      </trkpt>
      <trkpt lat="42.900577" lon="-0.205447">
        <ele>1361.7</ele>
        <time>2020-06-28T04:19:12Z</time>
      </trkpt>
      <trkpt lat="42.900497" lon="-0.205313">
        <ele>1365.9</ele>
        <time>2020-06-28T04:19:31Z</time>
      </trkpt>
      <trkpt lat="42.900422" lon="-0.205147">
        <ele>1368.8</ele>
        <time>2020-06-28T04:19:49Z</time>
      </trkpt>
      <trkpt lat="42.900340" lon="-0.205064">
        <ele>1370.7</ele>
        <time>2020-06-28T04:20:02Z</time>
      </trkpt>
      <trkpt lat="42.900218" lon="-0.204978">
        <ele>1372.6</ele>
        <time>2020-06-28T04:20:14Z</time>
      </trkpt>
      <trkpt lat="42.900115" lon="-0.204880">
        <ele>1376.1</ele>
        <time>2020-06-28T04:20:30Z</time>
      </trkpt>
      <trkpt lat="42.900039" lon="-0.204786">
        <ele>1378.5</ele>
        <time>2020-06-28T04:20:46Z</time>
      </trkpt>
      <trkpt lat="42.899922" lon="-0.204783">
        <ele>1380.2</ele>
        <time>2020-06-28T04:20:59Z</time>
      </trkpt>
      <trkpt lat="42.899838" lon="-0.204895">
        <ele>1381.0</ele>
        <time>2020-06-28T04:21:12Z</time>
      </trkpt>
      <trkpt lat="42.899728" lon="-0.204941">
        <ele>1381.9</ele>
        <time>2020-06-28T04:21:23Z</time>
      </trkpt>
      <trkpt lat="42.899619" lon="-0.205027">
        <ele>1382.8</ele>
        <time>2020-06-28T04:21:35Z</time>
      </trkpt>
      <trkpt lat="42.899542" lon="-0.205108">
        <ele>1383.7</ele>
        <time>2020-06-28T04:22:04Z</time>
      </trkpt>
      <trkpt lat="42.899534" lon="-0.205070">
        <ele>1384.0</ele>
        <time>2020-06-28T04:22:47Z</time>
      </trkpt>
      <trkpt lat="42.899483" lon="-0.205023">
        <ele>1384.2</ele>
        <time>2020-06-28T04:23:24Z</time>
      </trkpt>
      <trkpt lat="42.899448" lon="-0.205102">
        <ele>1385.1</ele>
        <time>2020-06-28T04:23:45Z</time>
      </trkpt>
      <trkpt lat="42.899342" lon="-0.205036">
        <ele>1386.8</ele>
        <time>2020-06-28T04:23:59Z</time>
      </trkpt>
      <trkpt lat="42.899259" lon="-0.204945">
        <ele>1389.2</ele>
        <time>2020-06-28T04:24:13Z</time>
      </trkpt>
      <trkpt lat="42.899181" lon="-0.204889">
        <ele>1391.1</ele>
        <time>2020-06-28T04:24:26Z</time>
      </trkpt>
      <trkpt lat="42.899088" lon="-0.204837">
        <ele>1393.0</ele>
        <time>2020-06-28T04:24:38Z</time>
      </trkpt>
      <trkpt lat="42.898991" lon="-0.204786">
        <ele>1394.7</ele>
        <time>2020-06-28T04:24:50Z</time>
      </trkpt>
      <trkpt lat="42.898918" lon="-0.204738">
        <ele>1396.8</ele>
        <time>2020-06-28T04:25:01Z</time>
      </trkpt>
      <trkpt lat="42.898836" lon="-0.204711">
        <ele>1399.4</ele>
        <time>2020-06-28T04:25:13Z</time>
      </trkpt>
      <trkpt lat="42.898744" lon="-0.204698">
        <ele>1401.9</ele>
        <time>2020-06-28T04:25:25Z</time>
      </trkpt>
      <trkpt lat="42.898635" lon="-0.204745">
        <ele>1405.4</ele>
        <time>2020-06-28T04:25:41Z</time>
      </trkpt>
      <trkpt lat="42.898517" lon="-0.204707">
        <ele>1408.0</ele>
        <time>2020-06-28T04:25:55Z</time>
      </trkpt>
      <trkpt lat="42.898365" lon="-0.204699">
        <ele>1410.9</ele>
        <time>2020-06-28T04:26:07Z</time>
      </trkpt>
      <trkpt lat="42.898270" lon="-0.204752">
        <ele>1411.0</ele>
        <time>2020-06-28T04:26:20Z</time>
      </trkpt>
      <trkpt lat="42.898203" lon="-0.204888">
        <ele>1412.0</ele>
        <time>2020-06-28T04:26:30Z</time>
      </trkpt>
      <trkpt lat="42.898175" lon="-0.205013">
        <ele>1413.8</ele>
        <time>2020-06-28T04:26:42Z</time>
      </trkpt>
      <trkpt lat="42.898115" lon="-0.205156">
        <ele>1417.4</ele>
        <time>2020-06-28T04:26:54Z</time>
      </trkpt>
      <trkpt lat="42.898084" lon="-0.205303">
        <ele>1419.2</ele>
        <time>2020-06-28T04:27:05Z</time>
      </trkpt>
      <trkpt lat="42.898054" lon="-0.205452">
        <ele>1422.8</ele>
        <time>2020-06-28T04:27:21Z</time>
      </trkpt>
      <trkpt lat="42.898018" lon="-0.205591">
        <ele>1425.4</ele>
        <time>2020-06-28T04:27:33Z</time>
      </trkpt>
      <trkpt lat="42.898015" lon="-0.205734">
        <ele>1426.3</ele>
        <time>2020-06-28T04:27:43Z</time>
      </trkpt>
      <trkpt lat="42.898000" lon="-0.205869">
        <ele>1428.1</ele>
        <time>2020-06-28T04:28:01Z</time>
      </trkpt>
      <trkpt lat="42.897981" lon="-0.205993">
        <ele>1430.8</ele>
        <time>2020-06-28T04:28:15Z</time>
      </trkpt>
      <trkpt lat="42.897937" lon="-0.206097">
        <ele>1433.8</ele>
        <time>2020-06-28T04:28:28Z</time>
      </trkpt>
      <trkpt lat="42.897895" lon="-0.206221">
        <ele>1436.5</ele>
        <time>2020-06-28T04:28:40Z</time>
      </trkpt>
      <trkpt lat="42.897786" lon="-0.206237">
        <ele>1440.2</ele>
        <time>2020-06-28T04:28:54Z</time>
      </trkpt>
      <trkpt lat="42.897705" lon="-0.206209">
        <ele>1442.1</ele>
        <time>2020-06-28T04:29:04Z</time>
      </trkpt>
      <trkpt lat="42.897615" lon="-0.206142">
        <ele>1444.8</ele>
        <time>2020-06-28T04:29:17Z</time>
      </trkpt>
      <trkpt lat="42.897544" lon="-0.206062">
        <ele>1446.3</ele>
        <time>2020-06-28T04:29:28Z</time>
      </trkpt>
      <trkpt lat="42.897519" lon="-0.205984">
        <ele>1448.4</ele>
        <time>2020-06-28T04:30:27Z</time>
      </trkpt>
      <trkpt lat="42.897461" lon="-0.205890">
        <ele>1450.3</ele>
        <time>2020-06-28T04:30:47Z</time>
      </trkpt>
      <trkpt lat="42.897454" lon="-0.205855">
        <ele>1451.8</ele>
        <time>2020-06-28T04:32:00Z</time>
      </trkpt>
      <trkpt lat="42.897379" lon="-0.205763">
        <ele>1452.7</ele>
        <time>2020-06-28T04:32:11Z</time>
      </trkpt>
      <trkpt lat="42.897312" lon="-0.205662">
        <ele>1454.5</ele>
        <time>2020-06-28T04:32:23Z</time>
      </trkpt>
      <trkpt lat="42.897246" lon="-0.205539">
        <ele>1457.1</ele>
        <time>2020-06-28T04:32:36Z</time>
      </trkpt>
      <trkpt lat="42.897196" lon="-0.205413">
        <ele>1459.1</ele>
        <time>2020-06-28T04:32:50Z</time>
      </trkpt>
      <trkpt lat="42.897146" lon="-0.205293">
        <ele>1461.8</ele>
        <time>2020-06-28T04:33:05Z</time>
      </trkpt>
      <trkpt lat="42.897093" lon="-0.205200">
        <ele>1463.6</ele>
        <time>2020-06-28T04:33:17Z</time>
      </trkpt>
      <trkpt lat="42.897031" lon="-0.205096">
        <ele>1465.6</ele>
        <time>2020-06-28T04:33:30Z</time>
      </trkpt>
      <trkpt lat="42.896980" lon="-0.204987">
        <ele>1467.4</ele>
        <time>2020-06-28T04:33:41Z</time>
      </trkpt>
      <trkpt lat="42.896911" lon="-0.204901">
        <ele>1469.3</ele>
        <time>2020-06-28T04:33:51Z</time>
      </trkpt>
      <trkpt lat="42.896818" lon="-0.204835">
        <ele>1471.8</ele>
        <time>2020-06-28T04:34:04Z</time>
      </trkpt>
      <trkpt lat="42.896706" lon="-0.204767">
        <ele>1473.7</ele>
        <time>2020-06-28T04:34:17Z</time>
      </trkpt>
      <trkpt lat="42.896610" lon="-0.204714">
        <ele>1474.8</ele>
        <time>2020-06-28T04:34:27Z</time>
      </trkpt>
      <trkpt lat="42.896524" lon="-0.204654">
        <ele>1476.7</ele>
        <time>2020-06-28T04:34:38Z</time>
      </trkpt>
      <trkpt lat="42.896430" lon="-0.204626">
        <ele>1478.6</ele>
        <time>2020-06-28T04:34:48Z</time>
      </trkpt>
      <trkpt lat="42.896317" lon="-0.204601">
        <ele>1480.4</ele>
        <time>2020-06-28T04:34:58Z</time>
      </trkpt>
      <trkpt lat="42.896219" lon="-0.204562">
        <ele>1481.3</ele>
        <time>2020-06-28T04:35:09Z</time>
      </trkpt>
      <trkpt lat="42.896118" lon="-0.204515">
        <ele>1483.2</ele>
        <time>2020-06-28T04:35:18Z</time>
      </trkpt>
      <trkpt lat="42.896014" lon="-0.204442">
        <ele>1484.1</ele>
        <time>2020-06-28T04:35:28Z</time>
      </trkpt>
      <trkpt lat="42.895939" lon="-0.204341">
        <ele>1486.0</ele>
        <time>2020-06-28T04:35:40Z</time>
      </trkpt>
      <trkpt lat="42.895861" lon="-0.204253">
        <ele>1487.7</ele>
        <time>2020-06-28T04:35:51Z</time>
      </trkpt>
      <trkpt lat="42.895786" lon="-0.204168">
        <ele>1490.4</ele>
        <time>2020-06-28T04:36:04Z</time>
      </trkpt>
      <trkpt lat="42.895694" lon="-0.204095">
        <ele>1492.2</ele>
        <time>2020-06-28T04:36:15Z</time>
      </trkpt>
      <trkpt lat="42.895616" lon="-0.204021">
        <ele>1494.7</ele>
        <time>2020-06-28T04:36:26Z</time>
      </trkpt>
      <trkpt lat="42.895566" lon="-0.203936">
        <ele>1496.7</ele>
        <time>2020-06-28T04:36:36Z</time>
      </trkpt>
      <trkpt lat="42.895498" lon="-0.203881">
        <ele>1497.6</ele>
        <time>2020-06-28T04:36:46Z</time>
      </trkpt>
      <trkpt lat="42.895411" lon="-0.203799">
        <ele>1499.6</ele>
        <time>2020-06-28T04:36:56Z</time>
      </trkpt>
      <trkpt lat="42.895329" lon="-0.203729">
        <ele>1500.7</ele>
        <time>2020-06-28T04:37:05Z</time>
      </trkpt>
      <trkpt lat="42.895239" lon="-0.203667">
        <ele>1503.5</ele>
        <time>2020-06-28T04:37:16Z</time>
      </trkpt>
      <trkpt lat="42.895150" lon="-0.203601">
        <ele>1505.4</ele>
        <time>2020-06-28T04:37:27Z</time>
      </trkpt>
      <trkpt lat="42.895059" lon="-0.203537">
        <ele>1508.0</ele>
        <time>2020-06-28T04:37:39Z</time>
      </trkpt>
      <trkpt lat="42.894970" lon="-0.203458">
        <ele>1510.8</ele>
        <time>2020-06-28T04:37:51Z</time>
      </trkpt>
      <trkpt lat="42.894871" lon="-0.203395">
        <ele>1512.4</ele>
        <time>2020-06-28T04:38:02Z</time>
      </trkpt>
      <trkpt lat="42.894784" lon="-0.203344">
        <ele>1515.2</ele>
        <time>2020-06-28T04:38:13Z</time>
      </trkpt>
      <trkpt lat="42.894707" lon="-0.203309">
        <ele>1516.2</ele>
        <time>2020-06-28T04:38:24Z</time>
      </trkpt>
      <trkpt lat="42.894635" lon="-0.203229">
        <ele>1519.1</ele>
        <time>2020-06-28T04:38:36Z</time>
      </trkpt>
      <trkpt lat="42.894531" lon="-0.203192">
        <ele>1521.2</ele>
        <time>2020-06-28T04:38:49Z</time>
      </trkpt>
      <trkpt lat="42.894424" lon="-0.203173">
        <ele>1523.1</ele>
        <time>2020-06-28T04:39:02Z</time>
      </trkpt>
      <trkpt lat="42.894315" lon="-0.203136">
        <ele>1525.6</ele>
        <time>2020-06-28T04:39:15Z</time>
      </trkpt>
      <trkpt lat="42.894231" lon="-0.203073">
        <ele>1527.2</ele>
        <time>2020-06-28T04:39:28Z</time>
      </trkpt>
      <trkpt lat="42.894163" lon="-0.203041">
        <ele>1528.4</ele>
        <time>2020-06-28T04:40:23Z</time>
      </trkpt>
      <trkpt lat="42.894087" lon="-0.202953">
        <ele>1530.4</ele>
        <time>2020-06-28T04:40:34Z</time>
      </trkpt>
      <trkpt lat="42.893984" lon="-0.202858">
        <ele>1533.3</ele>
        <time>2020-06-28T04:40:47Z</time>
      </trkpt>
      <trkpt lat="42.893876" lon="-0.202787">
        <ele>1535.0</ele>
        <time>2020-06-28T04:40:59Z</time>
      </trkpt>
      <trkpt lat="42.893798" lon="-0.202699">
        <ele>1536.6</ele>
        <time>2020-06-28T04:41:10Z</time>
      </trkpt>
      <trkpt lat="42.893715" lon="-0.202586">
        <ele>1540.2</ele>
        <time>2020-06-28T04:41:25Z</time>
      </trkpt>
      <trkpt lat="42.893610" lon="-0.202484">
        <ele>1541.9</ele>
        <time>2020-06-28T04:41:36Z</time>
      </trkpt>
      <trkpt lat="42.893511" lon="-0.202402">
        <ele>1542.7</ele>
        <time>2020-06-28T04:41:46Z</time>
      </trkpt>
      <trkpt lat="42.893432" lon="-0.202329">
        <ele>1544.4</ele>
        <time>2020-06-28T04:41:57Z</time>
      </trkpt>
      <trkpt lat="42.893329" lon="-0.202283">
        <ele>1546.0</ele>
        <time>2020-06-28T04:42:08Z</time>
      </trkpt>
      <trkpt lat="42.893217" lon="-0.202214">
        <ele>1548.7</ele>
        <time>2020-06-28T04:42:20Z</time>
      </trkpt>
      <trkpt lat="42.893107" lon="-0.202127">
        <ele>1550.4</ele>
        <time>2020-06-28T04:42:32Z</time>
      </trkpt>
      <trkpt lat="42.893006" lon="-0.202037">
        <ele>1552.0</ele>
        <time>2020-06-28T04:42:44Z</time>
      </trkpt>
      <trkpt lat="42.892914" lon="-0.201950">
        <ele>1552.9</ele>
        <time>2020-06-28T04:42:55Z</time>
      </trkpt>
      <trkpt lat="42.892804" lon="-0.201865">
        <ele>1554.4</ele>
        <time>2020-06-28T04:43:07Z</time>
      </trkpt>
      <trkpt lat="42.892724" lon="-0.201793">
        <ele>1556.1</ele>
        <time>2020-06-28T04:43:19Z</time>
      </trkpt>
      <trkpt lat="42.892621" lon="-0.201734">
        <ele>1557.7</ele>
        <time>2020-06-28T04:43:30Z</time>
      </trkpt>
      <trkpt lat="42.892563" lon="-0.201761">
        <ele>1558.4</ele>
        <time>2020-06-28T04:43:43Z</time>
      </trkpt>
      <trkpt lat="42.892560" lon="-0.201776">
        <ele>1558.3</ele>
        <time>2020-06-28T04:44:06Z</time>
      </trkpt>
      <trkpt lat="42.892490" lon="-0.201763">
        <ele>1559.2</ele>
        <time>2020-06-28T04:44:27Z</time>
      </trkpt>
      <trkpt lat="42.892386" lon="-0.201703">
        <ele>1561.0</ele>
        <time>2020-06-28T04:44:38Z</time>
      </trkpt>
      <trkpt lat="42.892288" lon="-0.201612">
        <ele>1564.6</ele>
        <time>2020-06-28T04:44:49Z</time>
      </trkpt>
      <trkpt lat="42.892170" lon="-0.201531">
        <ele>1566.1</ele>
        <time>2020-06-28T04:45:02Z</time>
      </trkpt>
      <trkpt lat="42.892068" lon="-0.201470">
        <ele>1568.7</ele>
        <time>2020-06-28T04:45:13Z</time>
      </trkpt>
      <trkpt lat="42.891971" lon="-0.201387">
        <ele>1570.2</ele>
        <time>2020-06-28T04:45:23Z</time>
      </trkpt>
      <trkpt lat="42.891879" lon="-0.201355">
        <ele>1570.8</ele>
        <time>2020-06-28T04:45:33Z</time>
      </trkpt>
      <trkpt lat="42.891764" lon="-0.201292">
        <ele>1572.3</ele>
        <time>2020-06-28T04:45:43Z</time>
      </trkpt>
      <trkpt lat="42.891670" lon="-0.201224">
        <ele>1574.0</ele>
        <time>2020-06-28T04:45:53Z</time>
      </trkpt>
      <trkpt lat="42.891587" lon="-0.201161">
        <ele>1574.7</ele>
        <time>2020-06-28T04:46:01Z</time>
      </trkpt>
      <trkpt lat="42.891505" lon="-0.201108">
        <ele>1575.2</ele>
        <time>2020-06-28T04:46:12Z</time>
      </trkpt>
      <trkpt lat="42.891420" lon="-0.201011">
        <ele>1577.6</ele>
        <time>2020-06-28T04:46:27Z</time>
      </trkpt>
      <trkpt lat="42.891342" lon="-0.200947">
        <ele>1579.8</ele>
        <time>2020-06-28T04:46:41Z</time>
      </trkpt>
      <trkpt lat="42.891240" lon="-0.200878">
        <ele>1582.3</ele>
        <time>2020-06-28T04:46:55Z</time>
      </trkpt>
      <trkpt lat="42.891147" lon="-0.200812">
        <ele>1583.8</ele>
        <time>2020-06-28T04:47:09Z</time>
      </trkpt>
      <trkpt lat="42.891016" lon="-0.200796">
        <ele>1586.0</ele>
        <time>2020-06-28T04:47:23Z</time>
      </trkpt>
      <trkpt lat="42.890926" lon="-0.200694">
        <ele>1587.7</ele>
        <time>2020-06-28T04:47:35Z</time>
      </trkpt>
      <trkpt lat="42.890839" lon="-0.200626">
        <ele>1588.4</ele>
        <time>2020-06-28T04:47:48Z</time>
      </trkpt>
      <trkpt lat="42.890809" lon="-0.200615">
        <ele>1589.0</ele>
        <time>2020-06-28T04:48:07Z</time>
      </trkpt>
      <trkpt lat="42.890700" lon="-0.200488">
        <ele>1590.6</ele>
        <time>2020-06-28T04:48:20Z</time>
      </trkpt>
      <trkpt lat="42.890585" lon="-0.200367">
        <ele>1592.2</ele>
        <time>2020-06-28T04:48:32Z</time>
      </trkpt>
      <trkpt lat="42.890457" lon="-0.200287">
        <ele>1593.7</ele>
        <time>2020-06-28T04:48:42Z</time>
      </trkpt>
      <trkpt lat="42.890338" lon="-0.200204">
        <ele>1597.0</ele>
        <time>2020-06-28T04:48:55Z</time>
      </trkpt>
      <trkpt lat="42.890253" lon="-0.200076">
        <ele>1597.8</ele>
        <time>2020-06-28T04:49:06Z</time>
      </trkpt>
      <trkpt lat="42.890191" lon="-0.200020">
        <ele>1598.5</ele>
        <time>2020-06-28T04:49:14Z</time>
      </trkpt>
      <trkpt lat="42.890110" lon="-0.199910">
        <ele>1599.1</ele>
        <time>2020-06-28T04:49:24Z</time>
      </trkpt>
      <trkpt lat="42.890017" lon="-0.199822">
        <ele>1599.7</ele>
        <time>2020-06-28T04:49:35Z</time>
      </trkpt>
      <trkpt lat="42.889921" lon="-0.199727">
        <ele>1600.4</ele>
        <time>2020-06-28T04:49:44Z</time>
      </trkpt>
      <trkpt lat="42.889855" lon="-0.199688">
        <ele>1601.1</ele>
        <time>2020-06-28T04:49:54Z</time>
      </trkpt>
      <trkpt lat="42.889799" lon="-0.199607">
        <ele>1602.7</ele>
        <time>2020-06-28T04:50:05Z</time>
      </trkpt>
      <trkpt lat="42.889720" lon="-0.199538">
        <ele>1604.4</ele>
        <time>2020-06-28T04:50:14Z</time>
      </trkpt>
      <trkpt lat="42.889647" lon="-0.199446">
        <ele>1606.0</ele>
        <time>2020-06-28T04:50:24Z</time>
      </trkpt>
      <trkpt lat="42.889563" lon="-0.199375">
        <ele>1607.9</ele>
        <time>2020-06-28T04:50:35Z</time>
      </trkpt>
      <trkpt lat="42.889458" lon="-0.199254">
        <ele>1609.6</ele>
        <time>2020-06-28T04:50:47Z</time>
      </trkpt>
      <trkpt lat="42.889350" lon="-0.199233">
        <ele>1610.3</ele>
        <time>2020-06-28T04:50:59Z</time>
      </trkpt>
      <trkpt lat="42.889234" lon="-0.199206">
        <ele>1612.2</ele>
        <time>2020-06-28T04:51:11Z</time>
      </trkpt>
      <trkpt lat="42.889119" lon="-0.199182">
        <ele>1613.9</ele>
        <time>2020-06-28T04:51:21Z</time>
      </trkpt>
      <trkpt lat="42.889024" lon="-0.199182">
        <ele>1614.6</ele>
        <time>2020-06-28T04:51:30Z</time>
      </trkpt>
      <trkpt lat="42.888917" lon="-0.199165">
        <ele>1615.3</ele>
        <time>2020-06-28T04:51:40Z</time>
      </trkpt>
      <trkpt lat="42.888854" lon="-0.199172">
        <ele>1616.1</ele>
        <time>2020-06-28T04:51:54Z</time>
      </trkpt>
      <trkpt lat="42.888911" lon="-0.199120">
        <ele>1616.2</ele>
        <time>2020-06-28T04:52:19Z</time>
      </trkpt>
      <trkpt lat="42.888809" lon="-0.199121">
        <ele>1617.0</ele>
        <time>2020-06-28T04:52:34Z</time>
      </trkpt>
      <trkpt lat="42.888712" lon="-0.199115">
        <ele>1617.9</ele>
        <time>2020-06-28T04:52:45Z</time>
      </trkpt>
      <trkpt lat="42.888650" lon="-0.199063">
        <ele>1617.9</ele>
        <time>2020-06-28T04:52:59Z</time>
      </trkpt>
      <trkpt lat="42.888543" lon="-0.198983">
        <ele>1618.0</ele>
        <time>2020-06-28T04:53:08Z</time>
      </trkpt>
      <trkpt lat="42.888435" lon="-0.198914">
        <ele>1618.8</ele>
        <time>2020-06-28T04:53:17Z</time>
      </trkpt>
      <trkpt lat="42.888328" lon="-0.198889">
        <ele>1619.7</ele>
        <time>2020-06-28T04:53:25Z</time>
      </trkpt>
      <trkpt lat="42.888220" lon="-0.198830">
        <ele>1621.4</ele>
        <time>2020-06-28T04:53:36Z</time>
      </trkpt>
      <trkpt lat="42.888086" lon="-0.198793">
        <ele>1622.3</ele>
        <time>2020-06-28T04:53:46Z</time>
      </trkpt>
      <trkpt lat="42.887975" lon="-0.198737">
        <ele>1624.0</ele>
        <time>2020-06-28T04:53:57Z</time>
      </trkpt>
      <trkpt lat="42.887877" lon="-0.198691">
        <ele>1625.0</ele>
        <time>2020-06-28T04:54:09Z</time>
      </trkpt>
      <trkpt lat="42.887748" lon="-0.198662">
        <ele>1626.7</ele>
        <time>2020-06-28T04:54:19Z</time>
      </trkpt>
      <trkpt lat="42.887622" lon="-0.198620">
        <ele>1628.2</ele>
        <time>2020-06-28T04:54:29Z</time>
      </trkpt>
      <trkpt lat="42.887541" lon="-0.198540">
        <ele>1630.0</ele>
        <time>2020-06-28T04:54:39Z</time>
      </trkpt>
      <trkpt lat="42.887508" lon="-0.198427">
        <ele>1630.8</ele>
        <time>2020-06-28T04:54:49Z</time>
      </trkpt>
      <trkpt lat="42.887476" lon="-0.198333">
        <ele>1630.8</ele>
        <time>2020-06-28T04:55:01Z</time>
      </trkpt>
      <trkpt lat="42.887432" lon="-0.198463">
        <ele>1631.7</ele>
        <time>2020-06-28T04:55:17Z</time>
      </trkpt>
      <trkpt lat="42.887340" lon="-0.198452">
        <ele>1633.6</ele>
        <time>2020-06-28T04:55:29Z</time>
      </trkpt>
      <trkpt lat="42.887199" lon="-0.198406">
        <ele>1636.1</ele>
        <time>2020-06-28T04:55:47Z</time>
      </trkpt>
      <trkpt lat="42.887237" lon="-0.198388">
        <ele>1637.8</ele>
        <time>2020-06-28T04:56:10Z</time>
      </trkpt>
      <trkpt lat="42.887213" lon="-0.198315">
        <ele>1639.1</ele>
        <time>2020-06-28T04:56:35Z</time>
      </trkpt>
      <trkpt lat="42.887157" lon="-0.198239">
        <ele>1642.4</ele>
        <time>2020-06-28T04:56:49Z</time>
      </trkpt>
      <trkpt lat="42.887085" lon="-0.198163">
        <ele>1646.4</ele>
        <time>2020-06-28T04:57:01Z</time>
      </trkpt>
      <trkpt lat="42.887010" lon="-0.198127">
        <ele>1648.2</ele>
        <time>2020-06-28T04:57:29Z</time>
      </trkpt>
      <trkpt lat="42.886995" lon="-0.198065">
        <ele>1650.1</ele>
        <time>2020-06-28T04:57:57Z</time>
      </trkpt>
      <trkpt lat="42.886916" lon="-0.198020">
        <ele>1652.9</ele>
        <time>2020-06-28T04:58:11Z</time>
      </trkpt>
      <trkpt lat="42.886847" lon="-0.197954">
        <ele>1656.5</ele>
        <time>2020-06-28T04:58:25Z</time>
      </trkpt>
      <trkpt lat="42.886787" lon="-0.197909">
        <ele>1659.3</ele>
        <time>2020-06-28T04:58:40Z</time>
      </trkpt>
      <trkpt lat="42.886723" lon="-0.197866">
        <ele>1662.7</ele>
        <time>2020-06-28T04:58:56Z</time>
      </trkpt>
      <trkpt lat="42.886623" lon="-0.197808">
        <ele>1665.4</ele>
        <time>2020-06-28T04:59:11Z</time>
      </trkpt>
      <trkpt lat="42.886507" lon="-0.197758">
        <ele>1669.1</ele>
        <time>2020-06-28T04:59:26Z</time>
      </trkpt>
      <trkpt lat="42.886392" lon="-0.197743">
        <ele>1671.7</ele>
        <time>2020-06-28T04:59:39Z</time>
      </trkpt>
      <trkpt lat="42.886292" lon="-0.197656">
        <ele>1674.5</ele>
        <time>2020-06-28T04:59:55Z</time>
      </trkpt>
      <trkpt lat="42.886189" lon="-0.197601">
        <ele>1677.5</ele>
        <time>2020-06-28T05:00:12Z</time>
      </trkpt>
      <trkpt lat="42.886080" lon="-0.197585">
        <ele>1681.3</ele>
        <time>2020-06-28T05:00:31Z</time>
      </trkpt>
      <trkpt lat="42.885999" lon="-0.197521">
        <ele>1685.6</ele>
        <time>2020-06-28T05:00:51Z</time>
      </trkpt>
      <trkpt lat="42.885946" lon="-0.197431">
        <ele>1690.3</ele>
        <time>2020-06-28T05:01:08Z</time>
      </trkpt>
      <trkpt lat="42.885871" lon="-0.197361">
        <ele>1692.9</ele>
        <time>2020-06-28T05:01:24Z</time>
      </trkpt>
      <trkpt lat="42.885786" lon="-0.197297">
        <ele>1695.8</ele>
        <time>2020-06-28T05:01:40Z</time>
      </trkpt>
      <trkpt lat="42.885697" lon="-0.197352">
        <ele>1699.2</ele>
        <time>2020-06-28T05:01:59Z</time>
      </trkpt>
      <trkpt lat="42.885621" lon="-0.197302">
        <ele>1703.9</ele>
        <time>2020-06-28T05:02:20Z</time>
      </trkpt>
      <trkpt lat="42.885519" lon="-0.197246">
        <ele>1707.0</ele>
        <time>2020-06-28T05:02:35Z</time>
      </trkpt>
      <trkpt lat="42.885469" lon="-0.197112">
        <ele>1710.5</ele>
        <time>2020-06-28T05:02:52Z</time>
      </trkpt>
      <trkpt lat="42.885403" lon="-0.197004">
        <ele>1713.0</ele>
        <time>2020-06-28T05:03:08Z</time>
      </trkpt>
      <trkpt lat="42.885310" lon="-0.196878">
        <ele>1716.4</ele>
        <time>2020-06-28T05:03:22Z</time>
      </trkpt>
      <trkpt lat="42.885252" lon="-0.196796">
        <ele>1719.0</ele>
        <time>2020-06-28T05:03:35Z</time>
      </trkpt>
      <trkpt lat="42.885187" lon="-0.196703">
        <ele>1722.2</ele>
        <time>2020-06-28T05:03:54Z</time>
      </trkpt>
      <trkpt lat="42.885104" lon="-0.196588">
        <ele>1724.0</ele>
        <time>2020-06-28T05:04:08Z</time>
      </trkpt>
      <trkpt lat="42.884982" lon="-0.196580">
        <ele>1725.7</ele>
        <time>2020-06-28T05:04:24Z</time>
      </trkpt>
      <trkpt lat="42.884891" lon="-0.196656">
        <ele>1728.5</ele>
        <time>2020-06-28T05:05:12Z</time>
      </trkpt>
      <trkpt lat="42.884793" lon="-0.196698">
        <ele>1732.0</ele>
        <time>2020-06-28T05:05:27Z</time>
      </trkpt>
      <trkpt lat="42.884686" lon="-0.196620">
        <ele>1734.6</ele>
        <time>2020-06-28T05:05:41Z</time>
      </trkpt>
      <trkpt lat="42.884635" lon="-0.196517">
        <ele>1738.0</ele>
        <time>2020-06-28T05:05:56Z</time>
      </trkpt>
      <trkpt lat="42.884559" lon="-0.196449">
        <ele>1742.1</ele>
        <time>2020-06-28T05:06:14Z</time>
      </trkpt>
      <trkpt lat="42.884523" lon="-0.196344">
        <ele>1745.7</ele>
        <time>2020-06-28T05:06:35Z</time>
      </trkpt>
      <trkpt lat="42.884416" lon="-0.196346">
        <ele>1749.3</ele>
        <time>2020-06-28T05:06:54Z</time>
      </trkpt>
      <trkpt lat="42.884390" lon="-0.196241">
        <ele>1753.2</ele>
        <time>2020-06-28T05:07:14Z</time>
      </trkpt>
      <trkpt lat="42.884293" lon="-0.196196">
        <ele>1757.7</ele>
        <time>2020-06-28T05:07:36Z</time>
      </trkpt>
      <trkpt lat="42.884193" lon="-0.196222">
        <ele>1762.0</ele>
        <time>2020-06-28T05:07:57Z</time>
      </trkpt>
      <trkpt lat="42.884095" lon="-0.196273">
        <ele>1764.7</ele>
        <time>2020-06-28T05:08:13Z</time>
      </trkpt>
      <trkpt lat="42.884009" lon="-0.196338">
        <ele>1767.5</ele>
        <time>2020-06-28T05:08:28Z</time>
      </trkpt>
      <trkpt lat="42.883920" lon="-0.196364">
        <ele>1770.1</ele>
        <time>2020-06-28T05:08:45Z</time>
      </trkpt>
      <trkpt lat="42.883834" lon="-0.196432">
        <ele>1773.8</ele>
        <time>2020-06-28T05:09:01Z</time>
      </trkpt>
      <trkpt lat="42.883723" lon="-0.196435">
        <ele>1777.6</ele>
        <time>2020-06-28T05:09:18Z</time>
      </trkpt>
      <trkpt lat="42.883623" lon="-0.196435">
        <ele>1781.1</ele>
        <time>2020-06-28T05:09:36Z</time>
      </trkpt>
      <trkpt lat="42.883548" lon="-0.196361">
        <ele>1786.3</ele>
        <time>2020-06-28T05:09:54Z</time>
      </trkpt>
      <trkpt lat="42.883448" lon="-0.196356">
        <ele>1789.1</ele>
        <time>2020-06-28T05:10:09Z</time>
      </trkpt>
      <trkpt lat="42.883442" lon="-0.196269">
        <ele>1792.3</ele>
        <time>2020-06-28T05:10:29Z</time>
      </trkpt>
      <trkpt lat="42.883445" lon="-0.196150">
        <ele>1797.2</ele>
        <time>2020-06-28T05:10:50Z</time>
      </trkpt>
      <trkpt lat="42.883382" lon="-0.196072">
        <ele>1801.9</ele>
        <time>2020-06-28T05:11:12Z</time>
      </trkpt>
      <trkpt lat="42.883286" lon="-0.196022">
        <ele>1805.6</ele>
        <time>2020-06-28T05:11:34Z</time>
      </trkpt>
      <trkpt lat="42.883165" lon="-0.196007">
        <ele>1809.4</ele>
        <time>2020-06-28T05:11:53Z</time>
      </trkpt>
      <trkpt lat="42.883045" lon="-0.196051">
        <ele>1813.2</ele>
        <time>2020-06-28T05:12:10Z</time>
      </trkpt>
      <trkpt lat="42.882966" lon="-0.196052">
        <ele>1817.8</ele>
        <time>2020-06-28T05:12:33Z</time>
      </trkpt>
      <trkpt lat="42.882898" lon="-0.196143">
        <ele>1822.4</ele>
        <time>2020-06-28T05:12:51Z</time>
      </trkpt>
      <trkpt lat="42.882799" lon="-0.196125">
        <ele>1825.8</ele>
        <time>2020-06-28T05:13:08Z</time>
      </trkpt>
      <trkpt lat="42.882704" lon="-0.196119">
        <ele>1828.6</ele>
        <time>2020-06-28T05:13:21Z</time>
      </trkpt>
      <trkpt lat="42.882613" lon="-0.196135">
        <ele>1831.8</ele>
        <time>2020-06-28T05:13:37Z</time>
      </trkpt>
      <trkpt lat="42.882539" lon="-0.196141">
        <ele>1833.7</ele>
        <time>2020-06-28T05:14:09Z</time>
      </trkpt>
      <trkpt lat="42.882537" lon="-0.196116">
        <ele>1834.7</ele>
        <time>2020-06-28T05:15:29Z</time>
      </trkpt>
      <trkpt lat="42.882557" lon="-0.196165">
        <ele>1835.5</ele>
        <time>2020-06-28T05:16:30Z</time>
      </trkpt>
      <trkpt lat="42.882454" lon="-0.196205">
        <ele>1835.7</ele>
        <time>2020-06-28T05:16:46Z</time>
      </trkpt>
      <trkpt lat="42.882361" lon="-0.196256">
        <ele>1836.4</ele>
        <time>2020-06-28T05:17:58Z</time>
      </trkpt>
      <trkpt lat="42.882283" lon="-0.196326">
        <ele>1838.3</ele>
        <time>2020-06-28T05:18:10Z</time>
      </trkpt>
      <trkpt lat="42.882237" lon="-0.196433">
        <ele>1841.8</ele>
        <time>2020-06-28T05:18:27Z</time>
      </trkpt>
      <trkpt lat="42.882187" lon="-0.196538">
        <ele>1842.6</ele>
        <time>2020-06-28T05:18:44Z</time>
      </trkpt>
      <trkpt lat="42.882114" lon="-0.196633">
        <ele>1842.7</ele>
        <time>2020-06-28T05:19:02Z</time>
      </trkpt>
      <trkpt lat="42.882013" lon="-0.196696">
        <ele>1844.7</ele>
        <time>2020-06-28T05:19:14Z</time>
      </trkpt>
      <trkpt lat="42.881919" lon="-0.196766">
        <ele>1846.7</ele>
        <time>2020-06-28T05:19:24Z</time>
      </trkpt>
      <trkpt lat="42.881814" lon="-0.196846">
        <ele>1849.5</ele>
        <time>2020-06-28T05:19:37Z</time>
      </trkpt>
      <trkpt lat="42.881721" lon="-0.196933">
        <ele>1850.3</ele>
        <time>2020-06-28T05:19:50Z</time>
      </trkpt>
      <trkpt lat="42.881632" lon="-0.196997">
        <ele>1851.2</ele>
        <time>2020-06-28T05:20:04Z</time>
      </trkpt>
      <trkpt lat="42.881562" lon="-0.197100">
        <ele>1852.2</ele>
        <time>2020-06-28T05:20:17Z</time>
      </trkpt>
      <trkpt lat="42.881489" lon="-0.197166">
        <ele>1854.0</ele>
        <time>2020-06-28T05:20:38Z</time>
      </trkpt>
      <trkpt lat="42.881418" lon="-0.197286">
        <ele>1854.9</ele>
        <time>2020-06-28T05:20:48Z</time>
      </trkpt>
      <trkpt lat="42.881344" lon="-0.197422">
        <ele>1854.9</ele>
        <time>2020-06-28T05:21:02Z</time>
      </trkpt>
      <trkpt lat="42.881263" lon="-0.197535">
        <ele>1856.1</ele>
        <time>2020-06-28T05:21:14Z</time>
      </trkpt>
      <trkpt lat="42.881176" lon="-0.197592">
        <ele>1859.0</ele>
        <time>2020-06-28T05:21:29Z</time>
      </trkpt>
      <trkpt lat="42.881103" lon="-0.197683">
        <ele>1861.6</ele>
        <time>2020-06-28T05:21:41Z</time>
      </trkpt>
      <trkpt lat="42.881036" lon="-0.197801">
        <ele>1865.2</ele>
        <time>2020-06-28T05:22:00Z</time>
      </trkpt>
      <trkpt lat="42.881007" lon="-0.197929">
        <ele>1868.1</ele>
        <time>2020-06-28T05:22:15Z</time>
      </trkpt>
      <trkpt lat="42.880961" lon="-0.198048">
        <ele>1871.8</ele>
        <time>2020-06-28T05:22:34Z</time>
      </trkpt>
      <trkpt lat="42.880909" lon="-0.198163">
        <ele>1875.7</ele>
        <time>2020-06-28T05:22:53Z</time>
      </trkpt>
      <trkpt lat="42.880872" lon="-0.198298">
        <ele>1879.1</ele>
        <time>2020-06-28T05:23:11Z</time>
      </trkpt>
      <trkpt lat="42.880831" lon="-0.198421">
        <ele>1882.1</ele>
        <time>2020-06-28T05:23:27Z</time>
      </trkpt>
      <trkpt lat="42.880740" lon="-0.198501">
        <ele>1886.5</ele>
        <time>2020-06-28T05:23:47Z</time>
      </trkpt>
      <trkpt lat="42.880655" lon="-0.198556">
        <ele>1890.8</ele>
        <time>2020-06-28T05:24:12Z</time>
      </trkpt>
      <trkpt lat="42.880593" lon="-0.198644">
        <ele>1894.6</ele>
        <time>2020-06-28T05:24:33Z</time>
      </trkpt>
      <trkpt lat="42.880505" lon="-0.198694">
        <ele>1898.3</ele>
        <time>2020-06-28T05:24:55Z</time>
      </trkpt>
      <trkpt lat="42.880468" lon="-0.198804">
        <ele>1901.0</ele>
        <time>2020-06-28T05:25:16Z</time>
      </trkpt>
      <trkpt lat="42.880377" lon="-0.198901">
        <ele>1905.5</ele>
        <time>2020-06-28T05:25:35Z</time>
      </trkpt>
      <trkpt lat="42.880296" lon="-0.198972">
        <ele>1909.1</ele>
        <time>2020-06-28T05:25:55Z</time>
      </trkpt>
      <trkpt lat="42.880226" lon="-0.199058">
        <ele>1913.6</ele>
        <time>2020-06-28T05:26:18Z</time>
      </trkpt>
      <trkpt lat="42.880177" lon="-0.199177">
        <ele>1917.3</ele>
        <time>2020-06-28T05:26:37Z</time>
      </trkpt>
      <trkpt lat="42.880121" lon="-0.199286">
        <ele>1919.2</ele>
        <time>2020-06-28T05:26:53Z</time>
      </trkpt>
      <trkpt lat="42.880032" lon="-0.199322">
        <ele>1923.4</ele>
        <time>2020-06-28T05:27:13Z</time>
      </trkpt>
      <trkpt lat="42.879957" lon="-0.199392">
        <ele>1927.9</ele>
        <time>2020-06-28T05:27:36Z</time>
      </trkpt>
      <trkpt lat="42.879855" lon="-0.199465">
        <ele>1929.6</ele>
        <time>2020-06-28T05:27:52Z</time>
      </trkpt>
      <trkpt lat="42.879770" lon="-0.199500">
        <ele>1932.3</ele>
        <time>2020-06-28T05:28:09Z</time>
      </trkpt>
      <trkpt lat="42.879676" lon="-0.199542">
        <ele>1934.8</ele>
        <time>2020-06-28T05:28:26Z</time>
      </trkpt>
      <trkpt lat="42.879599" lon="-0.199640">
        <ele>1936.5</ele>
        <time>2020-06-28T05:28:39Z</time>
      </trkpt>
      <trkpt lat="42.879527" lon="-0.199724">
        <ele>1939.8</ele>
        <time>2020-06-28T05:28:58Z</time>
      </trkpt>
      <trkpt lat="42.879431" lon="-0.199781">
        <ele>1943.3</ele>
        <time>2020-06-28T05:29:18Z</time>
      </trkpt>
      <trkpt lat="42.879348" lon="-0.199844">
        <ele>1946.8</ele>
        <time>2020-06-28T05:29:42Z</time>
      </trkpt>
      <trkpt lat="42.879272" lon="-0.199911">
        <ele>1948.3</ele>
        <time>2020-06-28T05:29:59Z</time>
      </trkpt>
      <trkpt lat="42.879267" lon="-0.200041">
        <ele>1950.1</ele>
        <time>2020-06-28T05:30:18Z</time>
      </trkpt>
      <trkpt lat="42.879252" lon="-0.200184">
        <ele>1952.8</ele>
        <time>2020-06-28T05:30:38Z</time>
      </trkpt>
      <trkpt lat="42.879179" lon="-0.200267">
        <ele>1958.2</ele>
        <time>2020-06-28T05:31:01Z</time>
      </trkpt>
      <trkpt lat="42.879099" lon="-0.200338">
        <ele>1960.2</ele>
        <time>2020-06-28T05:31:19Z</time>
      </trkpt>
      <trkpt lat="42.879072" lon="-0.200359">
        <ele>1963.4</ele>
        <time>2020-06-28T05:35:26Z</time>
      </trkpt>
      <trkpt lat="42.878986" lon="-0.200314">
        <ele>1964.4</ele>
        <time>2020-06-28T05:35:42Z</time>
      </trkpt>
      <trkpt lat="42.878957" lon="-0.200196">
        <ele>1968.1</ele>
        <time>2020-06-28T05:36:03Z</time>
      </trkpt>
      <trkpt lat="42.878863" lon="-0.200145">
        <ele>1972.7</ele>
        <time>2020-06-28T05:36:24Z</time>
      </trkpt>
      <trkpt lat="42.878806" lon="-0.200048">
        <ele>1976.0</ele>
        <time>2020-06-28T05:36:46Z</time>
      </trkpt>
      <trkpt lat="42.878726" lon="-0.200048">
        <ele>1979.2</ele>
        <time>2020-06-28T05:37:05Z</time>
      </trkpt>
      <trkpt lat="42.878663" lon="-0.199983">
        <ele>1982.0</ele>
        <time>2020-06-28T05:37:35Z</time>
      </trkpt>
      <trkpt lat="42.878587" lon="-0.199914">
        <ele>1982.8</ele>
        <time>2020-06-28T05:38:09Z</time>
      </trkpt>
      <trkpt lat="42.878558" lon="-0.199788">
        <ele>1986.2</ele>
        <time>2020-06-28T05:38:36Z</time>
      </trkpt>
      <trkpt lat="42.878496" lon="-0.199742">
        <ele>1989.0</ele>
        <time>2020-06-28T05:38:59Z</time>
      </trkpt>
      <trkpt lat="42.878430" lon="-0.199708">
        <ele>1992.5</ele>
        <time>2020-06-28T05:39:37Z</time>
      </trkpt>
      <trkpt lat="42.878369" lon="-0.199715">
        <ele>1996.0</ele>
        <time>2020-06-28T05:40:13Z</time>
      </trkpt>
      <trkpt lat="42.878285" lon="-0.199661">
        <ele>2000.3</ele>
        <time>2020-06-28T05:40:33Z</time>
      </trkpt>
      <trkpt lat="42.878193" lon="-0.199603">
        <ele>2005.0</ele>
        <time>2020-06-28T05:40:53Z</time>
      </trkpt>
      <trkpt lat="42.878108" lon="-0.199540">
        <ele>2007.5</ele>
        <time>2020-06-28T05:41:13Z</time>
      </trkpt>
      <trkpt lat="42.878018" lon="-0.199475">
        <ele>2009.2</ele>
        <time>2020-06-28T05:41:32Z</time>
      </trkpt>
      <trkpt lat="42.877964" lon="-0.199363">
        <ele>2006.9</ele>
        <time>2020-06-28T05:41:55Z</time>
      </trkpt>
      <trkpt lat="42.877936" lon="-0.199256">
        <ele>2006.2</ele>
        <time>2020-06-28T05:42:20Z</time>
      </trkpt>
      <trkpt lat="42.877848" lon="-0.199251">
        <ele>2005.4</ele>
        <time>2020-06-28T05:42:56Z</time>
      </trkpt>
      <trkpt lat="42.877775" lon="-0.199334">
        <ele>2005.5</ele>
        <time>2020-06-28T05:43:13Z</time>
      </trkpt>
      <trkpt lat="42.877701" lon="-0.199424">
        <ele>2004.0</ele>
        <time>2020-06-28T05:43:38Z</time>
      </trkpt>
      <trkpt lat="42.877681" lon="-0.199552">
        <ele>2003.3</ele>
        <time>2020-06-28T05:43:57Z</time>
      </trkpt>
      <trkpt lat="42.877602" lon="-0.199576">
        <ele>2002.6</ele>
        <time>2020-06-28T05:44:18Z</time>
      </trkpt>
      <trkpt lat="42.877501" lon="-0.199529">
        <ele>2005.1</ele>
        <time>2020-06-28T05:44:40Z</time>
      </trkpt>
      <trkpt lat="42.877427" lon="-0.199569">
        <ele>2005.8</ele>
        <time>2020-06-28T05:45:05Z</time>
      </trkpt>
      <trkpt lat="42.877371" lon="-0.199663">
        <ele>2005.9</ele>
        <time>2020-06-28T05:45:26Z</time>
      </trkpt>
      <trkpt lat="42.877268" lon="-0.199670">
        <ele>2007.6</ele>
        <time>2020-06-28T05:45:46Z</time>
      </trkpt>
      <trkpt lat="42.877185" lon="-0.199695">
        <ele>2011.1</ele>
        <time>2020-06-28T05:46:07Z</time>
      </trkpt>
      <trkpt lat="42.877090" lon="-0.199748">
        <ele>2012.5</ele>
        <time>2020-06-28T05:46:30Z</time>
      </trkpt>
      <trkpt lat="42.877057" lon="-0.199771">
        <ele>2014.8</ele>
        <time>2020-06-28T05:47:03Z</time>
      </trkpt>
      <trkpt lat="42.876998" lon="-0.199707">
        <ele>2016.6</ele>
        <time>2020-06-28T05:47:26Z</time>
      </trkpt>
      <trkpt lat="42.876936" lon="-0.199616">
        <ele>2019.3</ele>
        <time>2020-06-28T05:47:54Z</time>
      </trkpt>
      <trkpt lat="42.876858" lon="-0.199557">
        <ele>2022.6</ele>
        <time>2020-06-28T05:48:15Z</time>
      </trkpt>
      <trkpt lat="42.876812" lon="-0.199490">
        <ele>2026.9</ele>
        <time>2020-06-28T05:48:45Z</time>
      </trkpt>
      <trkpt lat="42.876738" lon="-0.199438">
        <ele>2031.2</ele>
        <time>2020-06-28T05:49:11Z</time>
      </trkpt>
      <trkpt lat="42.876693" lon="-0.199331">
        <ele>2034.9</ele>
        <time>2020-06-28T05:49:38Z</time>
      </trkpt>
      <trkpt lat="42.876603" lon="-0.199271">
        <ele>2037.5</ele>
        <time>2020-06-28T05:50:16Z</time>
      </trkpt>
      <trkpt lat="42.876584" lon="-0.199159">
        <ele>2041.0</ele>
        <time>2020-06-28T05:50:50Z</time>
      </trkpt>
      <trkpt lat="42.876542" lon="-0.199053">
        <ele>2045.2</ele>
        <time>2020-06-28T05:51:19Z</time>
      </trkpt>
      <trkpt lat="42.876454" lon="-0.198996">
        <ele>2046.8</ele>
        <time>2020-06-28T05:52:39Z</time>
      </trkpt>
      <trkpt lat="42.876354" lon="-0.198975">
        <ele>2050.1</ele>
        <time>2020-06-28T05:53:02Z</time>
      </trkpt>
      <trkpt lat="42.876265" lon="-0.198941">
        <ele>2052.8</ele>
        <time>2020-06-28T05:53:25Z</time>
      </trkpt>
      <trkpt lat="42.876219" lon="-0.198850">
        <ele>2057.3</ele>
        <time>2020-06-28T05:53:55Z</time>
      </trkpt>
      <trkpt lat="42.876220" lon="-0.198743">
        <ele>2061.5</ele>
        <time>2020-06-28T05:54:28Z</time>
      </trkpt>
      <trkpt lat="42.876144" lon="-0.198667">
        <ele>2065.9</ele>
        <time>2020-06-28T05:54:50Z</time>
      </trkpt>
      <trkpt lat="42.876049" lon="-0.198621">
        <ele>2069.8</ele>
        <time>2020-06-28T05:55:13Z</time>
      </trkpt>
      <trkpt lat="42.875971" lon="-0.198675">
        <ele>2071.5</ele>
        <time>2020-06-28T05:55:34Z</time>
      </trkpt>
      <trkpt lat="42.875877" lon="-0.198692">
        <ele>2075.8</ele>
        <time>2020-06-28T05:55:57Z</time>
      </trkpt>
      <trkpt lat="42.875794" lon="-0.198733">
        <ele>2077.3</ele>
        <time>2020-06-28T05:56:46Z</time>
      </trkpt>
      <trkpt lat="42.875731" lon="-0.198689">
        <ele>2077.4</ele>
        <time>2020-06-28T05:57:41Z</time>
      </trkpt>
      <trkpt lat="42.875638" lon="-0.198633">
        <ele>2077.5</ele>
        <time>2020-06-28T05:58:05Z</time>
      </trkpt>
      <trkpt lat="42.875534" lon="-0.198587">
        <ele>2077.6</ele>
        <time>2020-06-28T05:58:23Z</time>
      </trkpt>
      <trkpt lat="42.875437" lon="-0.198587">
        <ele>2077.6</ele>
        <time>2020-06-28T05:58:40Z</time>
      </trkpt>
      <trkpt lat="42.875353" lon="-0.198513">
        <ele>2078.6</ele>
        <time>2020-06-28T05:58:58Z</time>
      </trkpt>
      <trkpt lat="42.875245" lon="-0.198498">
        <ele>2079.4</ele>
        <time>2020-06-28T05:59:13Z</time>
      </trkpt>
      <trkpt lat="42.875149" lon="-0.198446">
        <ele>2082.1</ele>
        <time>2020-06-28T05:59:31Z</time>
      </trkpt>
      <trkpt lat="42.875057" lon="-0.198438">
        <ele>2084.8</ele>
        <time>2020-06-28T05:59:52Z</time>
      </trkpt>
      <trkpt lat="42.874957" lon="-0.198466">
        <ele>2088.5</ele>
        <time>2020-06-28T06:00:09Z</time>
      </trkpt>
      <trkpt lat="42.874859" lon="-0.198456">
        <ele>2089.3</ele>
        <time>2020-06-28T06:00:25Z</time>
      </trkpt>
      <trkpt lat="42.874756" lon="-0.198461">
        <ele>2090.5</ele>
        <time>2020-06-28T06:00:40Z</time>
      </trkpt>
      <trkpt lat="42.874652" lon="-0.198438">
        <ele>2091.4</ele>
        <time>2020-06-28T06:00:59Z</time>
      </trkpt>
      <trkpt lat="42.874569" lon="-0.198362">
        <ele>2095.0</ele>
        <time>2020-06-28T06:01:17Z</time>
      </trkpt>
      <trkpt lat="42.874468" lon="-0.198367">
        <ele>2095.0</ele>
        <time>2020-06-28T06:01:33Z</time>
      </trkpt>
      <trkpt lat="42.874358" lon="-0.198356">
        <ele>2096.7</ele>
        <time>2020-06-28T06:01:53Z</time>
      </trkpt>
      <trkpt lat="42.874250" lon="-0.198343">
        <ele>2097.7</ele>
        <time>2020-06-28T06:02:14Z</time>
      </trkpt>
      <trkpt lat="42.874166" lon="-0.198335">
        <ele>2098.6</ele>
        <time>2020-06-28T06:02:36Z</time>
      </trkpt>
      <trkpt lat="42.874074" lon="-0.198348">
        <ele>2098.7</ele>
        <time>2020-06-28T06:03:02Z</time>
      </trkpt>
      <trkpt lat="42.873963" lon="-0.198324">
        <ele>2099.8</ele>
        <time>2020-06-28T06:04:00Z</time>
      </trkpt>
      <trkpt lat="42.873865" lon="-0.198296">
        <ele>2102.3</ele>
        <time>2020-06-28T06:04:21Z</time>
      </trkpt>
      <trkpt lat="42.873753" lon="-0.198257">
        <ele>2105.0</ele>
        <time>2020-06-28T06:04:42Z</time>
      </trkpt>
      <trkpt lat="42.873660" lon="-0.198241">
        <ele>2106.4</ele>
        <time>2020-06-28T06:05:04Z</time>
      </trkpt>
      <trkpt lat="42.873569" lon="-0.198289">
        <ele>2106.3</ele>
        <time>2020-06-28T06:05:25Z</time>
      </trkpt>
      <trkpt lat="42.873475" lon="-0.198374">
        <ele>2106.3</ele>
        <time>2020-06-28T06:05:44Z</time>
      </trkpt>
      <trkpt lat="42.873379" lon="-0.198408">
        <ele>2108.0</ele>
        <time>2020-06-28T06:06:05Z</time>
      </trkpt>
      <trkpt lat="42.873300" lon="-0.198432">
        <ele>2108.6</ele>
        <time>2020-06-28T06:06:43Z</time>
      </trkpt>
      <trkpt lat="42.873207" lon="-0.198430">
        <ele>2108.5</ele>
        <time>2020-06-28T06:07:03Z</time>
      </trkpt>
      <trkpt lat="42.873136" lon="-0.198357">
        <ele>2111.8</ele>
        <time>2020-06-28T06:07:25Z</time>
      </trkpt>
      <trkpt lat="42.873059" lon="-0.198275">
        <ele>2115.2</ele>
        <time>2020-06-28T06:07:48Z</time>
      </trkpt>
      <trkpt lat="42.872961" lon="-0.198216">
        <ele>2119.1</ele>
        <time>2020-06-28T06:08:10Z</time>
      </trkpt>
      <trkpt lat="42.872900" lon="-0.198154">
        <ele>2124.4</ele>
        <time>2020-06-28T06:08:42Z</time>
      </trkpt>
      <trkpt lat="42.872806" lon="-0.198102">
        <ele>2128.1</ele>
        <time>2020-06-28T06:09:05Z</time>
      </trkpt>
      <trkpt lat="42.872721" lon="-0.198036">
        <ele>2132.2</ele>
        <time>2020-06-28T06:09:28Z</time>
      </trkpt>
      <trkpt lat="42.872607" lon="-0.198048">
        <ele>2135.6</ele>
        <time>2020-06-28T06:09:47Z</time>
      </trkpt>
      <trkpt lat="42.872512" lon="-0.198020">
        <ele>2138.8</ele>
        <time>2020-06-28T06:10:08Z</time>
      </trkpt>
      <trkpt lat="42.872415" lon="-0.197993">
        <ele>2142.1</ele>
        <time>2020-06-28T06:10:27Z</time>
      </trkpt>
      <trkpt lat="42.872324" lon="-0.198012">
        <ele>2144.7</ele>
        <time>2020-06-28T06:10:46Z</time>
      </trkpt>
      <trkpt lat="42.872246" lon="-0.198077">
        <ele>2147.1</ele>
        <time>2020-06-28T06:11:03Z</time>
      </trkpt>
      <trkpt lat="42.872167" lon="-0.198167">
        <ele>2150.4</ele>
        <time>2020-06-28T06:11:21Z</time>
      </trkpt>
      <trkpt lat="42.872125" lon="-0.198207">
        <ele>2152.7</ele>
        <time>2020-06-28T06:11:58Z</time>
      </trkpt>
      <trkpt lat="42.872041" lon="-0.198320">
        <ele>2155.4</ele>
        <time>2020-06-28T06:12:16Z</time>
      </trkpt>
      <trkpt lat="42.871954" lon="-0.198366">
        <ele>2158.9</ele>
        <time>2020-06-28T06:12:36Z</time>
      </trkpt>
      <trkpt lat="42.871940" lon="-0.198377">
        <ele>2163.9</ele>
        <time>2020-06-28T06:19:52Z</time>
      </trkpt>
      <trkpt lat="42.871847" lon="-0.198440">
        <ele>2168.1</ele>
        <time>2020-06-28T06:20:13Z</time>
      </trkpt>
      <trkpt lat="42.871795" lon="-0.198548">
        <ele>2171.8</ele>
        <time>2020-06-28T06:20:33Z</time>
      </trkpt>
      <trkpt lat="42.871718" lon="-0.198542">
        <ele>2175.8</ele>
        <time>2020-06-28T06:20:56Z</time>
      </trkpt>
      <trkpt lat="42.871636" lon="-0.198480">
        <ele>2180.1</ele>
        <time>2020-06-28T06:21:20Z</time>
      </trkpt>
      <trkpt lat="42.871535" lon="-0.198472">
        <ele>2183.6</ele>
        <time>2020-06-28T06:21:44Z</time>
      </trkpt>
      <trkpt lat="42.871477" lon="-0.198409">
        <ele>2187.0</ele>
        <time>2020-06-28T06:22:07Z</time>
      </trkpt>
      <trkpt lat="42.871406" lon="-0.198380">
        <ele>2190.5</ele>
        <time>2020-06-28T06:22:32Z</time>
      </trkpt>
      <trkpt lat="42.871319" lon="-0.198362">
        <ele>2195.4</ele>
        <time>2020-06-28T06:23:02Z</time>
      </trkpt>
      <trkpt lat="42.871268" lon="-0.198292">
        <ele>2198.7</ele>
        <time>2020-06-28T06:23:24Z</time>
      </trkpt>
      <trkpt lat="42.871168" lon="-0.198302">
        <ele>2200.1</ele>
        <time>2020-06-28T06:23:48Z</time>
      </trkpt>
      <trkpt lat="42.871064" lon="-0.198287">
        <ele>2200.2</ele>
        <time>2020-06-28T06:24:08Z</time>
      </trkpt>
      <trkpt lat="42.870976" lon="-0.198288">
        <ele>2200.2</ele>
        <time>2020-06-28T06:24:50Z</time>
      </trkpt>
      <trkpt lat="42.870899" lon="-0.198291">
        <ele>2200.3</ele>
        <time>2020-06-28T06:25:18Z</time>
      </trkpt>
      <trkpt lat="42.870816" lon="-0.198255">
        <ele>2203.1</ele>
        <time>2020-06-28T06:25:44Z</time>
      </trkpt>
      <trkpt lat="42.870723" lon="-0.198268">
        <ele>2207.5</ele>
        <time>2020-06-28T06:26:09Z</time>
      </trkpt>
      <trkpt lat="42.870651" lon="-0.198290">
        <ele>2210.6</ele>
        <time>2020-06-28T06:26:35Z</time>
      </trkpt>
      <trkpt lat="42.870584" lon="-0.198365">
        <ele>2213.4</ele>
        <time>2020-06-28T06:26:58Z</time>
      </trkpt>
      <trkpt lat="42.870490" lon="-0.198345">
        <ele>2215.0</ele>
        <time>2020-06-28T06:27:20Z</time>
      </trkpt>
      <trkpt lat="42.870393" lon="-0.198322">
        <ele>2218.4</ele>
        <time>2020-06-28T06:27:40Z</time>
      </trkpt>
      <trkpt lat="42.870281" lon="-0.198297">
        <ele>2220.8</ele>
        <time>2020-06-28T06:28:01Z</time>
      </trkpt>
      <trkpt lat="42.870199" lon="-0.198346">
        <ele>2222.4</ele>
        <time>2020-06-28T06:28:25Z</time>
      </trkpt>
      <trkpt lat="42.870096" lon="-0.198370">
        <ele>2227.4</ele>
        <time>2020-06-28T06:33:53Z</time>
      </trkpt>
      <trkpt lat="42.870063" lon="-0.198387">
        <ele>2229.2</ele>
        <time>2020-06-28T06:39:06Z</time>
      </trkpt>
      <trkpt lat="42.870027" lon="-0.198424">
        <ele>2227.1</ele>
        <time>2020-06-28T06:39:57Z</time>
      </trkpt>
      <trkpt lat="42.869946" lon="-0.198419">
        <ele>2231.1</ele>
        <time>2020-06-28T06:40:21Z</time>
      </trkpt>
      <trkpt lat="42.869883" lon="-0.198399">
        <ele>2233.0</ele>
        <time>2020-06-28T06:41:07Z</time>
      </trkpt>
      <trkpt lat="42.869810" lon="-0.198368">
        <ele>2234.6</ele>
        <time>2020-06-28T06:41:27Z</time>
      </trkpt>
      <trkpt lat="42.869694" lon="-0.198352">
        <ele>2237.1</ele>
        <time>2020-06-28T06:41:49Z</time>
      </trkpt>
      <trkpt lat="42.869603" lon="-0.198365">
        <ele>2238.8</ele>
        <time>2020-06-28T06:42:09Z</time>
      </trkpt>
      <trkpt lat="42.869516" lon="-0.198423">
        <ele>2242.1</ele>
        <time>2020-06-28T06:42:30Z</time>
      </trkpt>
      <trkpt lat="42.869387" lon="-0.198497">
        <ele>2243.7</ele>
        <time>2020-06-28T06:42:47Z</time>
      </trkpt>
      <trkpt lat="42.869302" lon="-0.198575">
        <ele>2246.1</ele>
        <time>2020-06-28T06:43:06Z</time>
      </trkpt>
      <trkpt lat="42.869275" lon="-0.198593">
        <ele>2247.5</ele>
        <time>2020-06-28T06:43:31Z</time>
      </trkpt>
      <trkpt lat="42.869178" lon="-0.198632">
        <ele>2249.7</ele>
        <time>2020-06-28T06:43:50Z</time>
      </trkpt>
      <trkpt lat="42.869094" lon="-0.198640">
        <ele>2250.9</ele>
        <time>2020-06-28T06:44:15Z</time>
      </trkpt>
      <trkpt lat="42.869025" lon="-0.198691">
        <ele>2253.0</ele>
        <time>2020-06-28T06:44:43Z</time>
      </trkpt>
      <trkpt lat="42.868954" lon="-0.198741">
        <ele>2255.4</ele>
        <time>2020-06-28T06:45:04Z</time>
      </trkpt>
      <trkpt lat="42.868901" lon="-0.198736">
        <ele>2257.4</ele>
        <time>2020-06-28T06:45:34Z</time>
      </trkpt>
      <trkpt lat="42.868818" lon="-0.198769">
        <ele>2257.9</ele>
        <time>2020-06-28T06:45:53Z</time>
      </trkpt>
      <trkpt lat="42.868741" lon="-0.198890">
        <ele>2259.3</ele>
        <time>2020-06-28T06:46:12Z</time>
      </trkpt>
      <trkpt lat="42.868699" lon="-0.198962">
        <ele>2260.7</ele>
        <time>2020-06-28T06:46:32Z</time>
      </trkpt>
      <trkpt lat="42.868623" lon="-0.199048">
        <ele>2262.1</ele>
        <time>2020-06-28T06:46:52Z</time>
      </trkpt>
      <trkpt lat="42.868601" lon="-0.199112">
        <ele>2262.5</ele>
        <time>2020-06-28T06:47:15Z</time>
      </trkpt>
      <trkpt lat="42.868523" lon="-0.199121">
        <ele>2264.0</ele>
        <time>2020-06-28T06:47:41Z</time>
      </trkpt>
      <trkpt lat="42.868474" lon="-0.199183">
        <ele>2266.2</ele>
        <time>2020-06-28T06:48:06Z</time>
      </trkpt>
      <trkpt lat="42.868410" lon="-0.199266">
        <ele>2268.4</ele>
        <time>2020-06-28T06:48:25Z</time>
      </trkpt>
      <trkpt lat="42.868332" lon="-0.199371">
        <ele>2270.7</ele>
        <time>2020-06-28T06:48:45Z</time>
      </trkpt>
      <trkpt lat="42.868282" lon="-0.199473">
        <ele>2273.0</ele>
        <time>2020-06-28T06:49:06Z</time>
      </trkpt>
      <trkpt lat="42.868237" lon="-0.199584">
        <ele>2274.4</ele>
        <time>2020-06-28T06:49:27Z</time>
      </trkpt>
      <trkpt lat="42.868173" lon="-0.199719">
        <ele>2276.6</ele>
        <time>2020-06-28T06:49:46Z</time>
      </trkpt>
      <trkpt lat="42.868101" lon="-0.199821">
        <ele>2278.9</ele>
        <time>2020-06-28T06:50:07Z</time>
      </trkpt>
      <trkpt lat="42.868013" lon="-0.199811">
        <ele>2281.9</ele>
        <time>2020-06-28T06:50:30Z</time>
      </trkpt>
      <trkpt lat="42.867919" lon="-0.199816">
        <ele>2284.1</ele>
        <time>2020-06-28T06:50:50Z</time>
      </trkpt>
      <trkpt lat="42.867850" lon="-0.199891">
        <ele>2286.1</ele>
        <time>2020-06-28T06:51:09Z</time>
      </trkpt>
      <trkpt lat="42.867855" lon="-0.200036">
        <ele>2287.3</ele>
        <time>2020-06-28T06:51:26Z</time>
      </trkpt>
      <trkpt lat="42.867848" lon="-0.200123">
        <ele>2288.6</ele>
        <time>2020-06-28T06:51:43Z</time>
      </trkpt>
      <trkpt lat="42.867819" lon="-0.200269">
        <ele>2290.8</ele>
        <time>2020-06-28T06:52:02Z</time>
      </trkpt>
      <trkpt lat="42.867747" lon="-0.200287">
        <ele>2292.0</ele>
        <time>2020-06-28T06:52:21Z</time>
      </trkpt>
      <trkpt lat="42.867645" lon="-0.200372">
        <ele>2294.2</ele>
        <time>2020-06-28T06:52:39Z</time>
      </trkpt>
      <trkpt lat="42.867602" lon="-0.200503">
        <ele>2297.2</ele>
        <time>2020-06-28T06:53:02Z</time>
      </trkpt>
      <trkpt lat="42.867530" lon="-0.200555">
        <ele>2300.0</ele>
        <time>2020-06-28T06:53:24Z</time>
      </trkpt>
      <trkpt lat="42.867502" lon="-0.200672">
        <ele>2302.8</ele>
        <time>2020-06-28T06:53:47Z</time>
      </trkpt>
      <trkpt lat="42.867426" lon="-0.200718">
        <ele>2305.0</ele>
        <time>2020-06-28T06:54:12Z</time>
      </trkpt>
      <trkpt lat="42.867347" lon="-0.200769">
        <ele>2307.8</ele>
        <time>2020-06-28T06:54:34Z</time>
      </trkpt>
      <trkpt lat="42.867284" lon="-0.200862">
        <ele>2310.7</ele>
        <time>2020-06-28T06:55:02Z</time>
      </trkpt>
      <trkpt lat="42.867224" lon="-0.200873">
        <ele>2324.6</ele>
        <time>2020-06-28T07:47:14Z</time>
      </trkpt>
      <trkpt lat="42.867104" lon="-0.200792">
        <ele>2326.1</ele>
        <time>2020-06-28T07:47:30Z</time>
      </trkpt>
      <trkpt lat="42.867000" lon="-0.200678">
        <ele>2327.6</ele>
        <time>2020-06-28T07:47:47Z</time>
      </trkpt>
      <trkpt lat="42.866927" lon="-0.200649">
        <ele>2330.1</ele>
        <time>2020-06-28T07:48:09Z</time>
      </trkpt>
      <trkpt lat="42.866810" lon="-0.200623">
        <ele>2333.6</ele>
        <time>2020-06-28T07:48:27Z</time>
      </trkpt>
      <trkpt lat="42.866714" lon="-0.200573">
        <ele>2337.5</ele>
        <time>2020-06-28T07:48:44Z</time>
      </trkpt>
      <trkpt lat="42.866629" lon="-0.200594">
        <ele>2339.9</ele>
        <time>2020-06-28T07:49:03Z</time>
      </trkpt>
      <trkpt lat="42.866546" lon="-0.200587">
        <ele>2342.0</ele>
        <time>2020-06-28T07:49:23Z</time>
      </trkpt>
      <trkpt lat="42.866468" lon="-0.200606">
        <ele>2346.9</ele>
        <time>2020-06-28T07:49:46Z</time>
      </trkpt>
      <trkpt lat="42.866420" lon="-0.200573">
        <ele>2347.4</ele>
        <time>2020-06-28T07:50:06Z</time>
      </trkpt>
      <trkpt lat="42.866357" lon="-0.200489">
        <ele>2356.0</ele>
        <time>2020-06-28T07:50:53Z</time>
      </trkpt>
      <trkpt lat="42.866326" lon="-0.200472">
        <ele>2374.9</ele>
        <time>2020-06-28T07:52:35Z</time>
      </trkpt>
      <trkpt lat="42.866220" lon="-0.200435">
        <ele>2378.3</ele>
        <time>2020-06-28T07:52:59Z</time>
      </trkpt>
      <trkpt lat="42.866148" lon="-0.200432">
        <ele>2382.4</ele>
        <time>2020-06-28T07:53:21Z</time>
      </trkpt>
      <trkpt lat="42.866141" lon="-0.200459">
        <ele>2386.0</ele>
        <time>2020-06-28T07:53:44Z</time>
      </trkpt>
      <trkpt lat="42.866077" lon="-0.200462">
        <ele>2390.2</ele>
        <time>2020-06-28T07:54:11Z</time>
      </trkpt>
      <trkpt lat="42.866033" lon="-0.200497">
        <ele>2393.6</ele>
        <time>2020-06-28T07:54:30Z</time>
      </trkpt>
      <trkpt lat="42.865989" lon="-0.200504">
        <ele>2395.3</ele>
        <time>2020-06-28T07:54:47Z</time>
      </trkpt>
      <trkpt lat="42.865990" lon="-0.200527">
        <ele>2396.1</ele>
        <time>2020-06-28T07:55:08Z</time>
      </trkpt>
      <trkpt lat="42.865910" lon="-0.200524">
        <ele>2401.3</ele>
        <time>2020-06-28T07:55:38Z</time>
      </trkpt>
      <trkpt lat="42.865816" lon="-0.200518">
        <ele>2404.6</ele>
        <time>2020-06-28T07:56:02Z</time>
      </trkpt>
      <trkpt lat="42.865767" lon="-0.200507">
        <ele>2410.2</ele>
        <time>2020-06-28T07:56:34Z</time>
      </trkpt>
      <trkpt lat="42.865694" lon="-0.200496">
        <ele>2415.8</ele>
        <time>2020-06-28T07:57:08Z</time>
      </trkpt>
      <trkpt lat="42.865604" lon="-0.200512">
        <ele>2418.3</ele>
        <time>2020-06-28T07:57:27Z</time>
      </trkpt>
      <trkpt lat="42.865505" lon="-0.200482">
        <ele>2422.0</ele>
        <time>2020-06-28T07:57:49Z</time>
      </trkpt>
      <trkpt lat="42.865430" lon="-0.200390">
        <ele>2424.7</ele>
        <time>2020-06-28T07:58:18Z</time>
      </trkpt>
      <trkpt lat="42.865354" lon="-0.200342">
        <ele>2429.8</ele>
        <time>2020-06-28T07:58:44Z</time>
      </trkpt>
      <trkpt lat="42.865303" lon="-0.200343">
        <ele>2431.4</ele>
        <time>2020-06-28T07:59:12Z</time>
      </trkpt>
      <trkpt lat="42.865202" lon="-0.200349">
        <ele>2433.9</ele>
        <time>2020-06-28T07:59:34Z</time>
      </trkpt>
      <trkpt lat="42.865113" lon="-0.200313">
        <ele>2438.0</ele>
        <time>2020-06-28T08:00:01Z</time>
      </trkpt>
      <trkpt lat="42.865062" lon="-0.200309">
        <ele>2441.2</ele>
        <time>2020-06-28T08:00:38Z</time>
      </trkpt>
      <trkpt lat="42.864982" lon="-0.200298">
        <ele>2445.5</ele>
        <time>2020-06-28T08:01:00Z</time>
      </trkpt>
      <trkpt lat="42.864953" lon="-0.200324">
        <ele>2449.5</ele>
        <time>2020-06-28T08:01:40Z</time>
      </trkpt>
      <trkpt lat="42.864872" lon="-0.200253">
        <ele>2451.9</ele>
        <time>2020-06-28T08:02:01Z</time>
      </trkpt>
      <trkpt lat="42.864835" lon="-0.200211">
        <ele>2463.6</ele>
        <time>2020-06-28T08:03:58Z</time>
      </trkpt>
      <trkpt lat="42.864813" lon="-0.200196">
        <ele>2468.1</ele>
        <time>2020-06-28T08:04:33Z</time>
      </trkpt>
      <trkpt lat="42.864747" lon="-0.200128">
        <ele>2473.1</ele>
        <time>2020-06-28T08:05:14Z</time>
      </trkpt>
      <trkpt lat="42.864693" lon="-0.200101">
        <ele>2478.5</ele>
        <time>2020-06-28T08:05:48Z</time>
      </trkpt>
      <trkpt lat="42.864659" lon="-0.200152">
        <ele>2484.3</ele>
        <time>2020-06-28T08:06:23Z</time>
      </trkpt>
      <trkpt lat="42.864560" lon="-0.200149">
        <ele>2488.6</ele>
        <time>2020-06-28T08:06:51Z</time>
      </trkpt>
      <trkpt lat="42.864520" lon="-0.200213">
        <ele>2493.5</ele>
        <time>2020-06-28T08:07:24Z</time>
      </trkpt>
      <trkpt lat="42.864476" lon="-0.200179">
        <ele>2494.4</ele>
        <time>2020-06-28T08:07:43Z</time>
      </trkpt>
      <trkpt lat="42.864454" lon="-0.200049">
        <ele>2495.3</ele>
        <time>2020-06-28T08:08:00Z</time>
      </trkpt>
      <trkpt lat="42.864435" lon="-0.199986">
        <ele>2495.6</ele>
        <time>2020-06-28T08:08:36Z</time>
      </trkpt>
      <trkpt lat="42.864434" lon="-0.199868">
        <ele>2504.9</ele>
        <time>2020-06-28T08:15:31Z</time>
      </trkpt>
      <trkpt lat="42.864348" lon="-0.199825">
        <ele>2507.6</ele>
        <time>2020-06-28T08:15:54Z</time>
      </trkpt>
      <trkpt lat="42.864284" lon="-0.199833">
        <ele>2510.7</ele>
        <time>2020-06-28T08:16:34Z</time>
      </trkpt>
      <trkpt lat="42.864206" lon="-0.199761">
        <ele>2513.9</ele>
        <time>2020-06-28T08:16:58Z</time>
      </trkpt>
      <trkpt lat="42.864129" lon="-0.199714">
        <ele>2518.4</ele>
        <time>2020-06-28T08:17:32Z</time>
      </trkpt>
      <trkpt lat="42.864051" lon="-0.199692">
        <ele>2522.6</ele>
        <time>2020-06-28T08:18:00Z</time>
      </trkpt>
      <trkpt lat="42.863964" lon="-0.199737">
        <ele>2527.1</ele>
        <time>2020-06-28T08:18:33Z</time>
      </trkpt>
      <trkpt lat="42.863882" lon="-0.199702">
        <ele>2530.8</ele>
        <time>2020-06-28T08:19:02Z</time>
      </trkpt>
      <trkpt lat="42.863829" lon="-0.199734">
        <ele>2533.3</ele>
        <time>2020-06-28T08:19:40Z</time>
      </trkpt>
      <trkpt lat="42.863740" lon="-0.199746">
        <ele>2537.8</ele>
        <time>2020-06-28T08:20:18Z</time>
      </trkpt>
      <trkpt lat="42.863655" lon="-0.199774">
        <ele>2542.4</ele>
        <time>2020-06-28T08:20:49Z</time>
      </trkpt>
      <trkpt lat="42.863572" lon="-0.199802">
        <ele>2545.8</ele>
        <time>2020-06-28T08:21:16Z</time>
      </trkpt>
      <trkpt lat="42.863488" lon="-0.199848">
        <ele>2548.3</ele>
        <time>2020-06-28T08:21:38Z</time>
      </trkpt>
      <trkpt lat="42.863451" lon="-0.199800">
        <ele>2550.9</ele>
        <time>2020-06-28T08:22:18Z</time>
      </trkpt>
      <trkpt lat="42.863413" lon="-0.199677">
        <ele>2554.4</ele>
        <time>2020-06-28T08:22:44Z</time>
      </trkpt>
      <trkpt lat="42.863342" lon="-0.199584">
        <ele>2559.7</ele>
        <time>2020-06-28T08:23:20Z</time>
      </trkpt>
      <trkpt lat="42.863262" lon="-0.199533">
        <ele>2563.4</ele>
        <time>2020-06-28T08:23:56Z</time>
      </trkpt>
      <trkpt lat="42.863164" lon="-0.199517">
        <ele>2569.4</ele>
        <time>2020-06-28T08:24:43Z</time>
      </trkpt>
      <trkpt lat="42.863101" lon="-0.199441">
        <ele>2571.9</ele>
        <time>2020-06-28T08:25:08Z</time>
      </trkpt>
      <trkpt lat="42.863022" lon="-0.199385">
        <ele>2576.8</ele>
        <time>2020-06-28T08:25:48Z</time>
      </trkpt>
      <trkpt lat="42.862935" lon="-0.199377">
        <ele>2582.7</ele>
        <time>2020-06-28T08:26:31Z</time>
      </trkpt>
      <trkpt lat="42.862862" lon="-0.199313">
        <ele>2586.7</ele>
        <time>2020-06-28T08:27:03Z</time>
      </trkpt>
      <trkpt lat="42.862780" lon="-0.199274">
        <ele>2590.3</ele>
        <time>2020-06-28T08:27:27Z</time>
      </trkpt>
      <trkpt lat="42.862692" lon="-0.199241">
        <ele>2595.6</ele>
        <time>2020-06-28T08:28:01Z</time>
      </trkpt>
      <trkpt lat="42.862601" lon="-0.199212">
        <ele>2599.8</ele>
        <time>2020-06-28T08:28:37Z</time>
      </trkpt>
      <trkpt lat="42.862529" lon="-0.199159">
        <ele>2603.3</ele>
        <time>2020-06-28T08:29:03Z</time>
      </trkpt>
      <trkpt lat="42.862441" lon="-0.199110">
        <ele>2605.9</ele>
        <time>2020-06-28T08:29:28Z</time>
      </trkpt>
      <trkpt lat="42.862388" lon="-0.199100">
        <ele>2609.6</ele>
        <time>2020-06-28T08:30:09Z</time>
      </trkpt>
      <trkpt lat="42.862376" lon="-0.199007">
        <ele>2610.9</ele>
        <time>2020-06-28T08:30:53Z</time>
      </trkpt>
      <trkpt lat="42.862361" lon="-0.198912">
        <ele>2617.3</ele>
        <time>2020-06-28T08:35:44Z</time>
      </trkpt>
      <trkpt lat="42.862348" lon="-0.198879">
        <ele>2617.4</ele>
        <time>2020-06-28T08:36:23Z</time>
      </trkpt>
      <trkpt lat="42.862292" lon="-0.198802">
        <ele>2629.9</ele>
        <time>2020-06-28T08:38:08Z</time>
      </trkpt>
      <trkpt lat="42.862290" lon="-0.198730">
        <ele>2631.3</ele>
        <time>2020-06-28T08:38:34Z</time>
      </trkpt>
      <trkpt lat="42.862301" lon="-0.198601">
        <ele>2634.4</ele>
        <time>2020-06-28T08:39:06Z</time>
      </trkpt>
      <trkpt lat="42.862260" lon="-0.198495">
        <ele>2641.8</ele>
        <time>2020-06-28T08:39:37Z</time>
      </trkpt>
      <trkpt lat="42.862244" lon="-0.198376">
        <ele>2644.4</ele>
        <time>2020-06-28T08:40:03Z</time>
      </trkpt>
      <trkpt lat="42.862257" lon="-0.198264">
        <ele>2647.0</ele>
        <time>2020-06-28T08:40:34Z</time>
      </trkpt>
      <trkpt lat="42.862276" lon="-0.198145">
        <ele>2648.0</ele>
        <time>2020-06-28T08:40:57Z</time>
      </trkpt>
      <trkpt lat="42.862307" lon="-0.198028">
        <ele>2649.1</ele>
        <time>2020-06-28T08:41:22Z</time>
      </trkpt>
      <trkpt lat="42.862314" lon="-0.197904">
        <ele>2652.4</ele>
        <time>2020-06-28T08:41:44Z</time>
      </trkpt>
      <trkpt lat="42.862389" lon="-0.197827">
        <ele>2652.7</ele>
        <time>2020-06-28T08:42:08Z</time>
      </trkpt>
      <trkpt lat="42.862435" lon="-0.197726">
        <ele>2655.8</ele>
        <time>2020-06-28T08:42:44Z</time>
      </trkpt>
      <trkpt lat="42.862491" lon="-0.197615">
        <ele>2659.4</ele>
        <time>2020-06-28T08:43:24Z</time>
      </trkpt>
      <trkpt lat="42.862555" lon="-0.197520">
        <ele>2659.7</ele>
        <time>2020-06-28T08:43:49Z</time>
      </trkpt>
      <trkpt lat="42.862636" lon="-0.197442">
        <ele>2661.2</ele>
        <time>2020-06-28T08:44:30Z</time>
      </trkpt>
      <trkpt lat="42.862683" lon="-0.197327">
        <ele>2664.0</ele>
        <time>2020-06-28T08:45:02Z</time>
      </trkpt>
      <trkpt lat="42.862744" lon="-0.197232">
        <ele>2668.4</ele>
        <time>2020-06-28T08:45:30Z</time>
      </trkpt>
      <trkpt lat="42.862836" lon="-0.197235">
        <ele>2671.2</ele>
        <time>2020-06-28T08:45:54Z</time>
      </trkpt>
      <trkpt lat="42.862926" lon="-0.197193">
        <ele>2673.1</ele>
        <time>2020-06-28T08:46:19Z</time>
      </trkpt>
      <trkpt lat="42.863012" lon="-0.197109">
        <ele>2676.9</ele>
        <time>2020-06-28T08:46:40Z</time>
      </trkpt>
      <trkpt lat="42.863085" lon="-0.197040">
        <ele>2677.9</ele>
        <time>2020-06-28T08:47:07Z</time>
      </trkpt>
      <trkpt lat="42.863165" lon="-0.196959">
        <ele>2681.9</ele>
        <time>2020-06-28T08:47:34Z</time>
      </trkpt>
      <trkpt lat="42.863190" lon="-0.196865">
        <ele>2683.9</ele>
        <time>2020-06-28T08:48:07Z</time>
      </trkpt>
      <trkpt lat="42.863250" lon="-0.196773">
        <ele>2688.8</ele>
        <time>2020-06-28T08:48:39Z</time>
      </trkpt>
      <trkpt lat="42.863330" lon="-0.196691">
        <ele>2695.0</ele>
        <time>2020-06-28T08:49:17Z</time>
      </trkpt>
      <trkpt lat="42.863380" lon="-0.196595">
        <ele>2697.4</ele>
        <time>2020-06-28T08:49:46Z</time>
      </trkpt>
      <trkpt lat="42.863461" lon="-0.196516">
        <ele>2700.1</ele>
        <time>2020-06-28T08:50:14Z</time>
      </trkpt>
      <trkpt lat="42.863554" lon="-0.196462">
        <ele>2701.8</ele>
        <time>2020-06-28T08:50:38Z</time>
      </trkpt>
      <trkpt lat="42.863633" lon="-0.196384">
        <ele>2703.9</ele>
        <time>2020-06-28T08:51:07Z</time>
      </trkpt>
      <trkpt lat="42.863695" lon="-0.196286">
        <ele>2707.9</ele>
        <time>2020-06-28T08:51:28Z</time>
      </trkpt>
      <trkpt lat="42.863744" lon="-0.196179">
        <ele>2710.7</ele>
        <time>2020-06-28T08:51:53Z</time>
      </trkpt>
      <trkpt lat="42.863779" lon="-0.196077">
        <ele>2712.8</ele>
        <time>2020-06-28T08:52:42Z</time>
      </trkpt>
      <trkpt lat="42.863796" lon="-0.195962">
        <ele>2719.6</ele>
        <time>2020-06-28T08:53:15Z</time>
      </trkpt>
      <trkpt lat="42.863878" lon="-0.195902">
        <ele>2723.3</ele>
        <time>2020-06-28T08:53:44Z</time>
      </trkpt>
      <trkpt lat="42.863949" lon="-0.195861">
        <ele>2725.9</ele>
        <time>2020-06-28T08:54:07Z</time>
      </trkpt>
      <trkpt lat="42.864029" lon="-0.195797">
        <ele>2731.9</ele>
        <time>2020-06-28T08:54:42Z</time>
      </trkpt>
      <trkpt lat="42.864104" lon="-0.195728">
        <ele>2732.8</ele>
        <time>2020-06-28T08:55:00Z</time>
      </trkpt>
      <trkpt lat="42.864184" lon="-0.195661">
        <ele>2736.4</ele>
        <time>2020-06-28T08:55:22Z</time>
      </trkpt>
      <trkpt lat="42.864267" lon="-0.195608">
        <ele>2741.2</ele>
        <time>2020-06-28T08:55:44Z</time>
      </trkpt>
      <trkpt lat="42.864350" lon="-0.195546">
        <ele>2744.2</ele>
        <time>2020-06-28T08:56:13Z</time>
      </trkpt>
      <trkpt lat="42.864402" lon="-0.195490">
        <ele>2748.9</ele>
        <time>2020-06-28T08:57:01Z</time>
      </trkpt>
      <trkpt lat="42.864484" lon="-0.195442">
        <ele>2752.8</ele>
        <time>2020-06-28T08:57:18Z</time>
      </trkpt>
      <trkpt lat="42.864562" lon="-0.195380">
        <ele>2753.9</ele>
        <time>2020-06-28T08:57:39Z</time>
      </trkpt>
      <trkpt lat="42.864643" lon="-0.195313">
        <ele>2757.3</ele>
        <time>2020-06-28T08:57:57Z</time>
      </trkpt>
      <trkpt lat="42.864724" lon="-0.195243">
        <ele>2760.1</ele>
        <time>2020-06-28T08:58:19Z</time>
      </trkpt>
      <trkpt lat="42.864806" lon="-0.195183">
        <ele>2763.5</ele>
        <time>2020-06-28T08:58:46Z</time>
      </trkpt>
      <trkpt lat="42.864868" lon="-0.195085">
        <ele>2770.0</ele>
        <time>2020-06-28T08:59:30Z</time>
      </trkpt>
      <trkpt lat="42.864944" lon="-0.195032">
        <ele>2771.8</ele>
        <time>2020-06-28T08:59:53Z</time>
      </trkpt>
      <trkpt lat="42.865017" lon="-0.194951">
        <ele>2774.9</ele>
        <time>2020-06-28T09:00:18Z</time>
      </trkpt>
      <trkpt lat="42.864998" lon="-0.194876">
        <ele>2781.7</ele>
        <time>2020-06-28T09:01:03Z</time>
      </trkpt>
      <trkpt lat="42.865032" lon="-0.194774">
        <ele>2796.0</ele>
        <time>2020-06-28T09:13:46Z</time>
      </trkpt>
      <trkpt lat="42.865018" lon="-0.194738">
        <ele>2806.6</ele>
        <time>2020-06-28T09:43:42Z</time>
      </trkpt>
      <trkpt lat="42.865015" lon="-0.194753">
        <ele>2805.6</ele>
        <time>2020-06-28T09:47:49Z</time>
      </trkpt>
      <trkpt lat="42.865018" lon="-0.194770">
        <ele>2805.7</ele>
        <time>2020-06-28T09:48:20Z</time>
      </trkpt>
      <trkpt lat="42.865023" lon="-0.194783">
        <ele>2807.2</ele>
        <time>2020-06-28T09:53:26Z</time>
      </trkpt>
      <trkpt lat="42.865023" lon="-0.194847">
        <ele>2805.5</ele>
        <time>2020-06-28T09:54:12Z</time>
      </trkpt>
      <trkpt lat="42.864951" lon="-0.194892">
        <ele>2799.0</ele>
        <time>2020-06-28T09:55:03Z</time>
      </trkpt>
      <trkpt lat="42.864935" lon="-0.194968">
        <ele>2799.1</ele>
        <time>2020-06-28T09:55:41Z</time>
      </trkpt>
      <trkpt lat="42.864857" lon="-0.195020">
        <ele>2791.9</ele>
        <time>2020-06-28T09:55:53Z</time>
      </trkpt>
      <trkpt lat="42.864783" lon="-0.195074">
        <ele>2790.2</ele>
        <time>2020-06-28T09:56:11Z</time>
      </trkpt>
      <trkpt lat="42.864711" lon="-0.195137">
        <ele>2786.0</ele>
        <time>2020-06-28T09:56:30Z</time>
      </trkpt>
      <trkpt lat="42.864642" lon="-0.195205">
        <ele>2783.1</ele>
        <time>2020-06-28T09:56:46Z</time>
      </trkpt>
      <trkpt lat="42.864543" lon="-0.195245">
        <ele>2783.2</ele>
        <time>2020-06-28T09:57:10Z</time>
      </trkpt>
      <trkpt lat="42.864515" lon="-0.195329">
        <ele>2777.4</ele>
        <time>2020-06-28T09:57:34Z</time>
      </trkpt>
      <trkpt lat="42.864456" lon="-0.195410">
        <ele>2773.6</ele>
        <time>2020-06-28T09:57:55Z</time>
      </trkpt>
      <trkpt lat="42.864406" lon="-0.195469">
        <ele>2769.8</ele>
        <time>2020-06-28T09:58:15Z</time>
      </trkpt>
      <trkpt lat="42.864321" lon="-0.195507">
        <ele>2767.9</ele>
        <time>2020-06-28T09:58:28Z</time>
      </trkpt>
      <trkpt lat="42.864233" lon="-0.195552">
        <ele>2766.1</ele>
        <time>2020-06-28T09:58:41Z</time>
      </trkpt>
      <trkpt lat="42.864132" lon="-0.195580">
        <ele>2764.5</ele>
        <time>2020-06-28T09:58:53Z</time>
      </trkpt>
      <trkpt lat="42.864049" lon="-0.195644">
        <ele>2763.6</ele>
        <time>2020-06-28T09:59:07Z</time>
      </trkpt>
      <trkpt lat="42.863976" lon="-0.195709">
        <ele>2762.5</ele>
        <time>2020-06-28T09:59:20Z</time>
      </trkpt>
      <trkpt lat="42.863916" lon="-0.195771">
        <ele>2759.9</ele>
        <time>2020-06-28T10:00:13Z</time>
      </trkpt>
      <trkpt lat="42.863853" lon="-0.195848">
        <ele>2758.4</ele>
        <time>2020-06-28T10:00:27Z</time>
      </trkpt>
      <trkpt lat="42.863773" lon="-0.195852">
        <ele>2753.6</ele>
        <time>2020-06-28T10:00:48Z</time>
      </trkpt>
      <trkpt lat="42.863700" lon="-0.195921">
        <ele>2749.0</ele>
        <time>2020-06-28T10:01:06Z</time>
      </trkpt>
      <trkpt lat="42.863652" lon="-0.196013">
        <ele>2747.1</ele>
        <time>2020-06-28T10:02:00Z</time>
      </trkpt>
      <trkpt lat="42.863592" lon="-0.196080">
        <ele>2742.3</ele>
        <time>2020-06-28T10:02:16Z</time>
      </trkpt>
      <trkpt lat="42.863536" lon="-0.196176">
        <ele>2739.6</ele>
        <time>2020-06-28T10:02:33Z</time>
      </trkpt>
      <trkpt lat="42.863463" lon="-0.196255">
        <ele>2736.0</ele>
        <time>2020-06-28T10:02:46Z</time>
      </trkpt>
      <trkpt lat="42.863425" lon="-0.196349">
        <ele>2731.9</ele>
        <time>2020-06-28T10:03:00Z</time>
      </trkpt>
      <trkpt lat="42.863436" lon="-0.196452">
        <ele>2728.4</ele>
        <time>2020-06-28T10:03:19Z</time>
      </trkpt>
      <trkpt lat="42.863471" lon="-0.196532">
        <ele>2722.8</ele>
        <time>2020-06-28T10:03:51Z</time>
      </trkpt>
      <trkpt lat="42.863427" lon="-0.196606">
        <ele>2719.2</ele>
        <time>2020-06-28T10:04:15Z</time>
      </trkpt>
      <trkpt lat="42.863371" lon="-0.196686">
        <ele>2715.4</ele>
        <time>2020-06-28T10:04:36Z</time>
      </trkpt>
      <trkpt lat="42.863304" lon="-0.196777">
        <ele>2714.6</ele>
        <time>2020-06-28T10:04:50Z</time>
      </trkpt>
      <trkpt lat="42.863231" lon="-0.196844">
        <ele>2708.1</ele>
        <time>2020-06-28T10:05:10Z</time>
      </trkpt>
      <trkpt lat="42.863191" lon="-0.196929">
        <ele>2704.5</ele>
        <time>2020-06-28T10:05:31Z</time>
      </trkpt>
      <trkpt lat="42.863158" lon="-0.196994">
        <ele>2702.7</ele>
        <time>2020-06-28T10:05:54Z</time>
      </trkpt>
      <trkpt lat="42.863096" lon="-0.197055">
        <ele>2698.2</ele>
        <time>2020-06-28T10:06:17Z</time>
      </trkpt>
      <trkpt lat="42.863106" lon="-0.197124">
        <ele>2693.8</ele>
        <time>2020-06-28T10:06:44Z</time>
      </trkpt>
      <trkpt lat="42.863073" lon="-0.197193">
        <ele>2691.8</ele>
        <time>2020-06-28T10:07:07Z</time>
      </trkpt>
      <trkpt lat="42.863030" lon="-0.197283">
        <ele>2689.1</ele>
        <time>2020-06-28T10:07:28Z</time>
      </trkpt>
      <trkpt lat="42.862952" lon="-0.197318">
        <ele>2684.9</ele>
        <time>2020-06-28T10:07:45Z</time>
      </trkpt>
      <trkpt lat="42.862909" lon="-0.197373">
        <ele>2681.8</ele>
        <time>2020-06-28T10:08:21Z</time>
      </trkpt>
      <trkpt lat="42.862864" lon="-0.197480">
        <ele>2678.9</ele>
        <time>2020-06-28T10:08:37Z</time>
      </trkpt>
      <trkpt lat="42.862797" lon="-0.197543">
        <ele>2676.4</ele>
        <time>2020-06-28T10:08:54Z</time>
      </trkpt>
      <trkpt lat="42.862690" lon="-0.197579">
        <ele>2673.2</ele>
        <time>2020-06-28T10:09:08Z</time>
      </trkpt>
      <trkpt lat="42.862597" lon="-0.197651">
        <ele>2673.2</ele>
        <time>2020-06-28T10:09:22Z</time>
      </trkpt>
      <trkpt lat="42.862501" lon="-0.197632">
        <ele>2675.9</ele>
        <time>2020-06-28T10:09:38Z</time>
      </trkpt>
      <trkpt lat="42.862441" lon="-0.197682">
        <ele>2676.4</ele>
        <time>2020-06-28T10:10:04Z</time>
      </trkpt>
      <trkpt lat="42.862360" lon="-0.197743">
        <ele>2675.9</ele>
        <time>2020-06-28T10:10:26Z</time>
      </trkpt>
      <trkpt lat="42.862312" lon="-0.197893">
        <ele>2675.6</ele>
        <time>2020-06-28T10:10:47Z</time>
      </trkpt>
      <trkpt lat="42.862269" lon="-0.198042">
        <ele>2675.4</ele>
        <time>2020-06-28T10:11:01Z</time>
      </trkpt>
      <trkpt lat="42.862270" lon="-0.198184">
        <ele>2671.8</ele>
        <time>2020-06-28T10:11:18Z</time>
      </trkpt>
      <trkpt lat="42.862223" lon="-0.198287">
        <ele>2669.5</ele>
        <time>2020-06-28T10:11:35Z</time>
      </trkpt>
      <trkpt lat="42.862241" lon="-0.198370">
        <ele>2666.9</ele>
        <time>2020-06-28T10:11:59Z</time>
      </trkpt>
      <trkpt lat="42.862275" lon="-0.198499">
        <ele>2662.1</ele>
        <time>2020-06-28T10:12:16Z</time>
      </trkpt>
      <trkpt lat="42.862321" lon="-0.198610">
        <ele>2656.3</ele>
        <time>2020-06-28T10:12:36Z</time>
      </trkpt>
      <trkpt lat="42.862321" lon="-0.198737">
        <ele>2652.7</ele>
        <time>2020-06-28T10:12:54Z</time>
      </trkpt>
      <trkpt lat="42.862251" lon="-0.198837">
        <ele>2652.0</ele>
        <time>2020-06-28T10:13:10Z</time>
      </trkpt>
      <trkpt lat="42.862244" lon="-0.198869">
        <ele>2646.1</ele>
        <time>2020-06-28T10:17:29Z</time>
      </trkpt>
      <trkpt lat="42.862187" lon="-0.198951">
        <ele>2644.3</ele>
        <time>2020-06-28T10:17:57Z</time>
      </trkpt>
      <trkpt lat="42.862230" lon="-0.199020">
        <ele>2640.1</ele>
        <time>2020-06-28T10:18:31Z</time>
      </trkpt>
      <trkpt lat="42.862184" lon="-0.199152">
        <ele>2634.6</ele>
        <time>2020-06-28T10:18:47Z</time>
      </trkpt>
      <trkpt lat="42.862125" lon="-0.199201">
        <ele>2627.5</ele>
        <time>2020-06-28T10:19:11Z</time>
      </trkpt>
      <trkpt lat="42.862040" lon="-0.199234">
        <ele>2619.6</ele>
        <time>2020-06-28T10:19:30Z</time>
      </trkpt>
      <trkpt lat="42.862006" lon="-0.199223">
        <ele>2615.2</ele>
        <time>2020-06-28T10:19:52Z</time>
      </trkpt>
      <trkpt lat="42.862011" lon="-0.199215">
        <ele>2617.8</ele>
        <time>2020-06-28T10:20:11Z</time>
      </trkpt>
      <trkpt lat="42.861926" lon="-0.199171">
        <ele>2615.2</ele>
        <time>2020-06-28T10:20:39Z</time>
      </trkpt>
      <trkpt lat="42.861855" lon="-0.199211">
        <ele>2608.7</ele>
        <time>2020-06-28T10:20:56Z</time>
      </trkpt>
      <trkpt lat="42.861785" lon="-0.199289">
        <ele>2603.2</ele>
        <time>2020-06-28T10:21:10Z</time>
      </trkpt>
      <trkpt lat="42.861704" lon="-0.199260">
        <ele>2597.8</ele>
        <time>2020-06-28T10:21:30Z</time>
      </trkpt>
      <trkpt lat="42.861628" lon="-0.199319">
        <ele>2591.9</ele>
        <time>2020-06-28T10:21:50Z</time>
      </trkpt>
      <trkpt lat="42.861555" lon="-0.199363">
        <ele>2584.4</ele>
        <time>2020-06-28T10:22:10Z</time>
      </trkpt>
      <trkpt lat="42.861511" lon="-0.199478">
        <ele>2580.7</ele>
        <time>2020-06-28T10:22:26Z</time>
      </trkpt>
      <trkpt lat="42.861470" lon="-0.199543">
        <ele>2574.1</ele>
        <time>2020-06-28T10:22:38Z</time>
      </trkpt>
      <trkpt lat="42.861434" lon="-0.199615">
        <ele>2571.4</ele>
        <time>2020-06-28T10:22:54Z</time>
      </trkpt>
      <trkpt lat="42.861416" lon="-0.199673">
        <ele>2565.8</ele>
        <time>2020-06-28T10:23:13Z</time>
      </trkpt>
      <trkpt lat="42.861349" lon="-0.199663">
        <ele>2562.0</ele>
        <time>2020-06-28T10:23:41Z</time>
      </trkpt>
      <trkpt lat="42.861336" lon="-0.199774">
        <ele>2557.0</ele>
        <time>2020-06-28T10:23:59Z</time>
      </trkpt>
      <trkpt lat="42.861304" lon="-0.199845">
        <ele>2552.7</ele>
        <time>2020-06-28T10:24:24Z</time>
      </trkpt>
      <trkpt lat="42.861230" lon="-0.199912">
        <ele>2546.6</ele>
        <time>2020-06-28T10:24:44Z</time>
      </trkpt>
      <trkpt lat="42.861217" lon="-0.199901">
        <ele>2543.8</ele>
        <time>2020-06-28T10:27:01Z</time>
      </trkpt>
      <trkpt lat="42.861214" lon="-0.199973">
        <ele>2543.6</ele>
        <time>2020-06-28T10:27:32Z</time>
      </trkpt>
      <trkpt lat="42.861202" lon="-0.200101">
        <ele>2538.5</ele>
        <time>2020-06-28T10:27:56Z</time>
      </trkpt>
      <trkpt lat="42.861136" lon="-0.200177">
        <ele>2535.9</ele>
        <time>2020-06-28T10:28:17Z</time>
      </trkpt>
      <trkpt lat="42.861083" lon="-0.200288">
        <ele>2530.9</ele>
        <time>2020-06-28T10:28:42Z</time>
      </trkpt>
      <trkpt lat="42.861045" lon="-0.200422">
        <ele>2526.3</ele>
        <time>2020-06-28T10:29:02Z</time>
      </trkpt>
      <trkpt lat="42.861070" lon="-0.200549">
        <ele>2525.4</ele>
        <time>2020-06-28T10:29:31Z</time>
      </trkpt>
      <trkpt lat="42.861017" lon="-0.200627">
        <ele>2523.5</ele>
        <time>2020-06-28T10:29:55Z</time>
      </trkpt>
      <trkpt lat="42.860949" lon="-0.200654">
        <ele>2518.6</ele>
        <time>2020-06-28T10:30:21Z</time>
      </trkpt>
      <trkpt lat="42.860926" lon="-0.200736">
        <ele>2513.3</ele>
        <time>2020-06-28T10:30:51Z</time>
      </trkpt>
      <trkpt lat="42.860845" lon="-0.200774">
        <ele>2508.7</ele>
        <time>2020-06-28T10:31:19Z</time>
      </trkpt>
      <trkpt lat="42.860834" lon="-0.200877">
        <ele>2505.1</ele>
        <time>2020-06-28T10:31:41Z</time>
      </trkpt>
      <trkpt lat="42.860789" lon="-0.200933">
        <ele>2501.4</ele>
        <time>2020-06-28T10:32:19Z</time>
      </trkpt>
      <trkpt lat="42.860699" lon="-0.200930">
        <ele>2497.1</ele>
        <time>2020-06-28T10:32:47Z</time>
      </trkpt>
      <trkpt lat="42.860624" lon="-0.200994">
        <ele>2492.7</ele>
        <time>2020-06-28T10:33:12Z</time>
      </trkpt>
      <trkpt lat="42.860551" lon="-0.201064">
        <ele>2487.7</ele>
        <time>2020-06-28T10:33:34Z</time>
      </trkpt>
      <trkpt lat="42.860481" lon="-0.201139">
        <ele>2482.4</ele>
        <time>2020-06-28T10:33:59Z</time>
      </trkpt>
      <trkpt lat="42.860395" lon="-0.201208">
        <ele>2478.7</ele>
        <time>2020-06-28T10:34:17Z</time>
      </trkpt>
      <trkpt lat="42.860339" lon="-0.201308">
        <ele>2473.7</ele>
        <time>2020-06-28T10:34:41Z</time>
      </trkpt>
      <trkpt lat="42.860291" lon="-0.201311">
        <ele>2471.9</ele>
        <time>2020-06-28T10:35:05Z</time>
      </trkpt>
      <trkpt lat="42.860240" lon="-0.201466">
        <ele>2471.2</ele>
        <time>2020-06-28T10:35:19Z</time>
      </trkpt>
      <trkpt lat="42.860242" lon="-0.201604">
        <ele>2471.3</ele>
        <time>2020-06-28T10:35:30Z</time>
      </trkpt>
      <trkpt lat="42.860202" lon="-0.201686">
        <ele>2469.6</ele>
        <time>2020-06-28T10:35:42Z</time>
      </trkpt>
      <trkpt lat="42.860201" lon="-0.201682">
        <ele>2466.3</ele>
        <time>2020-06-28T10:37:17Z</time>
      </trkpt>
      <trkpt lat="42.860156" lon="-0.201725">
        <ele>2465.2</ele>
        <time>2020-06-28T10:38:16Z</time>
      </trkpt>
      <trkpt lat="42.860110" lon="-0.201781">
        <ele>2460.2</ele>
        <time>2020-06-28T10:38:34Z</time>
      </trkpt>
      <trkpt lat="42.860034" lon="-0.201836">
        <ele>2456.9</ele>
        <time>2020-06-28T10:38:48Z</time>
      </trkpt>
      <trkpt lat="42.859964" lon="-0.201840">
        <ele>2454.3</ele>
        <time>2020-06-28T10:39:15Z</time>
      </trkpt>
      <trkpt lat="42.859904" lon="-0.201938">
        <ele>2451.3</ele>
        <time>2020-06-28T10:39:37Z</time>
      </trkpt>
      <trkpt lat="42.859826" lon="-0.201942">
        <ele>2448.1</ele>
        <time>2020-06-28T10:40:18Z</time>
      </trkpt>
      <trkpt lat="42.859763" lon="-0.202044">
        <ele>2446.4</ele>
        <time>2020-06-28T10:40:31Z</time>
      </trkpt>
      <trkpt lat="42.859723" lon="-0.202151">
        <ele>2443.5</ele>
        <time>2020-06-28T10:40:54Z</time>
      </trkpt>
      <trkpt lat="42.859637" lon="-0.202132">
        <ele>2439.2</ele>
        <time>2020-06-28T10:41:15Z</time>
      </trkpt>
      <trkpt lat="42.859571" lon="-0.202203">
        <ele>2435.6</ele>
        <time>2020-06-28T10:41:31Z</time>
      </trkpt>
      <trkpt lat="42.859537" lon="-0.202322">
        <ele>2434.0</ele>
        <time>2020-06-28T10:41:55Z</time>
      </trkpt>
      <trkpt lat="42.859486" lon="-0.202429">
        <ele>2432.1</ele>
        <time>2020-06-28T10:42:10Z</time>
      </trkpt>
      <trkpt lat="42.859420" lon="-0.202453">
        <ele>2427.9</ele>
        <time>2020-06-28T10:42:28Z</time>
      </trkpt>
      <trkpt lat="42.859396" lon="-0.202513">
        <ele>2423.9</ele>
        <time>2020-06-28T10:44:02Z</time>
      </trkpt>
      <trkpt lat="42.859385" lon="-0.202551">
        <ele>2422.8</ele>
        <time>2020-06-28T10:45:40Z</time>
      </trkpt>
      <trkpt lat="42.859323" lon="-0.202601">
        <ele>2419.4</ele>
        <time>2020-06-28T10:46:00Z</time>
      </trkpt>
      <trkpt lat="42.859250" lon="-0.202549">
        <ele>2414.7</ele>
        <time>2020-06-28T10:46:18Z</time>
      </trkpt>
      <trkpt lat="42.859170" lon="-0.202516">
        <ele>2410.3</ele>
        <time>2020-06-28T10:46:40Z</time>
      </trkpt>
      <trkpt lat="42.859114" lon="-0.202616">
        <ele>2407.9</ele>
        <time>2020-06-28T10:46:53Z</time>
      </trkpt>
      <trkpt lat="42.859072" lon="-0.202727">
        <ele>2406.2</ele>
        <time>2020-06-28T10:47:06Z</time>
      </trkpt>
      <trkpt lat="42.859047" lon="-0.202853">
        <ele>2405.5</ele>
        <time>2020-06-28T10:47:19Z</time>
      </trkpt>
      <trkpt lat="42.859030" lon="-0.202963">
        <ele>2404.6</ele>
        <time>2020-06-28T10:47:34Z</time>
      </trkpt>
      <trkpt lat="42.858953" lon="-0.202972">
        <ele>2405.1</ele>
        <time>2020-06-28T10:47:57Z</time>
      </trkpt>
      <trkpt lat="42.858878" lon="-0.202967">
        <ele>2402.6</ele>
        <time>2020-06-28T10:49:03Z</time>
      </trkpt>
      <trkpt lat="42.858797" lon="-0.202965">
        <ele>2401.7</ele>
        <time>2020-06-28T10:49:18Z</time>
      </trkpt>
      <trkpt lat="42.858713" lon="-0.202989">
        <ele>2400.1</ele>
        <time>2020-06-28T10:49:36Z</time>
      </trkpt>
      <trkpt lat="42.858622" lon="-0.202985">
        <ele>2398.4</ele>
        <time>2020-06-28T10:49:53Z</time>
      </trkpt>
      <trkpt lat="42.858568" lon="-0.203083">
        <ele>2397.1</ele>
        <time>2020-06-28T10:50:14Z</time>
      </trkpt>
      <trkpt lat="42.858540" lon="-0.203207">
        <ele>2397.1</ele>
        <time>2020-06-28T10:50:29Z</time>
      </trkpt>
      <trkpt lat="42.858495" lon="-0.203339">
        <ele>2396.0</ele>
        <time>2020-06-28T10:50:45Z</time>
      </trkpt>
      <trkpt lat="42.858431" lon="-0.203438">
        <ele>2395.2</ele>
        <time>2020-06-28T10:51:02Z</time>
      </trkpt>
      <trkpt lat="42.858360" lon="-0.203542">
        <ele>2395.2</ele>
        <time>2020-06-28T10:51:20Z</time>
      </trkpt>
      <trkpt lat="42.858287" lon="-0.203628">
        <ele>2395.1</ele>
        <time>2020-06-28T10:51:35Z</time>
      </trkpt>
      <trkpt lat="42.858193" lon="-0.203676">
        <ele>2395.1</ele>
        <time>2020-06-28T10:51:49Z</time>
      </trkpt>
      <trkpt lat="42.858109" lon="-0.203714">
        <ele>2395.0</ele>
        <time>2020-06-28T10:52:03Z</time>
      </trkpt>
      <trkpt lat="42.858094" lon="-0.203693">
        <ele>2394.9</ele>
        <time>2020-06-28T10:53:14Z</time>
      </trkpt>
      <trkpt lat="42.858031" lon="-0.203768">
        <ele>2393.1</ele>
        <time>2020-06-28T10:53:33Z</time>
      </trkpt>
      <trkpt lat="42.858047" lon="-0.203900">
        <ele>2392.3</ele>
        <time>2020-06-28T10:53:47Z</time>
      </trkpt>
      <trkpt lat="42.858070" lon="-0.204023">
        <ele>2389.6</ele>
        <time>2020-06-28T10:54:04Z</time>
      </trkpt>
      <trkpt lat="42.858040" lon="-0.204081">
        <ele>2386.7</ele>
        <time>2020-06-28T10:54:39Z</time>
      </trkpt>
      <trkpt lat="42.858056" lon="-0.204193">
        <ele>2383.8</ele>
        <time>2020-06-28T10:54:58Z</time>
      </trkpt>
      <trkpt lat="42.858000" lon="-0.204232">
        <ele>2379.9</ele>
        <time>2020-06-28T10:55:17Z</time>
      </trkpt>
      <trkpt lat="42.857906" lon="-0.204286">
        <ele>2376.4</ele>
        <time>2020-06-28T10:55:33Z</time>
      </trkpt>
      <trkpt lat="42.857874" lon="-0.204381">
        <ele>2375.0</ele>
        <time>2020-06-28T10:56:08Z</time>
      </trkpt>
      <trkpt lat="42.857896" lon="-0.204509">
        <ele>2371.3</ele>
        <time>2020-06-28T10:56:23Z</time>
      </trkpt>
      <trkpt lat="42.857832" lon="-0.204582">
        <ele>2369.5</ele>
        <time>2020-06-28T10:56:36Z</time>
      </trkpt>
      <trkpt lat="42.857773" lon="-0.204669">
        <ele>2368.4</ele>
        <time>2020-06-28T10:56:48Z</time>
      </trkpt>
      <trkpt lat="42.857689" lon="-0.204730">
        <ele>2368.4</ele>
        <time>2020-06-28T10:57:00Z</time>
      </trkpt>
      <trkpt lat="42.857609" lon="-0.204801">
        <ele>2368.4</ele>
        <time>2020-06-28T10:57:12Z</time>
      </trkpt>
      <trkpt lat="42.857520" lon="-0.204849">
        <ele>2370.6</ele>
        <time>2020-06-28T10:57:34Z</time>
      </trkpt>
      <trkpt lat="42.857445" lon="-0.204936">
        <ele>2370.4</ele>
        <time>2020-06-28T10:58:04Z</time>
      </trkpt>
      <trkpt lat="42.857370" lon="-0.205015">
        <ele>2372.9</ele>
        <time>2020-06-28T10:58:19Z</time>
      </trkpt>
      <trkpt lat="42.857316" lon="-0.205124">
        <ele>2372.8</ele>
        <time>2020-06-28T10:58:38Z</time>
      </trkpt>
      <trkpt lat="42.857251" lon="-0.205217">
        <ele>2372.7</ele>
        <time>2020-06-28T10:58:52Z</time>
      </trkpt>
      <trkpt lat="42.857179" lon="-0.205285">
        <ele>2372.7</ele>
        <time>2020-06-28T10:59:04Z</time>
      </trkpt>
      <trkpt lat="42.857107" lon="-0.205381">
        <ele>2372.6</ele>
        <time>2020-06-28T10:59:16Z</time>
      </trkpt>
      <trkpt lat="42.857052" lon="-0.205502">
        <ele>2372.6</ele>
        <time>2020-06-28T10:59:28Z</time>
      </trkpt>
      <trkpt lat="42.857019" lon="-0.205620">
        <ele>2370.2</ele>
        <time>2020-06-28T10:59:43Z</time>
      </trkpt>
      <trkpt lat="42.856953" lon="-0.205727">
        <ele>2370.2</ele>
        <time>2020-06-28T11:00:01Z</time>
      </trkpt>
      <trkpt lat="42.856959" lon="-0.205821">
        <ele>2369.2</ele>
        <time>2020-06-28T11:00:38Z</time>
      </trkpt>
      <trkpt lat="42.856908" lon="-0.205885">
        <ele>2366.1</ele>
        <time>2020-06-28T11:01:14Z</time>
      </trkpt>
      <trkpt lat="42.856843" lon="-0.205957">
        <ele>2364.5</ele>
        <time>2020-06-28T11:01:40Z</time>
      </trkpt>
      <trkpt lat="42.856778" lon="-0.205987">
        <ele>2362.9</ele>
        <time>2020-06-28T11:02:05Z</time>
      </trkpt>
      <trkpt lat="42.856742" lon="-0.206077">
        <ele>2360.1</ele>
        <time>2020-06-28T11:02:30Z</time>
      </trkpt>
      <trkpt lat="42.856680" lon="-0.206166">
        <ele>2358.5</ele>
        <time>2020-06-28T11:02:48Z</time>
      </trkpt>
      <trkpt lat="42.856597" lon="-0.206224">
        <ele>2358.5</ele>
        <time>2020-06-28T11:03:07Z</time>
      </trkpt>
      <trkpt lat="42.856565" lon="-0.206344">
        <ele>2355.8</ele>
        <time>2020-06-28T11:03:22Z</time>
      </trkpt>
      <trkpt lat="42.856511" lon="-0.206453">
        <ele>2353.3</ele>
        <time>2020-06-28T11:03:40Z</time>
      </trkpt>
      <trkpt lat="42.856435" lon="-0.206537">
        <ele>2350.4</ele>
        <time>2020-06-28T11:03:59Z</time>
      </trkpt>
      <trkpt lat="42.856372" lon="-0.206575">
        <ele>2349.6</ele>
        <time>2020-06-28T11:04:56Z</time>
      </trkpt>
      <trkpt lat="42.856390" lon="-0.206670">
        <ele>2347.2</ele>
        <time>2020-06-28T11:05:14Z</time>
      </trkpt>
      <trkpt lat="42.856392" lon="-0.206807">
        <ele>2346.2</ele>
        <time>2020-06-28T11:05:28Z</time>
      </trkpt>
      <trkpt lat="42.856383" lon="-0.206911">
        <ele>2345.3</ele>
        <time>2020-06-28T11:05:43Z</time>
      </trkpt>
      <trkpt lat="42.856299" lon="-0.206942">
        <ele>2342.4</ele>
        <time>2020-06-28T11:06:01Z</time>
      </trkpt>
      <trkpt lat="42.856306" lon="-0.207068">
        <ele>2339.8</ele>
        <time>2020-06-28T11:06:21Z</time>
      </trkpt>
      <trkpt lat="42.856315" lon="-0.207169">
        <ele>2337.1</ele>
        <time>2020-06-28T11:06:39Z</time>
      </trkpt>
      <trkpt lat="42.856339" lon="-0.207298">
        <ele>2333.3</ele>
        <time>2020-06-28T11:07:01Z</time>
      </trkpt>
      <trkpt lat="42.856363" lon="-0.207423">
        <ele>2333.3</ele>
        <time>2020-06-28T11:07:12Z</time>
      </trkpt>
      <trkpt lat="42.856435" lon="-0.207544">
        <ele>2333.2</ele>
        <time>2020-06-28T11:07:26Z</time>
      </trkpt>
      <trkpt lat="42.856501" lon="-0.207660">
        <ele>2333.2</ele>
        <time>2020-06-28T11:07:42Z</time>
      </trkpt>
      <trkpt lat="42.856592" lon="-0.207729">
        <ele>2333.2</ele>
        <time>2020-06-28T11:08:13Z</time>
      </trkpt>
      <trkpt lat="42.856645" lon="-0.207826">
        <ele>2332.5</ele>
        <time>2020-06-28T11:08:35Z</time>
      </trkpt>
      <trkpt lat="42.856676" lon="-0.207948">
        <ele>2330.9</ele>
        <time>2020-06-28T11:08:48Z</time>
      </trkpt>
      <trkpt lat="42.856693" lon="-0.208080">
        <ele>2330.1</ele>
        <time>2020-06-28T11:09:00Z</time>
      </trkpt>
      <trkpt lat="42.856755" lon="-0.208199">
        <ele>2330.1</ele>
        <time>2020-06-28T11:09:13Z</time>
      </trkpt>
      <trkpt lat="42.856833" lon="-0.208309">
        <ele>2330.1</ele>
        <time>2020-06-28T11:09:26Z</time>
      </trkpt>
      <trkpt lat="42.856924" lon="-0.208377">
        <ele>2330.1</ele>
        <time>2020-06-28T11:09:38Z</time>
      </trkpt>
      <trkpt lat="42.857006" lon="-0.208416">
        <ele>2329.3</ele>
        <time>2020-06-28T11:09:52Z</time>
      </trkpt>
      <trkpt lat="42.857079" lon="-0.208493">
        <ele>2329.3</ele>
        <time>2020-06-28T11:10:10Z</time>
      </trkpt>
      <trkpt lat="42.857180" lon="-0.208546">
        <ele>2327.0</ele>
        <time>2020-06-28T11:10:29Z</time>
      </trkpt>
      <trkpt lat="42.857186" lon="-0.208672">
        <ele>2329.4</ele>
        <time>2020-06-28T11:10:41Z</time>
      </trkpt>
      <trkpt lat="42.857229" lon="-0.208807">
        <ele>2329.3</ele>
        <time>2020-06-28T11:10:56Z</time>
      </trkpt>
      <trkpt lat="42.857323" lon="-0.208868">
        <ele>2327.0</ele>
        <time>2020-06-28T11:11:10Z</time>
      </trkpt>
      <trkpt lat="42.857433" lon="-0.208895">
        <ele>2327.0</ele>
        <time>2020-06-28T11:11:24Z</time>
      </trkpt>
      <trkpt lat="42.857534" lon="-0.208944">
        <ele>2326.9</ele>
        <time>2020-06-28T11:11:37Z</time>
      </trkpt>
      <trkpt lat="42.857647" lon="-0.209000">
        <ele>2326.1</ele>
        <time>2020-06-28T11:11:57Z</time>
      </trkpt>
      <trkpt lat="42.857775" lon="-0.209018">
        <ele>2323.9</ele>
        <time>2020-06-28T11:12:11Z</time>
      </trkpt>
      <trkpt lat="42.857891" lon="-0.208988">
        <ele>2323.1</ele>
        <time>2020-06-28T11:12:27Z</time>
      </trkpt>
      <trkpt lat="42.857977" lon="-0.209064">
        <ele>2321.6</ele>
        <time>2020-06-28T11:13:04Z</time>
      </trkpt>
      <trkpt lat="42.858090" lon="-0.209155">
        <ele>2324.7</ele>
        <time>2020-06-28T11:13:22Z</time>
      </trkpt>
      <trkpt lat="42.858205" lon="-0.209127">
        <ele>2328.4</ele>
        <time>2020-06-28T11:13:42Z</time>
      </trkpt>
      <trkpt lat="42.858310" lon="-0.209147">
        <ele>2328.2</ele>
        <time>2020-06-28T11:14:05Z</time>
      </trkpt>
      <trkpt lat="42.858355" lon="-0.209188">
        <ele>2328.1</ele>
        <time>2020-06-28T11:14:49Z</time>
      </trkpt>
      <trkpt lat="42.858461" lon="-0.209243">
        <ele>2324.6</ele>
        <time>2020-06-28T11:15:03Z</time>
      </trkpt>
      <trkpt lat="42.858549" lon="-0.209314">
        <ele>2323.8</ele>
        <time>2020-06-28T11:15:14Z</time>
      </trkpt>
      <trkpt lat="42.858650" lon="-0.209373">
        <ele>2319.6</ele>
        <time>2020-06-28T11:15:28Z</time>
      </trkpt>
      <trkpt lat="42.858716" lon="-0.209448">
        <ele>2316.0</ele>
        <time>2020-06-28T11:15:48Z</time>
      </trkpt>
      <trkpt lat="42.858764" lon="-0.209540">
        <ele>2312.3</ele>
        <time>2020-06-28T11:16:05Z</time>
      </trkpt>
      <trkpt lat="42.858780" lon="-0.209651">
        <ele>2308.4</ele>
        <time>2020-06-28T11:16:20Z</time>
      </trkpt>
      <trkpt lat="42.858783" lon="-0.209763">
        <ele>2305.6</ele>
        <time>2020-06-28T11:16:56Z</time>
      </trkpt>
      <trkpt lat="42.858773" lon="-0.209888">
        <ele>2302.0</ele>
        <time>2020-06-28T11:17:10Z</time>
      </trkpt>
      <trkpt lat="42.858781" lon="-0.210002">
        <ele>2299.4</ele>
        <time>2020-06-28T11:17:26Z</time>
      </trkpt>
      <trkpt lat="42.858772" lon="-0.210108">
        <ele>2295.6</ele>
        <time>2020-06-28T11:17:40Z</time>
      </trkpt>
      <trkpt lat="42.858752" lon="-0.210239">
        <ele>2291.3</ele>
        <time>2020-06-28T11:17:54Z</time>
      </trkpt>
      <trkpt lat="42.858839" lon="-0.210284">
        <ele>2286.1</ele>
        <time>2020-06-28T11:18:15Z</time>
      </trkpt>
      <trkpt lat="42.858926" lon="-0.210319">
        <ele>2280.1</ele>
        <time>2020-06-28T11:18:39Z</time>
      </trkpt>
      <trkpt lat="42.859055" lon="-0.210302">
        <ele>2275.9</ele>
        <time>2020-06-28T11:18:52Z</time>
      </trkpt>
      <trkpt lat="42.859181" lon="-0.210285">
        <ele>2272.3</ele>
        <time>2020-06-28T11:19:09Z</time>
      </trkpt>
      <trkpt lat="42.859263" lon="-0.210300">
        <ele>2267.6</ele>
        <time>2020-06-28T11:19:26Z</time>
      </trkpt>
      <trkpt lat="42.859336" lon="-0.210392">
        <ele>2262.9</ele>
        <time>2020-06-28T11:19:46Z</time>
      </trkpt>
      <trkpt lat="42.859453" lon="-0.210420">
        <ele>2258.1</ele>
        <time>2020-06-28T11:20:03Z</time>
      </trkpt>
      <trkpt lat="42.859579" lon="-0.210477">
        <ele>2253.8</ele>
        <time>2020-06-28T11:20:19Z</time>
      </trkpt>
      <trkpt lat="42.859693" lon="-0.210527">
        <ele>2251.1</ele>
        <time>2020-06-28T11:20:36Z</time>
      </trkpt>
      <trkpt lat="42.859786" lon="-0.210583">
        <ele>2250.2</ele>
        <time>2020-06-28T11:21:18Z</time>
      </trkpt>
      <trkpt lat="42.859825" lon="-0.210672">
        <ele>2245.7</ele>
        <time>2020-06-28T11:21:37Z</time>
      </trkpt>
      <trkpt lat="42.859815" lon="-0.210784">
        <ele>2241.8</ele>
        <time>2020-06-28T11:21:52Z</time>
      </trkpt>
      <trkpt lat="42.859880" lon="-0.210904">
        <ele>2237.3</ele>
        <time>2020-06-28T11:22:06Z</time>
      </trkpt>
      <trkpt lat="42.859950" lon="-0.211007">
        <ele>2233.6</ele>
        <time>2020-06-28T11:22:22Z</time>
      </trkpt>
      <trkpt lat="42.859994" lon="-0.211123">
        <ele>2231.8</ele>
        <time>2020-06-28T11:23:01Z</time>
      </trkpt>
      <trkpt lat="42.860006" lon="-0.211222">
        <ele>2229.3</ele>
        <time>2020-06-28T11:23:47Z</time>
      </trkpt>
      <trkpt lat="42.860062" lon="-0.211310">
        <ele>2226.3</ele>
        <time>2020-06-28T11:24:19Z</time>
      </trkpt>
      <trkpt lat="42.860150" lon="-0.211430">
        <ele>2221.7</ele>
        <time>2020-06-28T11:24:35Z</time>
      </trkpt>
      <trkpt lat="42.860269" lon="-0.211533">
        <ele>2217.3</ele>
        <time>2020-06-28T11:24:50Z</time>
      </trkpt>
      <trkpt lat="42.860234" lon="-0.211597">
        <ele>2213.1</ele>
        <time>2020-06-28T11:25:03Z</time>
      </trkpt>
      <trkpt lat="42.860274" lon="-0.211730">
        <ele>2208.6</ele>
        <time>2020-06-28T11:25:22Z</time>
      </trkpt>
      <trkpt lat="42.860316" lon="-0.211792">
        <ele>2204.4</ele>
        <time>2020-06-28T11:25:38Z</time>
      </trkpt>
      <trkpt lat="42.860256" lon="-0.211898">
        <ele>2199.3</ele>
        <time>2020-06-28T11:25:58Z</time>
      </trkpt>
      <trkpt lat="42.860271" lon="-0.212019">
        <ele>2193.8</ele>
        <time>2020-06-28T11:26:17Z</time>
      </trkpt>
      <trkpt lat="42.860366" lon="-0.212132">
        <ele>2191.2</ele>
        <time>2020-06-28T11:26:31Z</time>
      </trkpt>
      <trkpt lat="42.860400" lon="-0.212274">
        <ele>2187.5</ele>
        <time>2020-06-28T11:26:48Z</time>
      </trkpt>
      <trkpt lat="42.860419" lon="-0.212418">
        <ele>2184.8</ele>
        <time>2020-06-28T11:27:02Z</time>
      </trkpt>
      <trkpt lat="42.860409" lon="-0.212552">
        <ele>2180.4</ele>
        <time>2020-06-28T11:27:16Z</time>
      </trkpt>
      <trkpt lat="42.860358" lon="-0.212655">
        <ele>2177.2</ele>
        <time>2020-06-28T11:27:30Z</time>
      </trkpt>
      <trkpt lat="42.860325" lon="-0.212739">
        <ele>2173.0</ele>
        <time>2020-06-28T11:27:48Z</time>
      </trkpt>
      <trkpt lat="42.860244" lon="-0.212721">
        <ele>2169.4</ele>
        <time>2020-06-28T11:28:00Z</time>
      </trkpt>
      <trkpt lat="42.860234" lon="-0.212842">
        <ele>2166.6</ele>
        <time>2020-06-28T11:28:16Z</time>
      </trkpt>
      <trkpt lat="42.860210" lon="-0.212878">
        <ele>2161.8</ele>
        <time>2020-06-28T11:28:33Z</time>
      </trkpt>
      <trkpt lat="42.860179" lon="-0.212967">
        <ele>2157.2</ele>
        <time>2020-06-28T11:28:53Z</time>
      </trkpt>
      <trkpt lat="42.860207" lon="-0.213113">
        <ele>2151.9</ele>
        <time>2020-06-28T11:29:10Z</time>
      </trkpt>
      <trkpt lat="42.860115" lon="-0.213078">
        <ele>2150.0</ele>
        <time>2020-06-28T11:29:23Z</time>
      </trkpt>
      <trkpt lat="42.860038" lon="-0.213000">
        <ele>2146.9</ele>
        <time>2020-06-28T11:29:36Z</time>
      </trkpt>
      <trkpt lat="42.859964" lon="-0.213044">
        <ele>2143.4</ele>
        <time>2020-06-28T11:29:49Z</time>
      </trkpt>
      <trkpt lat="42.859958" lon="-0.213178">
        <ele>2140.6</ele>
        <time>2020-06-28T11:30:00Z</time>
      </trkpt>
      <trkpt lat="42.859873" lon="-0.213248">
        <ele>2137.0</ele>
        <time>2020-06-28T11:30:16Z</time>
      </trkpt>
      <trkpt lat="42.859824" lon="-0.213268">
        <ele>2132.4</ele>
        <time>2020-06-28T11:30:33Z</time>
      </trkpt>
      <trkpt lat="42.859821" lon="-0.213301">
        <ele>2127.7</ele>
        <time>2020-06-28T11:30:56Z</time>
      </trkpt>
      <trkpt lat="42.859719" lon="-0.213346">
        <ele>2122.4</ele>
        <time>2020-06-28T11:31:16Z</time>
      </trkpt>
      <trkpt lat="42.859602" lon="-0.213477">
        <ele>2119.9</ele>
        <time>2020-06-28T11:31:31Z</time>
      </trkpt>
      <trkpt lat="42.859583" lon="-0.213599">
        <ele>2115.4</ele>
        <time>2020-06-28T11:31:49Z</time>
      </trkpt>
      <trkpt lat="42.859489" lon="-0.213693">
        <ele>2112.6</ele>
        <time>2020-06-28T11:32:02Z</time>
      </trkpt>
      <trkpt lat="42.859411" lon="-0.213775">
        <ele>2109.8</ele>
        <time>2020-06-28T11:32:19Z</time>
      </trkpt>
      <trkpt lat="42.859361" lon="-0.213878">
        <ele>2108.5</ele>
        <time>2020-06-28T11:32:34Z</time>
      </trkpt>
      <trkpt lat="42.859397" lon="-0.213992">
        <ele>2106.0</ele>
        <time>2020-06-28T11:32:49Z</time>
      </trkpt>
      <trkpt lat="42.859480" lon="-0.214036">
        <ele>2101.5</ele>
        <time>2020-06-28T11:33:07Z</time>
      </trkpt>
      <trkpt lat="42.859509" lon="-0.214160">
        <ele>2097.9</ele>
        <time>2020-06-28T11:33:22Z</time>
      </trkpt>
      <trkpt lat="42.859542" lon="-0.214278">
        <ele>2094.4</ele>
        <time>2020-06-28T11:33:39Z</time>
      </trkpt>
      <trkpt lat="42.859606" lon="-0.214297">
        <ele>2092.0</ele>
        <time>2020-06-28T11:33:56Z</time>
      </trkpt>
      <trkpt lat="42.859627" lon="-0.214416">
        <ele>2088.1</ele>
        <time>2020-06-28T11:34:11Z</time>
      </trkpt>
      <trkpt lat="42.859662" lon="-0.214548">
        <ele>2083.4</ele>
        <time>2020-06-28T11:34:28Z</time>
      </trkpt>
      <trkpt lat="42.859681" lon="-0.214609">
        <ele>2082.2</ele>
        <time>2020-06-28T11:35:25Z</time>
      </trkpt>
      <trkpt lat="42.859687" lon="-0.214716">
        <ele>2079.1</ele>
        <time>2020-06-28T11:36:44Z</time>
      </trkpt>
      <trkpt lat="42.859694" lon="-0.214803">
        <ele>2075.8</ele>
        <time>2020-06-28T11:37:28Z</time>
      </trkpt>
      <trkpt lat="42.859648" lon="-0.214941">
        <ele>2073.0</ele>
        <time>2020-06-28T11:37:40Z</time>
      </trkpt>
      <trkpt lat="42.859609" lon="-0.215081">
        <ele>2068.5</ele>
        <time>2020-06-28T11:37:57Z</time>
      </trkpt>
      <trkpt lat="42.859539" lon="-0.215197">
        <ele>2064.6</ele>
        <time>2020-06-28T11:38:11Z</time>
      </trkpt>
      <trkpt lat="42.859531" lon="-0.215296">
        <ele>2060.9</ele>
        <time>2020-06-28T11:38:24Z</time>
      </trkpt>
      <trkpt lat="42.859565" lon="-0.215410">
        <ele>2053.3</ele>
        <time>2020-06-28T11:38:57Z</time>
      </trkpt>
      <trkpt lat="42.859541" lon="-0.215540">
        <ele>2048.8</ele>
        <time>2020-06-28T11:39:12Z</time>
      </trkpt>
      <trkpt lat="42.859481" lon="-0.215724">
        <ele>2046.9</ele>
        <time>2020-06-28T11:39:31Z</time>
      </trkpt>
      <trkpt lat="42.859471" lon="-0.215892">
        <ele>2044.3</ele>
        <time>2020-06-28T11:39:45Z</time>
      </trkpt>
      <trkpt lat="42.859451" lon="-0.216016">
        <ele>2044.1</ele>
        <time>2020-06-28T11:40:01Z</time>
      </trkpt>
      <trkpt lat="42.859485" lon="-0.216123">
        <ele>2041.5</ele>
        <time>2020-06-28T11:40:21Z</time>
      </trkpt>
      <trkpt lat="42.859485" lon="-0.216236">
        <ele>2039.6</ele>
        <time>2020-06-28T11:40:34Z</time>
      </trkpt>
      <trkpt lat="42.859504" lon="-0.216372">
        <ele>2036.9</ele>
        <time>2020-06-28T11:40:48Z</time>
      </trkpt>
      <trkpt lat="42.859524" lon="-0.216528">
        <ele>2035.9</ele>
        <time>2020-06-28T11:41:00Z</time>
      </trkpt>
      <trkpt lat="42.859541" lon="-0.216685">
        <ele>2035.0</ele>
        <time>2020-06-28T11:41:10Z</time>
      </trkpt>
      <trkpt lat="42.859564" lon="-0.216839">
        <ele>2034.2</ele>
        <time>2020-06-28T11:41:19Z</time>
      </trkpt>
      <trkpt lat="42.859527" lon="-0.216980">
        <ele>2032.2</ele>
        <time>2020-06-28T11:41:28Z</time>
      </trkpt>
      <trkpt lat="42.859535" lon="-0.217143">
        <ele>2032.1</ele>
        <time>2020-06-28T11:41:39Z</time>
      </trkpt>
      <trkpt lat="42.859539" lon="-0.217288">
        <ele>2031.1</ele>
        <time>2020-06-28T11:41:49Z</time>
      </trkpt>
      <trkpt lat="42.859538" lon="-0.217445">
        <ele>2030.3</ele>
        <time>2020-06-28T11:41:58Z</time>
      </trkpt>
      <trkpt lat="42.859576" lon="-0.217594">
        <ele>2030.2</ele>
        <time>2020-06-28T11:42:08Z</time>
      </trkpt>
      <trkpt lat="42.859628" lon="-0.217709">
        <ele>2030.1</ele>
        <time>2020-06-28T11:42:27Z</time>
      </trkpt>
      <trkpt lat="42.859672" lon="-0.217828">
        <ele>2028.2</ele>
        <time>2020-06-28T11:42:42Z</time>
      </trkpt>
      <trkpt lat="42.859786" lon="-0.217896">
        <ele>2025.4</ele>
        <time>2020-06-28T11:42:56Z</time>
      </trkpt>
      <trkpt lat="42.859857" lon="-0.217986">
        <ele>2023.7</ele>
        <time>2020-06-28T11:43:04Z</time>
      </trkpt>
      <trkpt lat="42.859891" lon="-0.218102">
        <ele>2023.7</ele>
        <time>2020-06-28T11:43:13Z</time>
      </trkpt>
      <trkpt lat="42.859904" lon="-0.218210">
        <ele>2022.6</ele>
        <time>2020-06-28T11:43:46Z</time>
      </trkpt>
      <trkpt lat="42.859904" lon="-0.218368">
        <ele>2021.7</ele>
        <time>2020-06-28T11:43:58Z</time>
      </trkpt>
      <trkpt lat="42.859941" lon="-0.218523">
        <ele>2020.8</ele>
        <time>2020-06-28T11:44:10Z</time>
      </trkpt>
      <trkpt lat="42.859970" lon="-0.218680">
        <ele>2018.1</ele>
        <time>2020-06-28T11:44:24Z</time>
      </trkpt>
      <trkpt lat="42.860008" lon="-0.218825">
        <ele>2015.5</ele>
        <time>2020-06-28T11:44:37Z</time>
      </trkpt>
      <trkpt lat="42.860090" lon="-0.218938">
        <ele>2011.7</ele>
        <time>2020-06-28T11:44:51Z</time>
      </trkpt>
      <trkpt lat="42.860101" lon="-0.219041">
        <ele>2010.5</ele>
        <time>2020-06-28T11:45:10Z</time>
      </trkpt>
      <trkpt lat="42.860021" lon="-0.219121">
        <ele>2006.8</ele>
        <time>2020-06-28T11:45:28Z</time>
      </trkpt>
      <trkpt lat="42.859896" lon="-0.219182">
        <ele>2002.4</ele>
        <time>2020-06-28T11:45:46Z</time>
      </trkpt>
      <trkpt lat="42.859882" lon="-0.219275">
        <ele>1997.4</ele>
        <time>2020-06-28T11:46:04Z</time>
      </trkpt>
      <trkpt lat="42.859992" lon="-0.219403">
        <ele>1995.4</ele>
        <time>2020-06-28T11:46:20Z</time>
      </trkpt>
      <trkpt lat="42.859924" lon="-0.219458">
        <ele>1992.4</ele>
        <time>2020-06-28T11:46:46Z</time>
      </trkpt>
      <trkpt lat="42.859831" lon="-0.219497">
        <ele>1987.2</ele>
        <time>2020-06-28T11:47:03Z</time>
      </trkpt>
      <trkpt lat="42.859736" lon="-0.219453">
        <ele>1983.4</ele>
        <time>2020-06-28T11:47:16Z</time>
      </trkpt>
      <trkpt lat="42.859636" lon="-0.219461">
        <ele>1980.7</ele>
        <time>2020-06-28T11:47:30Z</time>
      </trkpt>
      <trkpt lat="42.859534" lon="-0.219604">
        <ele>1978.1</ele>
        <time>2020-06-28T11:47:43Z</time>
      </trkpt>
      <trkpt lat="42.859490" lon="-0.219658">
        <ele>1977.2</ele>
        <time>2020-06-28T11:48:07Z</time>
      </trkpt>
      <trkpt lat="42.859471" lon="-0.219783">
        <ele>1975.4</ele>
        <time>2020-06-28T11:48:59Z</time>
      </trkpt>
      <trkpt lat="42.859497" lon="-0.219728">
        <ele>1974.7</ele>
        <time>2020-06-28T11:50:51Z</time>
      </trkpt>
      <trkpt lat="42.859478" lon="-0.219867">
        <ele>1973.5</ele>
        <time>2020-06-28T11:51:03Z</time>
      </trkpt>
      <trkpt lat="42.859488" lon="-0.220015">
        <ele>1972.5</ele>
        <time>2020-06-28T11:51:14Z</time>
      </trkpt>
      <trkpt lat="42.859467" lon="-0.220177">
        <ele>1971.5</ele>
        <time>2020-06-28T11:51:26Z</time>
      </trkpt>
      <trkpt lat="42.859435" lon="-0.220325">
        <ele>1970.6</ele>
        <time>2020-06-28T11:51:37Z</time>
      </trkpt>
      <trkpt lat="42.859448" lon="-0.220475">
        <ele>1968.7</ele>
        <time>2020-06-28T11:51:50Z</time>
      </trkpt>
      <trkpt lat="42.859382" lon="-0.220624">
        <ele>1965.6</ele>
        <time>2020-06-28T11:52:06Z</time>
      </trkpt>
      <trkpt lat="42.859286" lon="-0.220640">
        <ele>1962.7</ele>
        <time>2020-06-28T11:52:14Z</time>
      </trkpt>
      <trkpt lat="42.859237" lon="-0.220776">
        <ele>1962.7</ele>
        <time>2020-06-28T11:52:24Z</time>
      </trkpt>
      <trkpt lat="42.859244" lon="-0.220908">
        <ele>1960.9</ele>
        <time>2020-06-28T11:52:33Z</time>
      </trkpt>
      <trkpt lat="42.859253" lon="-0.221051">
        <ele>1960.8</ele>
        <time>2020-06-28T11:52:43Z</time>
      </trkpt>
      <trkpt lat="42.859261" lon="-0.221195">
        <ele>1958.0</ele>
        <time>2020-06-28T11:52:53Z</time>
      </trkpt>
      <trkpt lat="42.859276" lon="-0.221344">
        <ele>1956.1</ele>
        <time>2020-06-28T11:53:05Z</time>
      </trkpt>
      <trkpt lat="42.859225" lon="-0.221465">
        <ele>1951.2</ele>
        <time>2020-06-28T11:53:17Z</time>
      </trkpt>
      <trkpt lat="42.859207" lon="-0.221616">
        <ele>1948.7</ele>
        <time>2020-06-28T11:53:28Z</time>
      </trkpt>
      <trkpt lat="42.859204" lon="-0.221766">
        <ele>1947.0</ele>
        <time>2020-06-28T11:53:39Z</time>
      </trkpt>
      <trkpt lat="42.859180" lon="-0.221923">
        <ele>1945.2</ele>
        <time>2020-06-28T11:53:49Z</time>
      </trkpt>
      <trkpt lat="42.859159" lon="-0.222057">
        <ele>1944.2</ele>
        <time>2020-06-28T11:54:04Z</time>
      </trkpt>
      <trkpt lat="42.859135" lon="-0.222161">
        <ele>1941.7</ele>
        <time>2020-06-28T11:54:18Z</time>
      </trkpt>
      <trkpt lat="42.859168" lon="-0.222275">
        <ele>1940.7</ele>
        <time>2020-06-28T11:54:46Z</time>
      </trkpt>
      <trkpt lat="42.859165" lon="-0.222407">
        <ele>1937.1</ele>
        <time>2020-06-28T11:54:56Z</time>
      </trkpt>
      <trkpt lat="42.859176" lon="-0.222540">
        <ele>1935.4</ele>
        <time>2020-06-28T11:55:06Z</time>
      </trkpt>
      <trkpt lat="42.859216" lon="-0.222662">
        <ele>1933.7</ele>
        <time>2020-06-28T11:55:15Z</time>
      </trkpt>
      <trkpt lat="42.859222" lon="-0.222779">
        <ele>1931.9</ele>
        <time>2020-06-28T11:55:26Z</time>
      </trkpt>
      <trkpt lat="42.859141" lon="-0.222856">
        <ele>1927.6</ele>
        <time>2020-06-28T11:55:41Z</time>
      </trkpt>
      <trkpt lat="42.859095" lon="-0.222925">
        <ele>1923.2</ele>
        <time>2020-06-28T11:55:56Z</time>
      </trkpt>
      <trkpt lat="42.859082" lon="-0.223016">
        <ele>1920.8</ele>
        <time>2020-06-28T11:56:09Z</time>
      </trkpt>
      <trkpt lat="42.859114" lon="-0.223132">
        <ele>1919.1</ele>
        <time>2020-06-28T11:56:23Z</time>
      </trkpt>
      <trkpt lat="42.859021" lon="-0.223097">
        <ele>1916.3</ele>
        <time>2020-06-28T11:56:36Z</time>
      </trkpt>
      <trkpt lat="42.858966" lon="-0.223123">
        <ele>1911.7</ele>
        <time>2020-06-28T11:56:50Z</time>
      </trkpt>
      <trkpt lat="42.858965" lon="-0.223262">
        <ele>1908.2</ele>
        <time>2020-06-28T11:57:02Z</time>
      </trkpt>
      <trkpt lat="42.859025" lon="-0.223382">
        <ele>1905.8</ele>
        <time>2020-06-28T11:57:14Z</time>
      </trkpt>
      <trkpt lat="42.859004" lon="-0.223489">
        <ele>1901.7</ele>
        <time>2020-06-28T11:57:28Z</time>
      </trkpt>
      <trkpt lat="42.858907" lon="-0.223464">
        <ele>1898.9</ele>
        <time>2020-06-28T11:57:40Z</time>
      </trkpt>
      <trkpt lat="42.858813" lon="-0.223519">
        <ele>1895.2</ele>
        <time>2020-06-28T11:59:21Z</time>
      </trkpt>
      <trkpt lat="42.858813" lon="-0.223654">
        <ele>1893.1</ele>
        <time>2020-06-28T11:59:38Z</time>
      </trkpt>
      <trkpt lat="42.858860" lon="-0.223785">
        <ele>1893.1</ele>
        <time>2020-06-28T11:59:50Z</time>
      </trkpt>
      <trkpt lat="42.858846" lon="-0.223864">
        <ele>1887.8</ele>
        <time>2020-06-28T12:00:02Z</time>
      </trkpt>
      <trkpt lat="42.858742" lon="-0.223863">
        <ele>1885.9</ele>
        <time>2020-06-28T12:00:14Z</time>
      </trkpt>
      <trkpt lat="42.858756" lon="-0.223990">
        <ele>1883.3</ele>
        <time>2020-06-28T12:00:26Z</time>
      </trkpt>
      <trkpt lat="42.858823" lon="-0.224079">
        <ele>1880.9</ele>
        <time>2020-06-28T12:00:35Z</time>
      </trkpt>
      <trkpt lat="42.858876" lon="-0.224208">
        <ele>1877.7</ele>
        <time>2020-06-28T12:00:48Z</time>
      </trkpt>
      <trkpt lat="42.858903" lon="-0.224335">
        <ele>1873.6</ele>
        <time>2020-06-28T12:00:59Z</time>
      </trkpt>
      <trkpt lat="42.858865" lon="-0.224450">
        <ele>1869.6</ele>
        <time>2020-06-28T12:01:10Z</time>
      </trkpt>
      <trkpt lat="42.858850" lon="-0.224572">
        <ele>1868.6</ele>
        <time>2020-06-28T12:01:20Z</time>
      </trkpt>
      <trkpt lat="42.858826" lon="-0.224692">
        <ele>1864.9</ele>
        <time>2020-06-28T12:01:31Z</time>
      </trkpt>
      <trkpt lat="42.858856" lon="-0.224817">
        <ele>1862.0</ele>
        <time>2020-06-28T12:01:42Z</time>
      </trkpt>
      <trkpt lat="42.858906" lon="-0.224925">
        <ele>1859.3</ele>
        <time>2020-06-28T12:01:52Z</time>
      </trkpt>
      <trkpt lat="42.858904" lon="-0.225046">
        <ele>1856.0</ele>
        <time>2020-06-28T12:02:05Z</time>
      </trkpt>
      <trkpt lat="42.858808" lon="-0.225066">
        <ele>1853.3</ele>
        <time>2020-06-28T12:02:16Z</time>
      </trkpt>
      <trkpt lat="42.858707" lon="-0.225068">
        <ele>1850.9</ele>
        <time>2020-06-28T12:02:27Z</time>
      </trkpt>
      <trkpt lat="42.858707" lon="-0.225194">
        <ele>1847.0</ele>
        <time>2020-06-28T12:02:39Z</time>
      </trkpt>
      <trkpt lat="42.858774" lon="-0.225309">
        <ele>1843.4</ele>
        <time>2020-06-28T12:02:50Z</time>
      </trkpt>
      <trkpt lat="42.858851" lon="-0.225399">
        <ele>1840.7</ele>
        <time>2020-06-28T12:03:01Z</time>
      </trkpt>
      <trkpt lat="42.858945" lon="-0.225490">
        <ele>1838.2</ele>
        <time>2020-06-28T12:03:14Z</time>
      </trkpt>
      <trkpt lat="42.858961" lon="-0.225612">
        <ele>1832.6</ele>
        <time>2020-06-28T12:03:35Z</time>
      </trkpt>
      <trkpt lat="42.859008" lon="-0.225723">
        <ele>1827.7</ele>
        <time>2020-06-28T12:03:53Z</time>
      </trkpt>
      <trkpt lat="42.858957" lon="-0.225779">
        <ele>1823.2</ele>
        <time>2020-06-28T12:04:15Z</time>
      </trkpt>
      <trkpt lat="42.858955" lon="-0.225879">
        <ele>1819.0</ele>
        <time>2020-06-28T12:04:33Z</time>
      </trkpt>
      <trkpt lat="42.858897" lon="-0.225943">
        <ele>1813.4</ele>
        <time>2020-06-28T12:04:54Z</time>
      </trkpt>
      <trkpt lat="42.858926" lon="-0.226103">
        <ele>1807.7</ele>
        <time>2020-06-28T12:05:14Z</time>
      </trkpt>
      <trkpt lat="42.858900" lon="-0.226178">
        <ele>1804.4</ele>
        <time>2020-06-28T12:05:29Z</time>
      </trkpt>
      <trkpt lat="42.858965" lon="-0.226326">
        <ele>1800.7</ele>
        <time>2020-06-28T12:05:45Z</time>
      </trkpt>
      <trkpt lat="42.858991" lon="-0.226416">
        <ele>1796.2</ele>
        <time>2020-06-28T12:06:02Z</time>
      </trkpt>
      <trkpt lat="42.859011" lon="-0.226530">
        <ele>1790.3</ele>
        <time>2020-06-28T12:06:23Z</time>
      </trkpt>
      <trkpt lat="42.859006" lon="-0.226671">
        <ele>1784.5</ele>
        <time>2020-06-28T12:06:41Z</time>
      </trkpt>
      <trkpt lat="42.858979" lon="-0.226686">
        <ele>1779.3</ele>
        <time>2020-06-28T12:07:03Z</time>
      </trkpt>
      <trkpt lat="42.858901" lon="-0.226701">
        <ele>1777.5</ele>
        <time>2020-06-28T12:07:31Z</time>
      </trkpt>
      <trkpt lat="42.858935" lon="-0.226758">
        <ele>1776.2</ele>
        <time>2020-06-28T12:08:13Z</time>
      </trkpt>
      <trkpt lat="42.859002" lon="-0.226913">
        <ele>1772.3</ele>
        <time>2020-06-28T12:08:28Z</time>
      </trkpt>
      <trkpt lat="42.859066" lon="-0.227027">
        <ele>1768.3</ele>
        <time>2020-06-28T12:08:52Z</time>
      </trkpt>
      <trkpt lat="42.859071" lon="-0.227086">
        <ele>1764.8</ele>
        <time>2020-06-28T12:09:12Z</time>
      </trkpt>
      <trkpt lat="42.858962" lon="-0.227095">
        <ele>1760.0</ele>
        <time>2020-06-28T12:09:30Z</time>
      </trkpt>
      <trkpt lat="42.859014" lon="-0.227204">
        <ele>1757.0</ele>
        <time>2020-06-28T12:09:41Z</time>
      </trkpt>
      <trkpt lat="42.859077" lon="-0.227322">
        <ele>1752.3</ele>
        <time>2020-06-28T12:10:00Z</time>
      </trkpt>
      <trkpt lat="42.859079" lon="-0.227384">
        <ele>1748.2</ele>
        <time>2020-06-28T12:10:16Z</time>
      </trkpt>
      <trkpt lat="42.859039" lon="-0.227421">
        <ele>1746.5</ele>
        <time>2020-06-28T12:10:37Z</time>
      </trkpt>
      <trkpt lat="42.858999" lon="-0.227534">
        <ele>1742.1</ele>
        <time>2020-06-28T12:10:53Z</time>
      </trkpt>
      <trkpt lat="42.859061" lon="-0.227640">
        <ele>1735.8</ele>
        <time>2020-06-28T12:11:14Z</time>
      </trkpt>
      <trkpt lat="42.859132" lon="-0.227784">
        <ele>1730.2</ele>
        <time>2020-06-28T12:11:33Z</time>
      </trkpt>
      <trkpt lat="42.859215" lon="-0.227892">
        <ele>1725.5</ele>
        <time>2020-06-28T12:11:50Z</time>
      </trkpt>
      <trkpt lat="42.859315" lon="-0.227864">
        <ele>1722.9</ele>
        <time>2020-06-28T12:12:07Z</time>
      </trkpt>
      <trkpt lat="42.859399" lon="-0.227791">
        <ele>1719.3</ele>
        <time>2020-06-28T12:12:29Z</time>
      </trkpt>
      <trkpt lat="42.859531" lon="-0.227772">
        <ele>1719.3</ele>
        <time>2020-06-28T12:12:46Z</time>
      </trkpt>
      <trkpt lat="42.859637" lon="-0.227886">
        <ele>1718.1</ele>
        <time>2020-06-28T12:12:56Z</time>
      </trkpt>
      <trkpt lat="42.859711" lon="-0.227981">
        <ele>1714.6</ele>
        <time>2020-06-28T12:13:10Z</time>
      </trkpt>
      <trkpt lat="42.859817" lon="-0.227970">
        <ele>1714.3</ele>
        <time>2020-06-28T12:13:45Z</time>
      </trkpt>
      <trkpt lat="42.859885" lon="-0.228048">
        <ele>1710.5</ele>
        <time>2020-06-28T12:14:01Z</time>
      </trkpt>
      <trkpt lat="42.859978" lon="-0.228141">
        <ele>1708.2</ele>
        <time>2020-06-28T12:14:13Z</time>
      </trkpt>
      <trkpt lat="42.860033" lon="-0.228249">
        <ele>1704.6</ele>
        <time>2020-06-28T12:14:28Z</time>
      </trkpt>
      <trkpt lat="42.860143" lon="-0.228313">
        <ele>1699.3</ele>
        <time>2020-06-28T12:14:42Z</time>
      </trkpt>
      <trkpt lat="42.860261" lon="-0.228373">
        <ele>1695.2</ele>
        <time>2020-06-28T12:14:56Z</time>
      </trkpt>
      <trkpt lat="42.860321" lon="-0.228484">
        <ele>1693.4</ele>
        <time>2020-06-28T12:15:06Z</time>
      </trkpt>
      <trkpt lat="42.860397" lon="-0.228553">
        <ele>1691.4</ele>
        <time>2020-06-28T12:15:15Z</time>
      </trkpt>
      <trkpt lat="42.860439" lon="-0.228675">
        <ele>1686.7</ele>
        <time>2020-06-28T12:15:25Z</time>
      </trkpt>
      <trkpt lat="42.860505" lon="-0.228774">
        <ele>1685.1</ele>
        <time>2020-06-28T12:15:33Z</time>
      </trkpt>
      <trkpt lat="42.860535" lon="-0.228871">
        <ele>1682.5</ele>
        <time>2020-06-28T12:15:43Z</time>
      </trkpt>
      <trkpt lat="42.860595" lon="-0.228873">
        <ele>1680.5</ele>
        <time>2020-06-28T12:16:08Z</time>
      </trkpt>
      <trkpt lat="42.860691" lon="-0.228813">
        <ele>1680.4</ele>
        <time>2020-06-28T12:16:22Z</time>
      </trkpt>
      <trkpt lat="42.860786" lon="-0.228765">
        <ele>1679.4</ele>
        <time>2020-06-28T12:16:40Z</time>
      </trkpt>
      <trkpt lat="42.860871" lon="-0.228704">
        <ele>1678.3</ele>
        <time>2020-06-28T12:17:09Z</time>
      </trkpt>
      <trkpt lat="42.860866" lon="-0.228728">
        <ele>1678.1</ele>
        <time>2020-06-28T12:17:32Z</time>
      </trkpt>
      <trkpt lat="42.860875" lon="-0.228725">
        <ele>1676.6</ele>
        <time>2020-06-28T12:19:00Z</time>
      </trkpt>
      <trkpt lat="42.860885" lon="-0.228688">
        <ele>1676.4</ele>
        <time>2020-06-28T12:19:30Z</time>
      </trkpt>
      <trkpt lat="42.860885" lon="-0.228758">
        <ele>1676.1</ele>
        <time>2020-06-28T12:20:25Z</time>
      </trkpt>
      <trkpt lat="42.860933" lon="-0.228740">
        <ele>1674.9</ele>
        <time>2020-06-28T12:22:02Z</time>
      </trkpt>
      <trkpt lat="42.861039" lon="-0.228684">
        <ele>1673.1</ele>
        <time>2020-06-28T12:22:15Z</time>
      </trkpt>
      <trkpt lat="42.861151" lon="-0.228619">
        <ele>1672.0</ele>
        <time>2020-06-28T12:22:28Z</time>
      </trkpt>
      <trkpt lat="42.861241" lon="-0.228533">
        <ele>1671.1</ele>
        <time>2020-06-28T12:22:41Z</time>
      </trkpt>
      <trkpt lat="42.861346" lon="-0.228524">
        <ele>1669.3</ele>
        <time>2020-06-28T12:22:55Z</time>
      </trkpt>
      <trkpt lat="42.861429" lon="-0.228427">
        <ele>1668.2</ele>
        <time>2020-06-28T12:23:07Z</time>
      </trkpt>
      <trkpt lat="42.861516" lon="-0.228351">
        <ele>1668.1</ele>
        <time>2020-06-28T12:23:18Z</time>
      </trkpt>
      <trkpt lat="42.861606" lon="-0.228286">
        <ele>1671.9</ele>
        <time>2020-06-28T12:23:34Z</time>
      </trkpt>
      <trkpt lat="42.861693" lon="-0.228238">
        <ele>1672.6</ele>
        <time>2020-06-28T12:23:45Z</time>
      </trkpt>
      <trkpt lat="42.861794" lon="-0.228199">
        <ele>1675.1</ele>
        <time>2020-06-28T12:24:12Z</time>
      </trkpt>
      <trkpt lat="42.861873" lon="-0.228148">
        <ele>1677.3</ele>
        <time>2020-06-28T12:24:40Z</time>
      </trkpt>
      <trkpt lat="42.861990" lon="-0.228103">
        <ele>1678.7</ele>
        <time>2020-06-28T12:24:57Z</time>
      </trkpt>
      <trkpt lat="42.862107" lon="-0.228073">
        <ele>1676.2</ele>
        <time>2020-06-28T12:25:13Z</time>
      </trkpt>
      <trkpt lat="42.862146" lon="-0.228121">
        <ele>1676.1</ele>
        <time>2020-06-28T12:25:33Z</time>
      </trkpt>
      <trkpt lat="42.862205" lon="-0.228103">
        <ele>1675.8</ele>
        <time>2020-06-28T12:26:00Z</time>
      </trkpt>
      <trkpt lat="42.862343" lon="-0.228069">
        <ele>1673.8</ele>
        <time>2020-06-28T12:26:16Z</time>
      </trkpt>
      <trkpt lat="42.862494" lon="-0.228037">
        <ele>1671.9</ele>
        <time>2020-06-28T12:26:31Z</time>
      </trkpt>
      <trkpt lat="42.862500" lon="-0.228163">
        <ele>1669.2</ele>
        <time>2020-06-28T12:26:45Z</time>
      </trkpt>
      <trkpt lat="42.862576" lon="-0.228261">
        <ele>1667.6</ele>
        <time>2020-06-28T12:26:55Z</time>
      </trkpt>
      <trkpt lat="42.862687" lon="-0.228276">
        <ele>1666.8</ele>
        <time>2020-06-28T12:27:06Z</time>
      </trkpt>
      <trkpt lat="42.862797" lon="-0.228326">
        <ele>1666.0</ele>
        <time>2020-06-28T12:27:18Z</time>
      </trkpt>
      <trkpt lat="42.862903" lon="-0.228383">
        <ele>1666.0</ele>
        <time>2020-06-28T12:27:28Z</time>
      </trkpt>
      <trkpt lat="42.863030" lon="-0.228421">
        <ele>1665.9</ele>
        <time>2020-06-28T12:27:39Z</time>
      </trkpt>
      <trkpt lat="42.863131" lon="-0.228428">
        <ele>1665.8</ele>
        <time>2020-06-28T12:27:52Z</time>
      </trkpt>
      <trkpt lat="42.863221" lon="-0.228522">
        <ele>1665.7</ele>
        <time>2020-06-28T12:28:02Z</time>
      </trkpt>
      <trkpt lat="42.863317" lon="-0.228613">
        <ele>1665.6</ele>
        <time>2020-06-28T12:28:12Z</time>
      </trkpt>
      <trkpt lat="42.863421" lon="-0.228642">
        <ele>1665.5</ele>
        <time>2020-06-28T12:28:30Z</time>
      </trkpt>
      <trkpt lat="42.863516" lon="-0.228706">
        <ele>1665.5</ele>
        <time>2020-06-28T12:28:44Z</time>
      </trkpt>
      <trkpt lat="42.863598" lon="-0.228782">
        <ele>1664.5</ele>
        <time>2020-06-28T12:29:04Z</time>
      </trkpt>
      <trkpt lat="42.863690" lon="-0.228858">
        <ele>1664.4</ele>
        <time>2020-06-28T12:29:14Z</time>
      </trkpt>
      <trkpt lat="42.863809" lon="-0.228892">
        <ele>1663.6</ele>
        <time>2020-06-28T12:29:25Z</time>
      </trkpt>
      <trkpt lat="42.863920" lon="-0.228907">
        <ele>1662.7</ele>
        <time>2020-06-28T12:29:34Z</time>
      </trkpt>
      <trkpt lat="42.864037" lon="-0.228924">
        <ele>1662.7</ele>
        <time>2020-06-28T12:29:46Z</time>
      </trkpt>
      <trkpt lat="42.864147" lon="-0.228982">
        <ele>1660.9</ele>
        <time>2020-06-28T12:30:00Z</time>
      </trkpt>
      <trkpt lat="42.864258" lon="-0.229063">
        <ele>1659.3</ele>
        <time>2020-06-28T12:30:14Z</time>
      </trkpt>
      <trkpt lat="42.864438" lon="-0.229066">
        <ele>1657.3</ele>
        <time>2020-06-28T12:30:33Z</time>
      </trkpt>
      <trkpt lat="42.864576" lon="-0.229038">
        <ele>1656.4</ele>
        <time>2020-06-28T12:30:46Z</time>
      </trkpt>
      <trkpt lat="42.864683" lon="-0.229114">
        <ele>1653.5</ele>
        <time>2020-06-28T12:31:01Z</time>
      </trkpt>
      <trkpt lat="42.864815" lon="-0.229196">
        <ele>1651.8</ele>
        <time>2020-06-28T12:31:15Z</time>
      </trkpt>
      <trkpt lat="42.864927" lon="-0.229258">
        <ele>1650.1</ele>
        <time>2020-06-28T12:31:28Z</time>
      </trkpt>
      <trkpt lat="42.865032" lon="-0.229304">
        <ele>1648.4</ele>
        <time>2020-06-28T12:31:40Z</time>
      </trkpt>
      <trkpt lat="42.865149" lon="-0.229397">
        <ele>1647.6</ele>
        <time>2020-06-28T12:31:51Z</time>
      </trkpt>
      <trkpt lat="42.865270" lon="-0.229436">
        <ele>1645.8</ele>
        <time>2020-06-28T12:32:03Z</time>
      </trkpt>
      <trkpt lat="42.865390" lon="-0.229489">
        <ele>1644.0</ele>
        <time>2020-06-28T12:32:15Z</time>
      </trkpt>
      <trkpt lat="42.865515" lon="-0.229445">
        <ele>1641.7</ele>
        <time>2020-06-28T12:32:29Z</time>
      </trkpt>
      <trkpt lat="42.865637" lon="-0.229436">
        <ele>1640.0</ele>
        <time>2020-06-28T12:32:43Z</time>
      </trkpt>
      <trkpt lat="42.865755" lon="-0.229382">
        <ele>1639.2</ele>
        <time>2020-06-28T12:32:56Z</time>
      </trkpt>
      <trkpt lat="42.865874" lon="-0.229423">
        <ele>1637.2</ele>
        <time>2020-06-28T12:33:13Z</time>
      </trkpt>
      <trkpt lat="42.866001" lon="-0.229411">
        <ele>1637.3</ele>
        <time>2020-06-28T12:33:28Z</time>
      </trkpt>
      <trkpt lat="42.866130" lon="-0.229334">
        <ele>1637.1</ele>
        <time>2020-06-28T12:33:42Z</time>
      </trkpt>
      <trkpt lat="42.866227" lon="-0.229250">
        <ele>1636.2</ele>
        <time>2020-06-28T12:34:04Z</time>
      </trkpt>
      <trkpt lat="42.866332" lon="-0.229185">
        <ele>1634.3</ele>
        <time>2020-06-28T12:34:18Z</time>
      </trkpt>
      <trkpt lat="42.866432" lon="-0.229120">
        <ele>1630.4</ele>
        <time>2020-06-28T12:34:37Z</time>
      </trkpt>
      <trkpt lat="42.866552" lon="-0.229109">
        <ele>1627.0</ele>
        <time>2020-06-28T12:34:54Z</time>
      </trkpt>
      <trkpt lat="42.866664" lon="-0.229037">
        <ele>1626.1</ele>
        <time>2020-06-28T12:35:04Z</time>
      </trkpt>
      <trkpt lat="42.866755" lon="-0.228959">
        <ele>1626.0</ele>
        <time>2020-06-28T12:35:16Z</time>
      </trkpt>
      <trkpt lat="42.866878" lon="-0.228975">
        <ele>1623.1</ele>
        <time>2020-06-28T12:35:30Z</time>
      </trkpt>
      <trkpt lat="42.866986" lon="-0.229030">
        <ele>1619.3</ele>
        <time>2020-06-28T12:35:44Z</time>
      </trkpt>
      <trkpt lat="42.867119" lon="-0.229037">
        <ele>1616.8</ele>
        <time>2020-06-28T12:35:57Z</time>
      </trkpt>
      <trkpt lat="42.867245" lon="-0.229033">
        <ele>1615.2</ele>
        <time>2020-06-28T12:36:07Z</time>
      </trkpt>
      <trkpt lat="42.867373" lon="-0.229008">
        <ele>1615.1</ele>
        <time>2020-06-28T12:36:22Z</time>
      </trkpt>
      <trkpt lat="42.867499" lon="-0.228978">
        <ele>1613.3</ele>
        <time>2020-06-28T12:36:34Z</time>
      </trkpt>
      <trkpt lat="42.867621" lon="-0.228935">
        <ele>1613.2</ele>
        <time>2020-06-28T12:36:46Z</time>
      </trkpt>
      <trkpt lat="42.867749" lon="-0.228928">
        <ele>1611.5</ele>
        <time>2020-06-28T12:36:58Z</time>
      </trkpt>
      <trkpt lat="42.867861" lon="-0.228871">
        <ele>1610.6</ele>
        <time>2020-06-28T12:37:08Z</time>
      </trkpt>
      <trkpt lat="42.867959" lon="-0.228795">
        <ele>1609.6</ele>
        <time>2020-06-28T12:37:18Z</time>
      </trkpt>
      <trkpt lat="42.868052" lon="-0.228701">
        <ele>1609.6</ele>
        <time>2020-06-28T12:37:29Z</time>
      </trkpt>
      <trkpt lat="42.868161" lon="-0.228639">
        <ele>1609.5</ele>
        <time>2020-06-28T12:37:38Z</time>
      </trkpt>
      <trkpt lat="42.868256" lon="-0.228557">
        <ele>1609.4</ele>
        <time>2020-06-28T12:37:52Z</time>
      </trkpt>
      <trkpt lat="42.868375" lon="-0.228526">
        <ele>1607.7</ele>
        <time>2020-06-28T12:38:07Z</time>
      </trkpt>
      <trkpt lat="42.868508" lon="-0.228520">
        <ele>1607.6</ele>
        <time>2020-06-28T12:38:21Z</time>
      </trkpt>
      <trkpt lat="42.868609" lon="-0.228612">
        <ele>1607.5</ele>
        <time>2020-06-28T12:38:32Z</time>
      </trkpt>
      <trkpt lat="42.868703" lon="-0.228696">
        <ele>1607.4</ele>
        <time>2020-06-28T12:38:42Z</time>
      </trkpt>
      <trkpt lat="42.868830" lon="-0.228701">
        <ele>1607.3</ele>
        <time>2020-06-28T12:38:54Z</time>
      </trkpt>
      <trkpt lat="42.868916" lon="-0.228763">
        <ele>1607.1</ele>
        <time>2020-06-28T12:39:12Z</time>
      </trkpt>
      <trkpt lat="42.869015" lon="-0.228794">
        <ele>1606.9</ele>
        <time>2020-06-28T12:39:24Z</time>
      </trkpt>
      <trkpt lat="42.869092" lon="-0.228880">
        <ele>1606.8</ele>
        <time>2020-06-28T12:39:36Z</time>
      </trkpt>
      <trkpt lat="42.869213" lon="-0.228952">
        <ele>1609.1</ele>
        <time>2020-06-28T12:39:47Z</time>
      </trkpt>
      <trkpt lat="42.869321" lon="-0.229027">
        <ele>1610.0</ele>
        <time>2020-06-28T12:39:57Z</time>
      </trkpt>
      <trkpt lat="42.869408" lon="-0.229124">
        <ele>1609.8</ele>
        <time>2020-06-28T12:40:08Z</time>
      </trkpt>
      <trkpt lat="42.869538" lon="-0.229139">
        <ele>1610.4</ele>
        <time>2020-06-28T12:40:20Z</time>
      </trkpt>
      <trkpt lat="42.869655" lon="-0.229150">
        <ele>1610.3</ele>
        <time>2020-06-28T12:40:32Z</time>
      </trkpt>
      <trkpt lat="42.869757" lon="-0.229101">
        <ele>1610.2</ele>
        <time>2020-06-28T12:40:43Z</time>
      </trkpt>
      <trkpt lat="42.869863" lon="-0.229068">
        <ele>1610.1</ele>
        <time>2020-06-28T12:40:54Z</time>
      </trkpt>
      <trkpt lat="42.869984" lon="-0.229065">
        <ele>1610.1</ele>
        <time>2020-06-28T12:41:06Z</time>
      </trkpt>
      <trkpt lat="42.870105" lon="-0.229060">
        <ele>1609.9</ele>
        <time>2020-06-28T12:41:19Z</time>
      </trkpt>
      <trkpt lat="42.870206" lon="-0.229123">
        <ele>1609.8</ele>
        <time>2020-06-28T12:41:31Z</time>
      </trkpt>
      <trkpt lat="42.870336" lon="-0.229139">
        <ele>1607.1</ele>
        <time>2020-06-28T12:41:42Z</time>
      </trkpt>
      <trkpt lat="42.870453" lon="-0.229076">
        <ele>1606.2</ele>
        <time>2020-06-28T12:41:52Z</time>
      </trkpt>
      <trkpt lat="42.870555" lon="-0.229072">
        <ele>1605.3</ele>
        <time>2020-06-28T12:42:01Z</time>
      </trkpt>
      <trkpt lat="42.870667" lon="-0.229019">
        <ele>1604.5</ele>
        <time>2020-06-28T12:42:10Z</time>
      </trkpt>
      <trkpt lat="42.870758" lon="-0.228963">
        <ele>1603.6</ele>
        <time>2020-06-28T12:42:19Z</time>
      </trkpt>
      <trkpt lat="42.870864" lon="-0.228927">
        <ele>1602.6</ele>
        <time>2020-06-28T12:42:28Z</time>
      </trkpt>
      <trkpt lat="42.870961" lon="-0.228954">
        <ele>1600.6</ele>
        <time>2020-06-28T12:42:37Z</time>
      </trkpt>
      <trkpt lat="42.871060" lon="-0.228896">
        <ele>1600.6</ele>
        <time>2020-06-28T12:42:46Z</time>
      </trkpt>
      <trkpt lat="42.871154" lon="-0.228837">
        <ele>1600.5</ele>
        <time>2020-06-28T12:42:54Z</time>
      </trkpt>
      <trkpt lat="42.871235" lon="-0.228748">
        <ele>1599.5</ele>
        <time>2020-06-28T12:43:03Z</time>
      </trkpt>
      <trkpt lat="42.871296" lon="-0.228630">
        <ele>1599.5</ele>
        <time>2020-06-28T12:43:12Z</time>
      </trkpt>
      <trkpt lat="42.871356" lon="-0.228527">
        <ele>1599.4</ele>
        <time>2020-06-28T12:43:21Z</time>
      </trkpt>
      <trkpt lat="42.871461" lon="-0.228482">
        <ele>1599.3</ele>
        <time>2020-06-28T12:43:41Z</time>
      </trkpt>
      <trkpt lat="42.871549" lon="-0.228398">
        <ele>1599.3</ele>
        <time>2020-06-28T12:43:49Z</time>
      </trkpt>
      <trkpt lat="42.871635" lon="-0.228317">
        <ele>1601.5</ele>
        <time>2020-06-28T12:43:58Z</time>
      </trkpt>
      <trkpt lat="42.871724" lon="-0.228302">
        <ele>1601.4</ele>
        <time>2020-06-28T12:44:08Z</time>
      </trkpt>
      <trkpt lat="42.871826" lon="-0.228315">
        <ele>1598.9</ele>
        <time>2020-06-28T12:44:19Z</time>
      </trkpt>
      <trkpt lat="42.871913" lon="-0.228232">
        <ele>1598.0</ele>
        <time>2020-06-28T12:44:28Z</time>
      </trkpt>
      <trkpt lat="42.871994" lon="-0.228122">
        <ele>1597.1</ele>
        <time>2020-06-28T12:44:37Z</time>
      </trkpt>
      <trkpt lat="42.872100" lon="-0.228084">
        <ele>1597.1</ele>
        <time>2020-06-28T12:44:45Z</time>
      </trkpt>
      <trkpt lat="42.872213" lon="-0.228061">
        <ele>1594.4</ele>
        <time>2020-06-28T12:44:55Z</time>
      </trkpt>
      <trkpt lat="42.872313" lon="-0.228008">
        <ele>1593.6</ele>
        <time>2020-06-28T12:45:03Z</time>
      </trkpt>
      <trkpt lat="42.872419" lon="-0.227969">
        <ele>1591.5</ele>
        <time>2020-06-28T12:45:10Z</time>
      </trkpt>
      <trkpt lat="42.872519" lon="-0.227974">
        <ele>1589.6</ele>
        <time>2020-06-28T12:45:18Z</time>
      </trkpt>
      <trkpt lat="42.872643" lon="-0.227958">
        <ele>1588.8</ele>
        <time>2020-06-28T12:45:26Z</time>
      </trkpt>
      <trkpt lat="42.872754" lon="-0.227957">
        <ele>1587.9</ele>
        <time>2020-06-28T12:45:35Z</time>
      </trkpt>
      <trkpt lat="42.872822" lon="-0.227867">
        <ele>1587.9</ele>
        <time>2020-06-28T12:45:50Z</time>
      </trkpt>
      <trkpt lat="42.872919" lon="-0.227836">
        <ele>1590.4</ele>
        <time>2020-06-28T12:47:13Z</time>
      </trkpt>
      <trkpt lat="42.872962" lon="-0.227714">
        <ele>1590.4</ele>
        <time>2020-06-28T12:47:31Z</time>
      </trkpt>
      <trkpt lat="42.873050" lon="-0.227702">
        <ele>1590.3</ele>
        <time>2020-06-28T12:47:42Z</time>
      </trkpt>
      <trkpt lat="42.873162" lon="-0.227669">
        <ele>1590.3</ele>
        <time>2020-06-28T12:47:55Z</time>
      </trkpt>
      <trkpt lat="42.873255" lon="-0.227634">
        <ele>1590.2</ele>
        <time>2020-06-28T12:48:06Z</time>
      </trkpt>
      <trkpt lat="42.873369" lon="-0.227617">
        <ele>1586.9</ele>
        <time>2020-06-28T12:48:18Z</time>
      </trkpt>
      <trkpt lat="42.873480" lon="-0.227582">
        <ele>1586.9</ele>
        <time>2020-06-28T12:48:30Z</time>
      </trkpt>
      <trkpt lat="42.873573" lon="-0.227528">
        <ele>1589.3</ele>
        <time>2020-06-28T12:48:42Z</time>
      </trkpt>
      <trkpt lat="42.873661" lon="-0.227465">
        <ele>1589.2</ele>
        <time>2020-06-28T12:48:55Z</time>
      </trkpt>
      <trkpt lat="42.873766" lon="-0.227433">
        <ele>1589.2</ele>
        <time>2020-06-28T12:49:08Z</time>
      </trkpt>
      <trkpt lat="42.873847" lon="-0.227393">
        <ele>1589.1</ele>
        <time>2020-06-28T12:49:23Z</time>
      </trkpt>
      <trkpt lat="42.873949" lon="-0.227491">
        <ele>1588.9</ele>
        <time>2020-06-28T12:49:38Z</time>
      </trkpt>
      <trkpt lat="42.874084" lon="-0.227474">
        <ele>1586.6</ele>
        <time>2020-06-28T12:49:50Z</time>
      </trkpt>
      <trkpt lat="42.874149" lon="-0.227400">
        <ele>1585.8</ele>
        <time>2020-06-28T12:50:05Z</time>
      </trkpt>
      <trkpt lat="42.874242" lon="-0.227362">
        <ele>1585.7</ele>
        <time>2020-06-28T12:50:19Z</time>
      </trkpt>
      <trkpt lat="42.874328" lon="-0.227306">
        <ele>1583.0</ele>
        <time>2020-06-28T12:50:34Z</time>
      </trkpt>
      <trkpt lat="42.874416" lon="-0.227251">
        <ele>1581.4</ele>
        <time>2020-06-28T12:50:44Z</time>
      </trkpt>
      <trkpt lat="42.874508" lon="-0.227180">
        <ele>1580.4</ele>
        <time>2020-06-28T12:50:54Z</time>
      </trkpt>
      <trkpt lat="42.874623" lon="-0.227152">
        <ele>1579.5</ele>
        <time>2020-06-28T12:51:06Z</time>
      </trkpt>
      <trkpt lat="42.874732" lon="-0.227129">
        <ele>1577.8</ele>
        <time>2020-06-28T12:51:19Z</time>
      </trkpt>
      <trkpt lat="42.874827" lon="-0.227176">
        <ele>1575.2</ele>
        <time>2020-06-28T12:51:35Z</time>
      </trkpt>
      <trkpt lat="42.874964" lon="-0.227167">
        <ele>1572.3</ele>
        <time>2020-06-28T12:51:48Z</time>
      </trkpt>
      <trkpt lat="42.875045" lon="-0.227196">
        <ele>1570.6</ele>
        <time>2020-06-28T12:52:02Z</time>
      </trkpt>
      <trkpt lat="42.875147" lon="-0.227222">
        <ele>1567.7</ele>
        <time>2020-06-28T12:52:17Z</time>
      </trkpt>
      <trkpt lat="42.875253" lon="-0.227233">
        <ele>1564.8</ele>
        <time>2020-06-28T12:52:33Z</time>
      </trkpt>
      <trkpt lat="42.875372" lon="-0.227188">
        <ele>1562.1</ele>
        <time>2020-06-28T12:52:50Z</time>
      </trkpt>
      <trkpt lat="42.875475" lon="-0.227133">
        <ele>1561.2</ele>
        <time>2020-06-28T12:53:18Z</time>
      </trkpt>
      <trkpt lat="42.875556" lon="-0.227060">
        <ele>1558.6</ele>
        <time>2020-06-28T12:53:30Z</time>
      </trkpt>
      <trkpt lat="42.875629" lon="-0.226988">
        <ele>1556.9</ele>
        <time>2020-06-28T12:53:41Z</time>
      </trkpt>
      <trkpt lat="42.875699" lon="-0.226879">
        <ele>1555.0</ele>
        <time>2020-06-28T12:53:54Z</time>
      </trkpt>
      <trkpt lat="42.875751" lon="-0.226849">
        <ele>1553.4</ele>
        <time>2020-06-28T12:54:07Z</time>
      </trkpt>
      <trkpt lat="42.875845" lon="-0.226777">
        <ele>1552.5</ele>
        <time>2020-06-28T12:54:19Z</time>
      </trkpt>
      <trkpt lat="42.875918" lon="-0.226690">
        <ele>1550.8</ele>
        <time>2020-06-28T12:54:30Z</time>
      </trkpt>
      <trkpt lat="42.876018" lon="-0.226675">
        <ele>1548.9</ele>
        <time>2020-06-28T12:54:40Z</time>
      </trkpt>
      <trkpt lat="42.876098" lon="-0.226719">
        <ele>1547.0</ele>
        <time>2020-06-28T12:54:49Z</time>
      </trkpt>
      <trkpt lat="42.876190" lon="-0.226703">
        <ele>1545.3</ele>
        <time>2020-06-28T12:54:59Z</time>
      </trkpt>
      <trkpt lat="42.876284" lon="-0.226680">
        <ele>1544.5</ele>
        <time>2020-06-28T12:55:08Z</time>
      </trkpt>
      <trkpt lat="42.876368" lon="-0.226622">
        <ele>1542.8</ele>
        <time>2020-06-28T12:55:21Z</time>
      </trkpt>
      <trkpt lat="42.876452" lon="-0.226617">
        <ele>1541.7</ele>
        <time>2020-06-28T12:55:30Z</time>
      </trkpt>
      <trkpt lat="42.876544" lon="-0.226677">
        <ele>1540.9</ele>
        <time>2020-06-28T12:55:38Z</time>
      </trkpt>
      <trkpt lat="42.876631" lon="-0.226734">
        <ele>1540.9</ele>
        <time>2020-06-28T12:55:47Z</time>
      </trkpt>
      <trkpt lat="42.876715" lon="-0.226805">
        <ele>1540.0</ele>
        <time>2020-06-28T12:55:56Z</time>
      </trkpt>
      <trkpt lat="42.876809" lon="-0.226878">
        <ele>1539.9</ele>
        <time>2020-06-28T12:56:04Z</time>
      </trkpt>
      <trkpt lat="42.876905" lon="-0.226973">
        <ele>1539.0</ele>
        <time>2020-06-28T12:56:13Z</time>
      </trkpt>
      <trkpt lat="42.877026" lon="-0.227054">
        <ele>1538.9</ele>
        <time>2020-06-28T12:56:22Z</time>
      </trkpt>
      <trkpt lat="42.877104" lon="-0.227144">
        <ele>1537.9</ele>
        <time>2020-06-28T12:56:32Z</time>
      </trkpt>
      <trkpt lat="42.877192" lon="-0.227158">
        <ele>1537.9</ele>
        <time>2020-06-28T12:56:41Z</time>
      </trkpt>
      <trkpt lat="42.877272" lon="-0.227240">
        <ele>1536.2</ele>
        <time>2020-06-28T12:56:51Z</time>
      </trkpt>
      <trkpt lat="42.877383" lon="-0.227238">
        <ele>1536.2</ele>
        <time>2020-06-28T12:57:05Z</time>
      </trkpt>
      <trkpt lat="42.877463" lon="-0.227215">
        <ele>1535.2</ele>
        <time>2020-06-28T12:57:30Z</time>
      </trkpt>
      <trkpt lat="42.877554" lon="-0.227237">
        <ele>1534.3</ele>
        <time>2020-06-28T12:57:48Z</time>
      </trkpt>
      <trkpt lat="42.877642" lon="-0.227317">
        <ele>1532.5</ele>
        <time>2020-06-28T12:58:00Z</time>
      </trkpt>
      <trkpt lat="42.877740" lon="-0.227325">
        <ele>1532.5</ele>
        <time>2020-06-28T12:58:13Z</time>
      </trkpt>
      <trkpt lat="42.877859" lon="-0.227389">
        <ele>1531.7</ele>
        <time>2020-06-28T12:58:29Z</time>
      </trkpt>
      <trkpt lat="42.877990" lon="-0.227442">
        <ele>1530.7</ele>
        <time>2020-06-28T12:58:39Z</time>
      </trkpt>
      <trkpt lat="42.878141" lon="-0.227464">
        <ele>1530.6</ele>
        <time>2020-06-28T12:58:54Z</time>
      </trkpt>
      <trkpt lat="42.878304" lon="-0.227448">
        <ele>1530.4</ele>
        <time>2020-06-28T12:59:08Z</time>
      </trkpt>
      <trkpt lat="42.878421" lon="-0.227362">
        <ele>1530.3</ele>
        <time>2020-06-28T12:59:21Z</time>
      </trkpt>
      <trkpt lat="42.878514" lon="-0.227280">
        <ele>1530.2</ele>
        <time>2020-06-28T12:59:32Z</time>
      </trkpt>
      <trkpt lat="42.878621" lon="-0.227223">
        <ele>1530.1</ele>
        <time>2020-06-28T12:59:42Z</time>
      </trkpt>
      <trkpt lat="42.878680" lon="-0.227120">
        <ele>1530.1</ele>
        <time>2020-06-28T12:59:51Z</time>
      </trkpt>
      <trkpt lat="42.878747" lon="-0.227027">
        <ele>1529.1</ele>
        <time>2020-06-28T13:00:00Z</time>
      </trkpt>
      <trkpt lat="42.878812" lon="-0.226932">
        <ele>1529.0</ele>
        <time>2020-06-28T13:00:09Z</time>
      </trkpt>
      <trkpt lat="42.878912" lon="-0.226906">
        <ele>1528.9</ele>
        <time>2020-06-28T13:00:18Z</time>
      </trkpt>
      <trkpt lat="42.879014" lon="-0.226902">
        <ele>1528.9</ele>
        <time>2020-06-28T13:00:27Z</time>
      </trkpt>
      <trkpt lat="42.879132" lon="-0.226905">
        <ele>1528.8</ele>
        <time>2020-06-28T13:00:37Z</time>
      </trkpt>
      <trkpt lat="42.879256" lon="-0.226898">
        <ele>1528.7</ele>
        <time>2020-06-28T13:00:47Z</time>
      </trkpt>
      <trkpt lat="42.879364" lon="-0.226897">
        <ele>1531.9</ele>
        <time>2020-06-28T13:00:59Z</time>
      </trkpt>
      <trkpt lat="42.879499" lon="-0.226892">
        <ele>1531.7</ele>
        <time>2020-06-28T13:01:11Z</time>
      </trkpt>
      <trkpt lat="42.879562" lon="-0.226806">
        <ele>1531.6</ele>
        <time>2020-06-28T13:01:21Z</time>
      </trkpt>
      <trkpt lat="42.879635" lon="-0.226722">
        <ele>1529.2</ele>
        <time>2020-06-28T13:01:32Z</time>
      </trkpt>
      <trkpt lat="42.879719" lon="-0.226633">
        <ele>1527.4</ele>
        <time>2020-06-28T13:01:43Z</time>
      </trkpt>
      <trkpt lat="42.879837" lon="-0.226558">
        <ele>1524.9</ele>
        <time>2020-06-28T13:01:58Z</time>
      </trkpt>
      <trkpt lat="42.879996" lon="-0.226542">
        <ele>1523.0</ele>
        <time>2020-06-28T13:02:13Z</time>
      </trkpt>
      <trkpt lat="42.880124" lon="-0.226539">
        <ele>1521.2</ele>
        <time>2020-06-28T13:02:24Z</time>
      </trkpt>
      <trkpt lat="42.880242" lon="-0.226535">
        <ele>1519.2</ele>
        <time>2020-06-28T13:02:34Z</time>
      </trkpt>
      <trkpt lat="42.880397" lon="-0.226527">
        <ele>1516.1</ele>
        <time>2020-06-28T13:02:45Z</time>
      </trkpt>
      <trkpt lat="42.880529" lon="-0.226548">
        <ele>1514.4</ele>
        <time>2020-06-28T13:02:57Z</time>
      </trkpt>
      <trkpt lat="42.880659" lon="-0.226595">
        <ele>1514.3</ele>
        <time>2020-06-28T13:03:09Z</time>
      </trkpt>
      <trkpt lat="42.880770" lon="-0.226601">
        <ele>1513.8</ele>
        <time>2020-06-28T13:03:36Z</time>
      </trkpt>
      <trkpt lat="42.880887" lon="-0.226594">
        <ele>1515.7</ele>
        <time>2020-06-28T13:03:54Z</time>
      </trkpt>
      <trkpt lat="42.881020" lon="-0.226559">
        <ele>1515.4</ele>
        <time>2020-06-28T13:04:07Z</time>
      </trkpt>
      <trkpt lat="42.881201" lon="-0.226517">
        <ele>1511.8</ele>
        <time>2020-06-28T13:04:23Z</time>
      </trkpt>
      <trkpt lat="42.881331" lon="-0.226484">
        <ele>1510.7</ele>
        <time>2020-06-28T13:04:36Z</time>
      </trkpt>
      <trkpt lat="42.881447" lon="-0.226488">
        <ele>1510.5</ele>
        <time>2020-06-28T13:04:50Z</time>
      </trkpt>
      <trkpt lat="42.881574" lon="-0.226499">
        <ele>1508.5</ele>
        <time>2020-06-28T13:05:05Z</time>
      </trkpt>
      <trkpt lat="42.881718" lon="-0.226536">
        <ele>1507.5</ele>
        <time>2020-06-28T13:05:20Z</time>
      </trkpt>
      <trkpt lat="42.881797" lon="-0.226489">
        <ele>1512.1</ele>
        <time>2020-06-28T13:05:40Z</time>
      </trkpt>
      <trkpt lat="42.881868" lon="-0.226442">
        <ele>1514.5</ele>
        <time>2020-06-28T13:05:55Z</time>
      </trkpt>
      <trkpt lat="42.881979" lon="-0.226466">
        <ele>1514.0</ele>
        <time>2020-06-28T13:06:09Z</time>
      </trkpt>
      <trkpt lat="42.882101" lon="-0.226503">
        <ele>1510.5</ele>
        <time>2020-06-28T13:06:21Z</time>
      </trkpt>
      <trkpt lat="42.882246" lon="-0.226573">
        <ele>1507.7</ele>
        <time>2020-06-28T13:06:35Z</time>
      </trkpt>
      <trkpt lat="42.882372" lon="-0.226605">
        <ele>1505.8</ele>
        <time>2020-06-28T13:06:49Z</time>
      </trkpt>
      <trkpt lat="42.882533" lon="-0.226622">
        <ele>1502.2</ele>
        <time>2020-06-28T13:07:05Z</time>
      </trkpt>
      <trkpt lat="42.882717" lon="-0.226599">
        <ele>1497.4</ele>
        <time>2020-06-28T13:07:23Z</time>
      </trkpt>
      <trkpt lat="42.882903" lon="-0.226495">
        <ele>1494.5</ele>
        <time>2020-06-28T13:07:40Z</time>
      </trkpt>
      <trkpt lat="42.883053" lon="-0.226460">
        <ele>1492.4</ele>
        <time>2020-06-28T13:07:58Z</time>
      </trkpt>
      <trkpt lat="42.883292" lon="-0.226390">
        <ele>1488.7</ele>
        <time>2020-06-28T13:08:17Z</time>
      </trkpt>
      <trkpt lat="42.883412" lon="-0.226331">
        <ele>1484.8</ele>
        <time>2020-06-28T13:08:32Z</time>
      </trkpt>
      <trkpt lat="42.883497" lon="-0.226290">
        <ele>1480.9</ele>
        <time>2020-06-28T13:08:47Z</time>
      </trkpt>
      <trkpt lat="42.883477" lon="-0.226446">
        <ele>1475.7</ele>
        <time>2020-06-28T13:09:03Z</time>
      </trkpt>
      <trkpt lat="42.883602" lon="-0.226408">
        <ele>1473.9</ele>
        <time>2020-06-28T13:09:18Z</time>
      </trkpt>
      <trkpt lat="42.883765" lon="-0.226444">
        <ele>1471.0</ele>
        <time>2020-06-28T13:09:35Z</time>
      </trkpt>
      <trkpt lat="42.883892" lon="-0.226384">
        <ele>1468.1</ele>
        <time>2020-06-28T13:09:48Z</time>
      </trkpt>
      <trkpt lat="42.884020" lon="-0.226320">
        <ele>1465.1</ele>
        <time>2020-06-28T13:10:03Z</time>
      </trkpt>
      <trkpt lat="42.884179" lon="-0.226254">
        <ele>1462.1</ele>
        <time>2020-06-28T13:10:16Z</time>
      </trkpt>
      <trkpt lat="42.884192" lon="-0.226321">
        <ele>1456.7</ele>
        <time>2020-06-28T13:10:39Z</time>
      </trkpt>
      <trkpt lat="42.884215" lon="-0.226474">
        <ele>1454.6</ele>
        <time>2020-06-28T13:10:52Z</time>
      </trkpt>
      <trkpt lat="42.884334" lon="-0.226507">
        <ele>1450.9</ele>
        <time>2020-06-28T13:11:06Z</time>
      </trkpt>
      <trkpt lat="42.884402" lon="-0.226396">
        <ele>1448.0</ele>
        <time>2020-06-28T13:11:19Z</time>
      </trkpt>
      <trkpt lat="42.884522" lon="-0.226321">
        <ele>1445.2</ele>
        <time>2020-06-28T13:11:31Z</time>
      </trkpt>
      <trkpt lat="42.884676" lon="-0.226268">
        <ele>1443.4</ele>
        <time>2020-06-28T13:11:42Z</time>
      </trkpt>
      <trkpt lat="42.884790" lon="-0.226234">
        <ele>1440.5</ele>
        <time>2020-06-28T13:11:55Z</time>
      </trkpt>
      <trkpt lat="42.884926" lon="-0.226203">
        <ele>1436.6</ele>
        <time>2020-06-28T13:12:11Z</time>
      </trkpt>
      <trkpt lat="42.885105" lon="-0.226173">
        <ele>1432.7</ele>
        <time>2020-06-28T13:12:23Z</time>
      </trkpt>
      <trkpt lat="42.885159" lon="-0.226193">
        <ele>1428.9</ele>
        <time>2020-06-28T13:12:38Z</time>
      </trkpt>
      <trkpt lat="42.885121" lon="-0.226362">
        <ele>1424.1</ele>
        <time>2020-06-28T13:12:55Z</time>
      </trkpt>
      <trkpt lat="42.885191" lon="-0.226361">
        <ele>1419.8</ele>
        <time>2020-06-28T13:13:13Z</time>
      </trkpt>
      <trkpt lat="42.885341" lon="-0.226339">
        <ele>1416.0</ele>
        <time>2020-06-28T13:13:32Z</time>
      </trkpt>
      <trkpt lat="42.885314" lon="-0.226415">
        <ele>1413.1</ele>
        <time>2020-06-28T13:13:48Z</time>
      </trkpt>
      <trkpt lat="42.885317" lon="-0.226590">
        <ele>1406.9</ele>
        <time>2020-06-28T13:14:06Z</time>
      </trkpt>
      <trkpt lat="42.885399" lon="-0.226578">
        <ele>1404.7</ele>
        <time>2020-06-28T13:14:16Z</time>
      </trkpt>
      <trkpt lat="42.885496" lon="-0.226547">
        <ele>1402.2</ele>
        <time>2020-06-28T13:14:26Z</time>
      </trkpt>
      <trkpt lat="42.885681" lon="-0.226520">
        <ele>1397.3</ele>
        <time>2020-06-28T13:14:43Z</time>
      </trkpt>
      <trkpt lat="42.885791" lon="-0.226405">
        <ele>1396.3</ele>
        <time>2020-06-28T13:14:54Z</time>
      </trkpt>
      <trkpt lat="42.885868" lon="-0.226286">
        <ele>1392.4</ele>
        <time>2020-06-28T13:15:08Z</time>
      </trkpt>
      <trkpt lat="42.885974" lon="-0.226230">
        <ele>1388.4</ele>
        <time>2020-06-28T13:15:25Z</time>
      </trkpt>
      <trkpt lat="42.886154" lon="-0.226154">
        <ele>1385.7</ele>
        <time>2020-06-28T13:15:37Z</time>
      </trkpt>
      <trkpt lat="42.886448" lon="-0.226030">
        <ele>1381.7</ele>
        <time>2020-06-28T13:15:52Z</time>
      </trkpt>
      <trkpt lat="42.886627" lon="-0.226068">
        <ele>1378.0</ele>
        <time>2020-06-28T13:16:09Z</time>
      </trkpt>
      <trkpt lat="42.886635" lon="-0.226104">
        <ele>1371.2</ele>
        <time>2020-06-28T13:16:42Z</time>
      </trkpt>
      <trkpt lat="42.886545" lon="-0.226104">
        <ele>1368.4</ele>
        <time>2020-06-28T13:16:58Z</time>
      </trkpt>
      <trkpt lat="42.886391" lon="-0.226404">
        <ele>1365.4</ele>
        <time>2020-06-28T13:17:12Z</time>
      </trkpt>
      <trkpt lat="42.886323" lon="-0.226529">
        <ele>1363.5</ele>
        <time>2020-06-28T13:17:23Z</time>
      </trkpt>
      <trkpt lat="42.886217" lon="-0.226609">
        <ele>1360.9</ele>
        <time>2020-06-28T13:17:32Z</time>
      </trkpt>
      <trkpt lat="42.886102" lon="-0.226683">
        <ele>1359.0</ele>
        <time>2020-06-28T13:17:40Z</time>
      </trkpt>
      <trkpt lat="42.886083" lon="-0.226883">
        <ele>1354.5</ele>
        <time>2020-06-28T13:17:55Z</time>
      </trkpt>
      <trkpt lat="42.886151" lon="-0.226897">
        <ele>1352.4</ele>
        <time>2020-06-28T13:18:06Z</time>
      </trkpt>
      <trkpt lat="42.886249" lon="-0.226860">
        <ele>1350.8</ele>
        <time>2020-06-28T13:18:14Z</time>
      </trkpt>
      <trkpt lat="42.886380" lon="-0.226801">
        <ele>1349.0</ele>
        <time>2020-06-28T13:18:23Z</time>
      </trkpt>
      <trkpt lat="42.886495" lon="-0.226738">
        <ele>1346.8</ele>
        <time>2020-06-28T13:18:33Z</time>
      </trkpt>
      <trkpt lat="42.886611" lon="-0.226738">
        <ele>1343.4</ele>
        <time>2020-06-28T13:18:46Z</time>
      </trkpt>
      <trkpt lat="42.886746" lon="-0.226770">
        <ele>1342.0</ele>
        <time>2020-06-28T13:19:00Z</time>
      </trkpt>
      <trkpt lat="42.886847" lon="-0.226866">
        <ele>1339.6</ele>
        <time>2020-06-28T13:19:10Z</time>
      </trkpt>
      <trkpt lat="42.886944" lon="-0.226955">
        <ele>1337.7</ele>
        <time>2020-06-28T13:19:20Z</time>
      </trkpt>
      <trkpt lat="42.886861" lon="-0.226987">
        <ele>1334.4</ele>
        <time>2020-06-28T13:19:32Z</time>
      </trkpt>
      <trkpt lat="42.886740" lon="-0.226987">
        <ele>1330.8</ele>
        <time>2020-06-28T13:19:50Z</time>
      </trkpt>
      <trkpt lat="42.886611" lon="-0.227096">
        <ele>1329.8</ele>
        <time>2020-06-28T13:20:00Z</time>
      </trkpt>
      <trkpt lat="42.886514" lon="-0.227174">
        <ele>1327.3</ele>
        <time>2020-06-28T13:20:11Z</time>
      </trkpt>
      <trkpt lat="42.886530" lon="-0.227299">
        <ele>1324.6</ele>
        <time>2020-06-28T13:20:26Z</time>
      </trkpt>
      <trkpt lat="42.886652" lon="-0.227297">
        <ele>1321.6</ele>
        <time>2020-06-28T13:20:38Z</time>
      </trkpt>
      <trkpt lat="42.886758" lon="-0.227339">
        <ele>1319.9</ele>
        <time>2020-06-28T13:20:48Z</time>
      </trkpt>
      <trkpt lat="42.886720" lon="-0.227423">
        <ele>1317.0</ele>
        <time>2020-06-28T13:20:56Z</time>
      </trkpt>
      <trkpt lat="42.886709" lon="-0.227549">
        <ele>1314.1</ele>
        <time>2020-06-28T13:21:05Z</time>
      </trkpt>
      <trkpt lat="42.886694" lon="-0.227674">
        <ele>1312.5</ele>
        <time>2020-06-28T13:21:33Z</time>
      </trkpt>
      <trkpt lat="42.886688" lon="-0.227787">
        <ele>1312.4</ele>
        <time>2020-06-28T13:22:18Z</time>
      </trkpt>
      <trkpt lat="42.886687" lon="-0.227942">
        <ele>1312.4</ele>
        <time>2020-06-28T13:22:30Z</time>
      </trkpt>
      <trkpt lat="42.886725" lon="-0.228085">
        <ele>1312.4</ele>
        <time>2020-06-28T13:22:39Z</time>
      </trkpt>
      <trkpt lat="42.886795" lon="-0.228179">
        <ele>1312.4</ele>
        <time>2020-06-28T13:22:48Z</time>
      </trkpt>
      <trkpt lat="42.886864" lon="-0.228256">
        <ele>1311.4</ele>
        <time>2020-06-28T13:23:08Z</time>
      </trkpt>
      <trkpt lat="42.886963" lon="-0.228329">
        <ele>1310.5</ele>
        <time>2020-06-28T13:23:18Z</time>
      </trkpt>
      <trkpt lat="42.887070" lon="-0.228420">
        <ele>1309.6</ele>
        <time>2020-06-28T13:23:29Z</time>
      </trkpt>
      <trkpt lat="42.887177" lon="-0.228442">
        <ele>1308.7</ele>
        <time>2020-06-28T13:23:37Z</time>
      </trkpt>
      <trkpt lat="42.887284" lon="-0.228470">
        <ele>1307.9</ele>
        <time>2020-06-28T13:23:45Z</time>
      </trkpt>
      <trkpt lat="42.887385" lon="-0.228491">
        <ele>1307.0</ele>
        <time>2020-06-28T13:23:53Z</time>
      </trkpt>
      <trkpt lat="42.887480" lon="-0.228538">
        <ele>1307.0</ele>
        <time>2020-06-28T13:24:01Z</time>
      </trkpt>
      <trkpt lat="42.887581" lon="-0.228589">
        <ele>1306.1</ele>
        <time>2020-06-28T13:24:09Z</time>
      </trkpt>
      <trkpt lat="42.887687" lon="-0.228635">
        <ele>1305.2</ele>
        <time>2020-06-28T13:24:16Z</time>
      </trkpt>
      <trkpt lat="42.887768" lon="-0.228727">
        <ele>1303.4</ele>
        <time>2020-06-28T13:24:24Z</time>
      </trkpt>
      <trkpt lat="42.887832" lon="-0.228852">
        <ele>1302.6</ele>
        <time>2020-06-28T13:24:37Z</time>
      </trkpt>
      <trkpt lat="42.887933" lon="-0.228932">
        <ele>1300.6</ele>
        <time>2020-06-28T13:24:51Z</time>
      </trkpt>
      <trkpt lat="42.888041" lon="-0.228938">
        <ele>1298.1</ele>
        <time>2020-06-28T13:24:59Z</time>
      </trkpt>
      <trkpt lat="42.888164" lon="-0.228923">
        <ele>1296.9</ele>
        <time>2020-06-28T13:25:07Z</time>
      </trkpt>
      <trkpt lat="42.888259" lon="-0.228997">
        <ele>1295.1</ele>
        <time>2020-06-28T13:25:16Z</time>
      </trkpt>
      <trkpt lat="42.888386" lon="-0.229018">
        <ele>1295.1</ele>
        <time>2020-06-28T13:25:24Z</time>
      </trkpt>
      <trkpt lat="42.888485" lon="-0.228961">
        <ele>1294.1</ele>
        <time>2020-06-28T13:25:31Z</time>
      </trkpt>
      <trkpt lat="42.888583" lon="-0.228901">
        <ele>1293.3</ele>
        <time>2020-06-28T13:25:38Z</time>
      </trkpt>
      <trkpt lat="42.888675" lon="-0.228837">
        <ele>1292.5</ele>
        <time>2020-06-28T13:25:45Z</time>
      </trkpt>
      <trkpt lat="42.888782" lon="-0.228778">
        <ele>1290.8</ele>
        <time>2020-06-28T13:25:52Z</time>
      </trkpt>
      <trkpt lat="42.888883" lon="-0.228734">
        <ele>1290.0</ele>
        <time>2020-06-28T13:25:59Z</time>
      </trkpt>
      <trkpt lat="42.888974" lon="-0.228679">
        <ele>1288.4</ele>
        <time>2020-06-28T13:26:07Z</time>
      </trkpt>
      <trkpt lat="42.889053" lon="-0.228583">
        <ele>1287.5</ele>
        <time>2020-06-28T13:26:16Z</time>
      </trkpt>
      <trkpt lat="42.889123" lon="-0.228465">
        <ele>1285.8</ele>
        <time>2020-06-28T13:26:25Z</time>
      </trkpt>
      <trkpt lat="42.889192" lon="-0.228353">
        <ele>1285.1</ele>
        <time>2020-06-28T13:26:33Z</time>
      </trkpt>
      <trkpt lat="42.889284" lon="-0.228260">
        <ele>1284.1</ele>
        <time>2020-06-28T13:26:41Z</time>
      </trkpt>
      <trkpt lat="42.889399" lon="-0.228178">
        <ele>1282.3</ele>
        <time>2020-06-28T13:26:49Z</time>
      </trkpt>
      <trkpt lat="42.889492" lon="-0.228115">
        <ele>1281.5</ele>
        <time>2020-06-28T13:26:56Z</time>
      </trkpt>
      <trkpt lat="42.889609" lon="-0.228075">
        <ele>1279.9</ele>
        <time>2020-06-28T13:27:03Z</time>
      </trkpt>
      <trkpt lat="42.889702" lon="-0.228008">
        <ele>1279.0</ele>
        <time>2020-06-28T13:27:10Z</time>
      </trkpt>
      <trkpt lat="42.889788" lon="-0.227939">
        <ele>1277.9</ele>
        <time>2020-06-28T13:27:18Z</time>
      </trkpt>
      <trkpt lat="42.889881" lon="-0.227871">
        <ele>1276.4</ele>
        <time>2020-06-28T13:27:27Z</time>
      </trkpt>
      <trkpt lat="42.889983" lon="-0.227888">
        <ele>1275.5</ele>
        <time>2020-06-28T13:27:34Z</time>
      </trkpt>
      <trkpt lat="42.890085" lon="-0.227922">
        <ele>1273.8</ele>
        <time>2020-06-28T13:27:42Z</time>
      </trkpt>
      <trkpt lat="42.890208" lon="-0.227965">
        <ele>1273.0</ele>
        <time>2020-06-28T13:27:51Z</time>
      </trkpt>
      <trkpt lat="42.890309" lon="-0.227959">
        <ele>1270.4</ele>
        <time>2020-06-28T13:28:01Z</time>
      </trkpt>
      <trkpt lat="42.890411" lon="-0.227934">
        <ele>1269.3</ele>
        <time>2020-06-28T13:28:09Z</time>
      </trkpt>
      <trkpt lat="42.890527" lon="-0.227899">
        <ele>1268.4</ele>
        <time>2020-06-28T13:28:16Z</time>
      </trkpt>
      <trkpt lat="42.890637" lon="-0.227858">
        <ele>1266.6</ele>
        <time>2020-06-28T13:28:23Z</time>
      </trkpt>
      <trkpt lat="42.890763" lon="-0.227824">
        <ele>1265.7</ele>
        <time>2020-06-28T13:28:32Z</time>
      </trkpt>
      <trkpt lat="42.890864" lon="-0.227760">
        <ele>1264.7</ele>
        <time>2020-06-28T13:28:40Z</time>
      </trkpt>
      <trkpt lat="42.890960" lon="-0.227670">
        <ele>1262.6</ele>
        <time>2020-06-28T13:28:50Z</time>
      </trkpt>
      <trkpt lat="42.891053" lon="-0.227604">
        <ele>1261.6</ele>
        <time>2020-06-28T13:28:59Z</time>
      </trkpt>
      <trkpt lat="42.891139" lon="-0.227492">
        <ele>1259.5</ele>
        <time>2020-06-28T13:29:09Z</time>
      </trkpt>
      <trkpt lat="42.891238" lon="-0.227384">
        <ele>1259.4</ele>
        <time>2020-06-28T13:29:18Z</time>
      </trkpt>
      <trkpt lat="42.891323" lon="-0.227269">
        <ele>1259.4</ele>
        <time>2020-06-28T13:29:28Z</time>
      </trkpt>
      <trkpt lat="42.891405" lon="-0.227153">
        <ele>1258.5</ele>
        <time>2020-06-28T13:29:37Z</time>
      </trkpt>
      <trkpt lat="42.891501" lon="-0.227073">
        <ele>1256.7</ele>
        <time>2020-06-28T13:29:46Z</time>
      </trkpt>
      <trkpt lat="42.891623" lon="-0.227006">
        <ele>1256.7</ele>
        <time>2020-06-28T13:29:54Z</time>
      </trkpt>
      <trkpt lat="42.891722" lon="-0.226913">
        <ele>1256.6</ele>
        <time>2020-06-28T13:30:04Z</time>
      </trkpt>
      <trkpt lat="42.891816" lon="-0.226824">
        <ele>1256.5</ele>
        <time>2020-06-28T13:30:12Z</time>
      </trkpt>
      <trkpt lat="42.891923" lon="-0.226749">
        <ele>1256.5</ele>
        <time>2020-06-28T13:30:20Z</time>
      </trkpt>
      <trkpt lat="42.892027" lon="-0.226674">
        <ele>1256.4</ele>
        <time>2020-06-28T13:30:29Z</time>
      </trkpt>
      <trkpt lat="42.892131" lon="-0.226601">
        <ele>1256.3</ele>
        <time>2020-06-28T13:30:37Z</time>
      </trkpt>
      <trkpt lat="42.892240" lon="-0.226550">
        <ele>1254.4</ele>
        <time>2020-06-28T13:30:46Z</time>
      </trkpt>
      <trkpt lat="42.892335" lon="-0.226477">
        <ele>1256.8</ele>
        <time>2020-06-28T13:30:54Z</time>
      </trkpt>
      <trkpt lat="42.892418" lon="-0.226427">
        <ele>1256.4</ele>
        <time>2020-06-28T13:31:02Z</time>
      </trkpt>
      <trkpt lat="42.892510" lon="-0.226381">
        <ele>1253.7</ele>
        <time>2020-06-28T13:31:10Z</time>
      </trkpt>
      <trkpt lat="42.892623" lon="-0.226328">
        <ele>1253.7</ele>
        <time>2020-06-28T13:31:19Z</time>
      </trkpt>
      <trkpt lat="42.892712" lon="-0.226273">
        <ele>1253.6</ele>
        <time>2020-06-28T13:31:27Z</time>
      </trkpt>
      <trkpt lat="42.892834" lon="-0.226230">
        <ele>1253.6</ele>
        <time>2020-06-28T13:31:36Z</time>
      </trkpt>
      <trkpt lat="42.892932" lon="-0.226164">
        <ele>1253.6</ele>
        <time>2020-06-28T13:31:44Z</time>
      </trkpt>
      <trkpt lat="42.893021" lon="-0.226074">
        <ele>1253.5</ele>
        <time>2020-06-28T13:31:52Z</time>
      </trkpt>
      <trkpt lat="42.893110" lon="-0.225995">
        <ele>1253.5</ele>
        <time>2020-06-28T13:31:59Z</time>
      </trkpt>
      <trkpt lat="42.893215" lon="-0.225949">
        <ele>1252.4</ele>
        <time>2020-06-28T13:32:06Z</time>
      </trkpt>
      <trkpt lat="42.893354" lon="-0.225900">
        <ele>1251.3</ele>
        <time>2020-06-28T13:32:16Z</time>
      </trkpt>
      <trkpt lat="42.893434" lon="-0.225820">
        <ele>1250.5</ele>
        <time>2020-06-28T13:32:27Z</time>
      </trkpt>
      <trkpt lat="42.893546" lon="-0.225766">
        <ele>1250.4</ele>
        <time>2020-06-28T13:32:35Z</time>
      </trkpt>
      <trkpt lat="42.893663" lon="-0.225703">
        <ele>1249.7</ele>
        <time>2020-06-28T13:32:42Z</time>
      </trkpt>
      <trkpt lat="42.893765" lon="-0.225610">
        <ele>1249.7</ele>
        <time>2020-06-28T13:32:49Z</time>
      </trkpt>
      <trkpt lat="42.893869" lon="-0.225567">
        <ele>1249.6</ele>
        <time>2020-06-28T13:32:56Z</time>
      </trkpt>
      <trkpt lat="42.893969" lon="-0.225513">
        <ele>1249.6</ele>
        <time>2020-06-28T13:33:03Z</time>
      </trkpt>
      <trkpt lat="42.894069" lon="-0.225410">
        <ele>1249.6</ele>
        <time>2020-06-28T13:33:11Z</time>
      </trkpt>
      <trkpt lat="42.894162" lon="-0.225327">
        <ele>1248.6</ele>
        <time>2020-06-28T13:33:18Z</time>
      </trkpt>
      <trkpt lat="42.894254" lon="-0.225317">
        <ele>1245.9</ele>
        <time>2020-06-28T13:33:25Z</time>
      </trkpt>
      <trkpt lat="42.894359" lon="-0.225313">
        <ele>1245.8</ele>
        <time>2020-06-28T13:33:33Z</time>
      </trkpt>
      <trkpt lat="42.894488" lon="-0.225318">
        <ele>1244.8</ele>
        <time>2020-06-28T13:33:40Z</time>
      </trkpt>
      <trkpt lat="42.894605" lon="-0.225332">
        <ele>1243.1</ele>
        <time>2020-06-28T13:33:47Z</time>
      </trkpt>
      <trkpt lat="42.894700" lon="-0.225327">
        <ele>1241.2</ele>
        <time>2020-06-28T13:33:54Z</time>
      </trkpt>
      <trkpt lat="42.894790" lon="-0.225346">
        <ele>1240.5</ele>
        <time>2020-06-28T13:34:00Z</time>
      </trkpt>
      <trkpt lat="42.894888" lon="-0.225350">
        <ele>1238.6</ele>
        <time>2020-06-28T13:34:08Z</time>
      </trkpt>
      <trkpt lat="42.894985" lon="-0.225324">
        <ele>1237.7</ele>
        <time>2020-06-28T13:34:15Z</time>
      </trkpt>
      <trkpt lat="42.895079" lon="-0.225259">
        <ele>1235.7</ele>
        <time>2020-06-28T13:34:22Z</time>
      </trkpt>
      <trkpt lat="42.895187" lon="-0.225200">
        <ele>1235.0</ele>
        <time>2020-06-28T13:34:29Z</time>
      </trkpt>
      <trkpt lat="42.895275" lon="-0.225135">
        <ele>1234.1</ele>
        <time>2020-06-28T13:34:36Z</time>
      </trkpt>
      <trkpt lat="42.895374" lon="-0.225092">
        <ele>1231.7</ele>
        <time>2020-06-28T13:34:43Z</time>
      </trkpt>
      <trkpt lat="42.895486" lon="-0.225116">
        <ele>1231.7</ele>
        <time>2020-06-28T13:34:50Z</time>
      </trkpt>
      <trkpt lat="42.895573" lon="-0.225131">
        <ele>1230.2</ele>
        <time>2020-06-28T13:34:57Z</time>
      </trkpt>
      <trkpt lat="42.895667" lon="-0.225103">
        <ele>1229.4</ele>
        <time>2020-06-28T13:35:04Z</time>
      </trkpt>
      <trkpt lat="42.895766" lon="-0.225077">
        <ele>1228.6</ele>
        <time>2020-06-28T13:35:12Z</time>
      </trkpt>
      <trkpt lat="42.895853" lon="-0.225009">
        <ele>1226.9</ele>
        <time>2020-06-28T13:35:20Z</time>
      </trkpt>
      <trkpt lat="42.895945" lon="-0.224938">
        <ele>1225.7</ele>
        <time>2020-06-28T13:35:28Z</time>
      </trkpt>
      <trkpt lat="42.896038" lon="-0.224875">
        <ele>1224.1</ele>
        <time>2020-06-28T13:35:35Z</time>
      </trkpt>
      <trkpt lat="42.896152" lon="-0.224794">
        <ele>1223.3</ele>
        <time>2020-06-28T13:35:43Z</time>
      </trkpt>
      <trkpt lat="42.896252" lon="-0.224718">
        <ele>1222.3</ele>
        <time>2020-06-28T13:35:50Z</time>
      </trkpt>
      <trkpt lat="42.896340" lon="-0.224662">
        <ele>1221.5</ele>
        <time>2020-06-28T13:35:57Z</time>
      </trkpt>
      <trkpt lat="42.896442" lon="-0.224623">
        <ele>1219.6</ele>
        <time>2020-06-28T13:36:04Z</time>
      </trkpt>
      <trkpt lat="42.896532" lon="-0.224558">
        <ele>1219.6</ele>
        <time>2020-06-28T13:36:10Z</time>
      </trkpt>
      <trkpt lat="42.896589" lon="-0.224438">
        <ele>1217.8</ele>
        <time>2020-06-28T13:36:17Z</time>
      </trkpt>
      <trkpt lat="42.896656" lon="-0.224329">
        <ele>1216.5</ele>
        <time>2020-06-28T13:36:24Z</time>
      </trkpt>
      <trkpt lat="42.896736" lon="-0.224239">
        <ele>1214.5</ele>
        <time>2020-06-28T13:36:31Z</time>
      </trkpt>
      <trkpt lat="42.896830" lon="-0.224178">
        <ele>1213.2</ele>
        <time>2020-06-28T13:36:38Z</time>
      </trkpt>
      <trkpt lat="42.896911" lon="-0.224109">
        <ele>1211.9</ele>
        <time>2020-06-28T13:36:46Z</time>
      </trkpt>
      <trkpt lat="42.896993" lon="-0.224029">
        <ele>1209.7</ele>
        <time>2020-06-28T13:36:54Z</time>
      </trkpt>
      <trkpt lat="42.897096" lon="-0.223981">
        <ele>1208.4</ele>
        <time>2020-06-28T13:37:01Z</time>
      </trkpt>
      <trkpt lat="42.897207" lon="-0.223985">
        <ele>1207.2</ele>
        <time>2020-06-28T13:37:10Z</time>
      </trkpt>
      <trkpt lat="42.897312" lon="-0.223978">
        <ele>1205.4</ele>
        <time>2020-06-28T13:37:17Z</time>
      </trkpt>
      <trkpt lat="42.897416" lon="-0.223970">
        <ele>1204.7</ele>
        <time>2020-06-28T13:37:24Z</time>
      </trkpt>
      <trkpt lat="42.897505" lon="-0.223977">
        <ele>1204.0</ele>
        <time>2020-06-28T13:37:30Z</time>
      </trkpt>
      <trkpt lat="42.897600" lon="-0.223928">
        <ele>1202.9</ele>
        <time>2020-06-28T13:37:37Z</time>
      </trkpt>
      <trkpt lat="42.897684" lon="-0.223903">
        <ele>1201.8</ele>
        <time>2020-06-28T13:37:45Z</time>
      </trkpt>
      <trkpt lat="42.897787" lon="-0.223875">
        <ele>1200.8</ele>
        <time>2020-06-28T13:37:53Z</time>
      </trkpt>
      <trkpt lat="42.897910" lon="-0.223821">
        <ele>1199.2</ele>
        <time>2020-06-28T13:38:02Z</time>
      </trkpt>
      <trkpt lat="42.898022" lon="-0.223796">
        <ele>1197.1</ele>
        <time>2020-06-28T13:38:11Z</time>
      </trkpt>
      <trkpt lat="42.898141" lon="-0.223744">
        <ele>1194.9</ele>
        <time>2020-06-28T13:38:21Z</time>
      </trkpt>
      <trkpt lat="42.898251" lon="-0.223693">
        <ele>1193.1</ele>
        <time>2020-06-28T13:38:32Z</time>
      </trkpt>
      <trkpt lat="42.898354" lon="-0.223669">
        <ele>1191.3</ele>
        <time>2020-06-28T13:38:43Z</time>
      </trkpt>
      <trkpt lat="42.898492" lon="-0.223663">
        <ele>1189.6</ele>
        <time>2020-06-28T13:38:52Z</time>
      </trkpt>
      <trkpt lat="42.898634" lon="-0.223550">
        <ele>1188.5</ele>
        <time>2020-06-28T13:39:04Z</time>
      </trkpt>
      <trkpt lat="42.898757" lon="-0.223507">
        <ele>1186.9</ele>
        <time>2020-06-28T13:39:11Z</time>
      </trkpt>
      <trkpt lat="42.898863" lon="-0.223448">
        <ele>1185.4</ele>
        <time>2020-06-28T13:39:19Z</time>
      </trkpt>
      <trkpt lat="42.898966" lon="-0.223384">
        <ele>1185.4</ele>
        <time>2020-06-28T13:39:27Z</time>
      </trkpt>
      <trkpt lat="42.899072" lon="-0.223318">
        <ele>1184.5</ele>
        <time>2020-06-28T13:39:36Z</time>
      </trkpt>
      <trkpt lat="42.899187" lon="-0.223254">
        <ele>1184.6</ele>
        <time>2020-06-28T13:39:45Z</time>
      </trkpt>
      <trkpt lat="42.899292" lon="-0.223195">
        <ele>1183.8</ele>
        <time>2020-06-28T13:39:54Z</time>
      </trkpt>
      <trkpt lat="42.899401" lon="-0.223126">
        <ele>1183.7</ele>
        <time>2020-06-28T13:40:02Z</time>
      </trkpt>
      <trkpt lat="42.899495" lon="-0.223072">
        <ele>1182.9</ele>
        <time>2020-06-28T13:40:09Z</time>
      </trkpt>
      <trkpt lat="42.899599" lon="-0.223065">
        <ele>1182.2</ele>
        <time>2020-06-28T13:40:18Z</time>
      </trkpt>
      <trkpt lat="42.899694" lon="-0.223044">
        <ele>1181.4</ele>
        <time>2020-06-28T13:40:25Z</time>
      </trkpt>
      <trkpt lat="42.899803" lon="-0.223009">
        <ele>1180.6</ele>
        <time>2020-06-28T13:40:33Z</time>
      </trkpt>
      <trkpt lat="42.899922" lon="-0.223007">
        <ele>1179.6</ele>
        <time>2020-06-28T13:40:42Z</time>
      </trkpt>
      <trkpt lat="42.900019" lon="-0.222963">
        <ele>1179.6</ele>
        <time>2020-06-28T13:40:50Z</time>
      </trkpt>
      <trkpt lat="42.900047" lon="-0.222824">
        <ele>1178.8</ele>
        <time>2020-06-28T13:40:57Z</time>
      </trkpt>
      <trkpt lat="42.900053" lon="-0.222683">
        <ele>1177.2</ele>
        <time>2020-06-28T13:41:04Z</time>
      </trkpt>
      <trkpt lat="42.900008" lon="-0.222550">
        <ele>1176.3</ele>
        <time>2020-06-28T13:41:13Z</time>
      </trkpt>
      <trkpt lat="42.899965" lon="-0.222425">
        <ele>1173.6</ele>
        <time>2020-06-28T13:41:20Z</time>
      </trkpt>
      <trkpt lat="42.899923" lon="-0.222291">
        <ele>1172.5</ele>
        <time>2020-06-28T13:41:26Z</time>
      </trkpt>
      <trkpt lat="42.899960" lon="-0.222163">
        <ele>1170.7</ele>
        <time>2020-06-28T13:41:33Z</time>
      </trkpt>
      <trkpt lat="42.900005" lon="-0.222056">
        <ele>1169.9</ele>
        <time>2020-06-28T13:41:39Z</time>
      </trkpt>
      <trkpt lat="42.900030" lon="-0.221919">
        <ele>1169.2</ele>
        <time>2020-06-28T13:41:46Z</time>
      </trkpt>
      <trkpt lat="42.900065" lon="-0.221808">
        <ele>1168.4</ele>
        <time>2020-06-28T13:41:53Z</time>
      </trkpt>
      <trkpt lat="42.900131" lon="-0.221701">
        <ele>1167.7</ele>
        <time>2020-06-28T13:42:00Z</time>
      </trkpt>
      <trkpt lat="42.900200" lon="-0.221592">
        <ele>1166.9</ele>
        <time>2020-06-28T13:42:07Z</time>
      </trkpt>
      <trkpt lat="42.900272" lon="-0.221502">
        <ele>1166.0</ele>
        <time>2020-06-28T13:42:14Z</time>
      </trkpt>
      <trkpt lat="42.900325" lon="-0.221380">
        <ele>1164.8</ele>
        <time>2020-06-28T13:42:21Z</time>
      </trkpt>
      <trkpt lat="42.900379" lon="-0.221270">
        <ele>1163.7</ele>
        <time>2020-06-28T13:42:28Z</time>
      </trkpt>
      <trkpt lat="42.900464" lon="-0.221201">
        <ele>1163.0</ele>
        <time>2020-06-28T13:42:36Z</time>
      </trkpt>
      <trkpt lat="42.900534" lon="-0.221114">
        <ele>1163.0</ele>
        <time>2020-06-28T13:42:45Z</time>
      </trkpt>
      <trkpt lat="42.900623" lon="-0.221038">
        <ele>1162.3</ele>
        <time>2020-06-28T13:42:52Z</time>
      </trkpt>
      <trkpt lat="42.900707" lon="-0.220983">
        <ele>1162.3</ele>
        <time>2020-06-28T13:42:58Z</time>
      </trkpt>
      <trkpt lat="42.900797" lon="-0.220905">
        <ele>1161.5</ele>
        <time>2020-06-28T13:43:05Z</time>
      </trkpt>
      <trkpt lat="42.900884" lon="-0.220829">
        <ele>1161.5</ele>
        <time>2020-06-28T13:43:12Z</time>
      </trkpt>
      <trkpt lat="42.900977" lon="-0.220759">
        <ele>1160.7</ele>
        <time>2020-06-28T13:43:19Z</time>
      </trkpt>
      <trkpt lat="42.901078" lon="-0.220695">
        <ele>1160.7</ele>
        <time>2020-06-28T13:43:26Z</time>
      </trkpt>
      <trkpt lat="42.901168" lon="-0.220607">
        <ele>1160.8</ele>
        <time>2020-06-28T13:43:33Z</time>
      </trkpt>
      <trkpt lat="42.901248" lon="-0.220523">
        <ele>1160.7</ele>
        <time>2020-06-28T13:43:39Z</time>
      </trkpt>
      <trkpt lat="42.901318" lon="-0.220440">
        <ele>1159.9</ele>
        <time>2020-06-28T13:43:45Z</time>
      </trkpt>
      <trkpt lat="42.901402" lon="-0.220350">
        <ele>1159.9</ele>
        <time>2020-06-28T13:43:52Z</time>
      </trkpt>
      <trkpt lat="42.901458" lon="-0.220241">
        <ele>1159.1</ele>
        <time>2020-06-28T13:43:58Z</time>
      </trkpt>
      <trkpt lat="42.901530" lon="-0.220141">
        <ele>1158.3</ele>
        <time>2020-06-28T13:44:05Z</time>
      </trkpt>
      <trkpt lat="42.901610" lon="-0.220056">
        <ele>1158.3</ele>
        <time>2020-06-28T13:44:12Z</time>
      </trkpt>
      <trkpt lat="42.901687" lon="-0.219975">
        <ele>1157.5</ele>
        <time>2020-06-28T13:44:19Z</time>
      </trkpt>
      <trkpt lat="42.901765" lon="-0.219909">
        <ele>1156.7</ele>
        <time>2020-06-28T13:44:25Z</time>
      </trkpt>
      <trkpt lat="42.901851" lon="-0.219852">
        <ele>1155.8</ele>
        <time>2020-06-28T13:44:31Z</time>
      </trkpt>
      <trkpt lat="42.901922" lon="-0.219780">
        <ele>1155.8</ele>
        <time>2020-06-28T13:44:37Z</time>
      </trkpt>
      <trkpt lat="42.902010" lon="-0.219717">
        <ele>1155.9</ele>
        <time>2020-06-28T13:44:44Z</time>
      </trkpt>
      <trkpt lat="42.902095" lon="-0.219661">
        <ele>1155.2</ele>
        <time>2020-06-28T13:44:51Z</time>
      </trkpt>
      <trkpt lat="42.902184" lon="-0.219626">
        <ele>1155.2</ele>
        <time>2020-06-28T13:44:59Z</time>
      </trkpt>
      <trkpt lat="42.902261" lon="-0.219547">
        <ele>1155.2</ele>
        <time>2020-06-28T13:45:06Z</time>
      </trkpt>
      <trkpt lat="42.902314" lon="-0.219450">
        <ele>1155.3</ele>
        <time>2020-06-28T13:45:13Z</time>
      </trkpt>
      <trkpt lat="42.902407" lon="-0.219374">
        <ele>1155.3</ele>
        <time>2020-06-28T13:45:20Z</time>
      </trkpt>
      <trkpt lat="42.902480" lon="-0.219295">
        <ele>1155.3</ele>
        <time>2020-06-28T13:45:26Z</time>
      </trkpt>
      <trkpt lat="42.902559" lon="-0.219223">
        <ele>1154.5</ele>
        <time>2020-06-28T13:45:33Z</time>
      </trkpt>
      <trkpt lat="42.902620" lon="-0.219131">
        <ele>1154.5</ele>
        <time>2020-06-28T13:45:41Z</time>
      </trkpt>
      <trkpt lat="42.902662" lon="-0.219003">
        <ele>1154.6</ele>
        <time>2020-06-28T13:45:49Z</time>
      </trkpt>
      <trkpt lat="42.902689" lon="-0.218877">
        <ele>1154.6</ele>
        <time>2020-06-28T13:45:56Z</time>
      </trkpt>
      <trkpt lat="42.902725" lon="-0.218743">
        <ele>1154.7</ele>
        <time>2020-06-28T13:46:04Z</time>
      </trkpt>
      <trkpt lat="42.902751" lon="-0.218616">
        <ele>1154.7</ele>
        <time>2020-06-28T13:46:11Z</time>
      </trkpt>
      <trkpt lat="42.902786" lon="-0.218471">
        <ele>1154.7</ele>
        <time>2020-06-28T13:46:21Z</time>
      </trkpt>
      <trkpt lat="42.902824" lon="-0.218360">
        <ele>1154.6</ele>
        <time>2020-06-28T13:46:28Z</time>
      </trkpt>
      <trkpt lat="42.902871" lon="-0.218234">
        <ele>1154.7</ele>
        <time>2020-06-28T13:46:36Z</time>
      </trkpt>
      <trkpt lat="42.902913" lon="-0.218123">
        <ele>1154.8</ele>
        <time>2020-06-28T13:46:44Z</time>
      </trkpt>
      <trkpt lat="42.902953" lon="-0.218007">
        <ele>1154.8</ele>
        <time>2020-06-28T13:46:51Z</time>
      </trkpt>
      <trkpt lat="42.902998" lon="-0.217897">
        <ele>1157.1</ele>
        <time>2020-06-28T13:46:58Z</time>
      </trkpt>
      <trkpt lat="42.903045" lon="-0.217786">
        <ele>1157.1</ele>
        <time>2020-06-28T13:47:05Z</time>
      </trkpt>
      <trkpt lat="42.903085" lon="-0.217674">
        <ele>1157.1</ele>
        <time>2020-06-28T13:47:12Z</time>
      </trkpt>
      <trkpt lat="42.903133" lon="-0.217558">
        <ele>1157.1</ele>
        <time>2020-06-28T13:47:20Z</time>
      </trkpt>
      <trkpt lat="42.903198" lon="-0.217440">
        <ele>1157.2</ele>
        <time>2020-06-28T13:47:28Z</time>
      </trkpt>
      <trkpt lat="42.903265" lon="-0.217341">
        <ele>1157.2</ele>
        <time>2020-06-28T13:47:35Z</time>
      </trkpt>
      <trkpt lat="42.903339" lon="-0.217242">
        <ele>1157.2</ele>
        <time>2020-06-28T13:47:42Z</time>
      </trkpt>
      <trkpt lat="42.903417" lon="-0.217147">
        <ele>1157.2</ele>
        <time>2020-06-28T13:47:49Z</time>
      </trkpt>
      <trkpt lat="42.903489" lon="-0.217051">
        <ele>1157.2</ele>
        <time>2020-06-28T13:47:56Z</time>
      </trkpt>
      <trkpt lat="42.903567" lon="-0.216960">
        <ele>1157.2</ele>
        <time>2020-06-28T13:48:03Z</time>
      </trkpt>
      <trkpt lat="42.903649" lon="-0.216906">
        <ele>1157.3</ele>
        <time>2020-06-28T13:48:09Z</time>
      </trkpt>
      <trkpt lat="42.903748" lon="-0.216874">
        <ele>1157.3</ele>
        <time>2020-06-28T13:48:16Z</time>
      </trkpt>
      <trkpt lat="42.903833" lon="-0.216842">
        <ele>1157.4</ele>
        <time>2020-06-28T13:48:23Z</time>
      </trkpt>
      <trkpt lat="42.903925" lon="-0.216801">
        <ele>1157.3</ele>
        <time>2020-06-28T13:48:30Z</time>
      </trkpt>
      <trkpt lat="42.904021" lon="-0.216750">
        <ele>1157.3</ele>
        <time>2020-06-28T13:48:37Z</time>
      </trkpt>
      <trkpt lat="42.904120" lon="-0.216701">
        <ele>1155.1</ele>
        <time>2020-06-28T13:48:44Z</time>
      </trkpt>
      <trkpt lat="42.904217" lon="-0.216666">
        <ele>1155.1</ele>
        <time>2020-06-28T13:48:51Z</time>
      </trkpt>
      <trkpt lat="42.904318" lon="-0.216635">
        <ele>1155.2</ele>
        <time>2020-06-28T13:48:58Z</time>
      </trkpt>
      <trkpt lat="42.904408" lon="-0.216576">
        <ele>1155.2</ele>
        <time>2020-06-28T13:49:06Z</time>
      </trkpt>
      <trkpt lat="42.904495" lon="-0.216518">
        <ele>1154.4</ele>
        <time>2020-06-28T13:49:18Z</time>
      </trkpt>
      <trkpt lat="42.904537" lon="-0.216395">
        <ele>1154.4</ele>
        <time>2020-06-28T13:49:25Z</time>
      </trkpt>
      <trkpt lat="42.904516" lon="-0.216280">
        <ele>1154.4</ele>
        <time>2020-06-28T13:49:33Z</time>
      </trkpt>
      <trkpt lat="42.904479" lon="-0.216156">
        <ele>1154.5</ele>
        <time>2020-06-28T13:49:39Z</time>
      </trkpt>
      <trkpt lat="42.904466" lon="-0.216030">
        <ele>1154.5</ele>
        <time>2020-06-28T13:49:46Z</time>
      </trkpt>
      <trkpt lat="42.904482" lon="-0.215907">
        <ele>1154.5</ele>
        <time>2020-06-28T13:50:00Z</time>
      </trkpt>
      <trkpt lat="42.904534" lon="-0.215798">
        <ele>1154.5</ele>
        <time>2020-06-28T13:50:10Z</time>
      </trkpt>
      <trkpt lat="42.904616" lon="-0.215719">
        <ele>1154.5</ele>
        <time>2020-06-28T13:50:18Z</time>
      </trkpt>
      <trkpt lat="42.904693" lon="-0.215640">
        <ele>1154.5</ele>
        <time>2020-06-28T13:50:25Z</time>
      </trkpt>
      <trkpt lat="42.904779" lon="-0.215583">
        <ele>1154.5</ele>
        <time>2020-06-28T13:50:32Z</time>
      </trkpt>
      <trkpt lat="42.904863" lon="-0.215523">
        <ele>1154.5</ele>
        <time>2020-06-28T13:50:39Z</time>
      </trkpt>
      <trkpt lat="42.904953" lon="-0.215449">
        <ele>1154.5</ele>
        <time>2020-06-28T13:50:47Z</time>
      </trkpt>
      <trkpt lat="42.905022" lon="-0.215361">
        <ele>1154.6</ele>
        <time>2020-06-28T13:50:54Z</time>
      </trkpt>
      <trkpt lat="42.905090" lon="-0.215244">
        <ele>1154.6</ele>
        <time>2020-06-28T13:51:02Z</time>
      </trkpt>
      <trkpt lat="42.905152" lon="-0.215139">
        <ele>1154.6</ele>
        <time>2020-06-28T13:51:09Z</time>
      </trkpt>
      <trkpt lat="42.905215" lon="-0.215038">
        <ele>1154.5</ele>
        <time>2020-06-28T13:51:16Z</time>
      </trkpt>
      <trkpt lat="42.905247" lon="-0.214927">
        <ele>1154.5</ele>
        <time>2020-06-28T13:51:23Z</time>
      </trkpt>
      <trkpt lat="42.905275" lon="-0.214788">
        <ele>1154.4</ele>
        <time>2020-06-28T13:51:31Z</time>
      </trkpt>
      <trkpt lat="42.905296" lon="-0.214647">
        <ele>1154.5</ele>
        <time>2020-06-28T13:51:38Z</time>
      </trkpt>
      <trkpt lat="42.905298" lon="-0.214504">
        <ele>1154.5</ele>
        <time>2020-06-28T13:51:46Z</time>
      </trkpt>
      <trkpt lat="42.905313" lon="-0.214377">
        <ele>1154.5</ele>
        <time>2020-06-28T13:51:52Z</time>
      </trkpt>
      <trkpt lat="42.905331" lon="-0.214233">
        <ele>1154.5</ele>
        <time>2020-06-28T13:52:00Z</time>
      </trkpt>
      <trkpt lat="42.905352" lon="-0.214109">
        <ele>1154.5</ele>
        <time>2020-06-28T13:52:07Z</time>
      </trkpt>
      <trkpt lat="42.905382" lon="-0.213969">
        <ele>1154.5</ele>
        <time>2020-06-28T13:52:15Z</time>
      </trkpt>
      <trkpt lat="42.905411" lon="-0.213835">
        <ele>1154.5</ele>
        <time>2020-06-28T13:52:22Z</time>
      </trkpt>
      <trkpt lat="42.905401" lon="-0.213698">
        <ele>1154.5</ele>
        <time>2020-06-28T13:52:29Z</time>
      </trkpt>
      <trkpt lat="42.905405" lon="-0.213569">
        <ele>1154.4</ele>
        <time>2020-06-28T13:52:36Z</time>
      </trkpt>
      <trkpt lat="42.905355" lon="-0.213448">
        <ele>1154.5</ele>
        <time>2020-06-28T13:52:43Z</time>
      </trkpt>
      <trkpt lat="42.905262" lon="-0.213380">
        <ele>1154.4</ele>
        <time>2020-06-28T13:52:51Z</time>
      </trkpt>
      <trkpt lat="42.905165" lon="-0.213315">
        <ele>1154.4</ele>
        <time>2020-06-28T13:52:59Z</time>
      </trkpt>
      <trkpt lat="42.905057" lon="-0.213242">
        <ele>1154.4</ele>
        <time>2020-06-28T13:53:09Z</time>
      </trkpt>
      <trkpt lat="42.904958" lon="-0.213217">
        <ele>1154.4</ele>
        <time>2020-06-28T13:53:16Z</time>
      </trkpt>
      <trkpt lat="42.904863" lon="-0.213188">
        <ele>1154.4</ele>
        <time>2020-06-28T13:53:23Z</time>
      </trkpt>
      <trkpt lat="42.904759" lon="-0.213176">
        <ele>1154.3</ele>
        <time>2020-06-28T13:53:31Z</time>
      </trkpt>
      <trkpt lat="42.904648" lon="-0.213171">
        <ele>1154.3</ele>
        <time>2020-06-28T13:53:40Z</time>
      </trkpt>
      <trkpt lat="42.904545" lon="-0.213096">
        <ele>1154.3</ele>
        <time>2020-06-28T13:53:48Z</time>
      </trkpt>
      <trkpt lat="42.904450" lon="-0.213048">
        <ele>1156.6</ele>
        <time>2020-06-28T13:53:56Z</time>
      </trkpt>
      <trkpt lat="42.904349" lon="-0.213000">
        <ele>1156.5</ele>
        <time>2020-06-28T13:54:05Z</time>
      </trkpt>
      <trkpt lat="42.904257" lon="-0.212932">
        <ele>1157.4</ele>
        <time>2020-06-28T13:54:15Z</time>
      </trkpt>
      <trkpt lat="42.904141" lon="-0.212840">
        <ele>1157.3</ele>
        <time>2020-06-28T13:54:24Z</time>
      </trkpt>
    </trkseg>
  </trk>
</gpx>

